<?xml version='1.0' encoding='UTF-8'?>
<gpx version="1.1" creator="https://www.komoot.de" xmlns="http://www.topografix.com/GPX/1/1" xmlns:xsi="http://www.w3.org/2001/XMLSchema-instance" xsi:schemaLocation="http://www.topografix.com/GPX/1/1 http://www.topografix.com/GPX/1/1/gpx.xsd">
  <metadata>
    <name>78_950StaffeleggRotberg</name>
    <author>
      <link href="https://www.komoot.de">
        <text>komoot</text>
        <type>text/html</type>
      </link>
    </author>
  </metadata>
  <trk>
    <name>78_950StaffeleggRotberg</name>
    <trkseg>
      <trkpt lat="47.544240" lon="7.872396">
        <ele>360.102039</ele>
        <time>2021-11-21T15:39:08.566Z</time>
      </trkpt>
      <trkpt lat="47.544390" lon="7.872423">
        <ele>360.102039</ele>
        <time>2021-11-21T15:39:14.351Z</time>
      </trkpt>
      <trkpt lat="47.544883" lon="7.872555">
        <ele>360.102039</ele>
        <time>2021-11-21T15:39:33.037Z</time>
      </trkpt>
      <trkpt lat="47.545131" lon="7.872664">
        <ele>360.175137</ele>
        <time>2021-11-21T15:39:43.676Z</time>
      </trkpt>
      <trkpt lat="47.545375" lon="7.872836">
        <ele>361.899782</ele>
        <time>2021-11-21T15:39:54.286Z</time>
      </trkpt>
      <trkpt lat="47.545478" lon="7.872968">
        <ele>362.769022</ele>
        <time>2021-11-21T15:40:01.073Z</time>
      </trkpt>
      <trkpt lat="47.545515" lon="7.873015">
        <ele>363.080099</ele>
        <time>2021-11-21T15:40:02.942Z</time>
      </trkpt>
      <trkpt lat="47.545746" lon="7.873302">
        <ele>365.004306</ele>
        <time>2021-11-21T15:40:16.699Z</time>
      </trkpt>
      <trkpt lat="47.545934" lon="7.873549">
        <ele>366.608100</ele>
        <time>2021-11-21T15:40:26.799Z</time>
      </trkpt>
      <trkpt lat="47.546077" lon="7.873763">
        <ele>367.905411</ele>
        <time>2021-11-21T15:40:35.995Z</time>
      </trkpt>
      <trkpt lat="47.546135" lon="7.873859">
        <ele>368.460470</ele>
        <time>2021-11-21T15:40:39.234Z</time>
      </trkpt>
      <trkpt lat="47.546309" lon="7.874154">
        <ele>370.148235</ele>
        <time>2021-11-21T15:40:50.349Z</time>
      </trkpt>
      <trkpt lat="47.547126" lon="7.875801">
        <ele>375.815377</ele>
        <time>2021-11-21T15:41:36.110Z</time>
      </trkpt>
      <trkpt lat="47.547574" lon="7.876801">
        <ele>378.009698</ele>
        <time>2021-11-21T15:41:55.106Z</time>
      </trkpt>
      <trkpt lat="47.547992" lon="7.877974">
        <ele>377.123345</ele>
        <time>2021-11-21T15:42:07.907Z</time>
      </trkpt>
      <trkpt lat="47.548234" lon="7.878638">
        <ele>376.619100</ele>
        <time>2021-11-21T15:42:13.219Z</time>
      </trkpt>
      <trkpt lat="47.548422" lon="7.878959">
        <ele>376.144713</ele>
        <time>2021-11-21T15:42:16.061Z</time>
      </trkpt>
      <trkpt lat="47.548718" lon="7.879258">
        <ele>374.640889</ele>
        <time>2021-11-21T15:42:19.600Z</time>
      </trkpt>
      <trkpt lat="47.549140" lon="7.879391">
        <ele>372.829841</ele>
        <time>2021-11-21T15:42:23.787Z</time>
      </trkpt>
      <trkpt lat="47.549318" lon="7.879398">
        <ele>372.082394</ele>
        <time>2021-11-21T15:42:25.414Z</time>
      </trkpt>
      <trkpt lat="47.549327" lon="7.879547">
        <ele>371.658555</ele>
        <time>2021-11-21T15:42:26.400Z</time>
      </trkpt>
      <trkpt lat="47.549726" lon="7.880786">
        <ele>367.927855</ele>
        <time>2021-11-21T15:42:35.334Z</time>
      </trkpt>
      <trkpt lat="47.549927" lon="7.881490">
        <ele>366.082075</ele>
        <time>2021-11-21T15:42:40.366Z</time>
      </trkpt>
      <trkpt lat="47.550234" lon="7.883221">
        <ele>361.621121</ele>
        <time>2021-11-21T15:42:52.767Z</time>
      </trkpt>
      <trkpt lat="47.550332" lon="7.884727">
        <ele>357.183417</ele>
        <time>2021-11-21T15:43:02.611Z</time>
      </trkpt>
      <trkpt lat="47.550391" lon="7.885109">
        <ele>356.034020</ele>
        <time>2021-11-21T15:43:05.144Z</time>
      </trkpt>
      <trkpt lat="47.550548" lon="7.885799">
        <ele>353.682004</ele>
        <time>2021-11-21T15:43:09.749Z</time>
      </trkpt>
      <trkpt lat="47.550677" lon="7.886476">
        <ele>350.976009</ele>
        <time>2021-11-21T15:43:14.179Z</time>
      </trkpt>
      <trkpt lat="47.550758" lon="7.887295">
        <ele>347.791941</ele>
        <time>2021-11-21T15:43:19.321Z</time>
      </trkpt>
      <trkpt lat="47.550789" lon="7.887816">
        <ele>345.780054</ele>
        <time>2021-11-21T15:43:22.553Z</time>
      </trkpt>
      <trkpt lat="47.550831" lon="7.888611">
        <ele>342.554548</ele>
        <time>2021-11-21T15:43:27.508Z</time>
      </trkpt>
      <trkpt lat="47.550833" lon="7.889069">
        <ele>340.621804</ele>
        <time>2021-11-21T15:43:30.319Z</time>
      </trkpt>
      <trkpt lat="47.550915" lon="7.890600">
        <ele>334.140870</ele>
        <time>2021-11-21T15:43:39.711Z</time>
      </trkpt>
      <trkpt lat="47.550904" lon="7.891725">
        <ele>330.701738</ele>
        <time>2021-11-21T15:43:46.715Z</time>
      </trkpt>
      <trkpt lat="47.550892" lon="7.893176">
        <ele>326.742398</ele>
        <time>2021-11-21T15:43:56.328Z</time>
      </trkpt>
      <trkpt lat="47.550908" lon="7.894308">
        <ele>325.151134</ele>
        <time>2021-11-21T15:44:05.533Z</time>
      </trkpt>
      <trkpt lat="47.550878" lon="7.895158">
        <ele>324.430693</ele>
        <time>2021-11-21T15:44:12.718Z</time>
      </trkpt>
      <trkpt lat="47.550838" lon="7.895509">
        <ele>324.129393</ele>
        <time>2021-11-21T15:44:15.882Z</time>
      </trkpt>
      <trkpt lat="47.550660" lon="7.896255">
        <ele>323.328951</ele>
        <time>2021-11-21T15:44:22.370Z</time>
      </trkpt>
      <trkpt lat="47.550639" lon="7.896345">
        <ele>323.152178</ele>
        <time>2021-11-21T15:44:23.557Z</time>
      </trkpt>
      <trkpt lat="47.550648" lon="7.896481">
        <ele>322.898506</ele>
        <time>2021-11-21T15:44:24.512Z</time>
      </trkpt>
      <trkpt lat="47.550819" lon="7.898109">
        <ele>319.840013</ele>
        <time>2021-11-21T15:44:36.260Z</time>
      </trkpt>
      <trkpt lat="47.550801" lon="7.900244">
        <ele>314.370088</ele>
        <time>2021-11-21T15:44:50.098Z</time>
      </trkpt>
      <trkpt lat="47.550769" lon="7.901362">
        <ele>311.153277</ele>
        <time>2021-11-21T15:44:57.369Z</time>
      </trkpt>
      <trkpt lat="47.550757" lon="7.901591">
        <ele>310.559047</ele>
        <time>2021-11-21T15:44:59.506Z</time>
      </trkpt>
      <trkpt lat="47.550688" lon="7.902451">
        <ele>308.420481</ele>
        <time>2021-11-21T15:45:07.940Z</time>
      </trkpt>
      <trkpt lat="47.550498" lon="7.903445">
        <ele>305.869437</ele>
        <time>2021-11-21T15:45:18.190Z</time>
      </trkpt>
      <trkpt lat="47.550302" lon="7.904164">
        <ele>303.953917</ele>
        <time>2021-11-21T15:45:25.449Z</time>
      </trkpt>
      <trkpt lat="47.550025" lon="7.904774">
        <ele>302.135343</ele>
        <time>2021-11-21T15:45:32.374Z</time>
      </trkpt>
      <trkpt lat="47.549868" lon="7.905010">
        <ele>301.315688</ele>
        <time>2021-11-21T15:45:35.506Z</time>
      </trkpt>
      <trkpt lat="47.549867" lon="7.905155">
        <ele>300.957003</ele>
        <time>2021-11-21T15:45:36.903Z</time>
      </trkpt>
      <trkpt lat="47.550067" lon="7.905245">
        <ele>300.190977</ele>
        <time>2021-11-21T15:45:39.828Z</time>
      </trkpt>
      <trkpt lat="47.550283" lon="7.905413">
        <ele>299.296931</ele>
        <time>2021-11-21T15:45:43.278Z</time>
      </trkpt>
      <trkpt lat="47.550497" lon="7.905558">
        <ele>298.434538</ele>
        <time>2021-11-21T15:45:46.637Z</time>
      </trkpt>
      <trkpt lat="47.549539" lon="7.908625">
        <ele>293.115974</ele>
        <time>2021-11-21T15:46:11.095Z</time>
      </trkpt>
      <trkpt lat="47.549520" lon="7.908678">
        <ele>293.059799</ele>
        <time>2021-11-21T15:46:11.594Z</time>
      </trkpt>
      <trkpt lat="47.549308" lon="7.909380">
        <ele>292.339909</ele>
        <time>2021-11-21T15:46:17.828Z</time>
      </trkpt>
      <trkpt lat="47.549235" lon="7.909622">
        <ele>292.091788</ele>
        <time>2021-11-21T15:46:20.049Z</time>
      </trkpt>
      <trkpt lat="47.549195" lon="7.909756">
        <ele>291.954637</ele>
        <time>2021-11-21T15:46:21.216Z</time>
      </trkpt>
      <trkpt lat="47.549102" lon="7.910058">
        <ele>291.643913</ele>
        <time>2021-11-21T15:46:23.940Z</time>
      </trkpt>
      <trkpt lat="47.549012" lon="7.910340">
        <ele>291.351920</ele>
        <time>2021-11-21T15:46:26.433Z</time>
      </trkpt>
      <trkpt lat="47.548412" lon="7.912168">
        <ele>289.804765</ele>
        <time>2021-11-21T15:46:42.760Z</time>
      </trkpt>
      <trkpt lat="47.548027" lon="7.913334">
        <ele>289.035819</ele>
        <time>2021-11-21T15:46:53.521Z</time>
      </trkpt>
      <trkpt lat="47.547994" lon="7.913433">
        <ele>289.012599</ele>
        <time>2021-11-21T15:46:54.442Z</time>
      </trkpt>
      <trkpt lat="47.547423" lon="7.915080">
        <ele>288.623214</ele>
        <time>2021-11-21T15:47:11.918Z</time>
      </trkpt>
      <trkpt lat="47.547113" lon="7.915971">
        <ele>288.736657</ele>
        <time>2021-11-21T15:47:22.366Z</time>
      </trkpt>
      <trkpt lat="47.547091" lon="7.916039">
        <ele>288.759062</ele>
        <time>2021-11-21T15:47:23.390Z</time>
      </trkpt>
      <trkpt lat="47.547032" lon="7.916218">
        <ele>288.818248</ele>
        <time>2021-11-21T15:47:25.593Z</time>
      </trkpt>
      <trkpt lat="47.546821" lon="7.916867">
        <ele>289.032280</ele>
        <time>2021-11-21T15:47:33.702Z</time>
      </trkpt>
      <trkpt lat="47.546262" lon="7.919081">
        <ele>289.683944</ele>
        <time>2021-11-21T15:48:01.213Z</time>
      </trkpt>
      <trkpt lat="47.546128" lon="7.919617">
        <ele>289.832046</ele>
        <time>2021-11-21T15:48:06.682Z</time>
      </trkpt>
      <trkpt lat="47.545973" lon="7.920313">
        <ele>290.021949</ele>
        <time>2021-11-21T15:48:15.145Z</time>
      </trkpt>
      <trkpt lat="47.545913" lon="7.920765">
        <ele>290.408201</ele>
        <time>2021-11-21T15:48:19.318Z</time>
      </trkpt>
      <trkpt lat="47.545881" lon="7.921096">
        <ele>290.700676</ele>
        <time>2021-11-21T15:48:23.335Z</time>
      </trkpt>
      <trkpt lat="47.545810" lon="7.921755">
        <ele>291.284389</ele>
        <time>2021-11-21T15:48:32.243Z</time>
      </trkpt>
      <trkpt lat="47.545778" lon="7.921947">
        <ele>291.457373</ele>
        <time>2021-11-21T15:48:35.852Z</time>
      </trkpt>
      <trkpt lat="47.545714" lon="7.922249">
        <ele>291.734241</ele>
        <time>2021-11-21T15:48:39.051Z</time>
      </trkpt>
      <trkpt lat="47.545699" lon="7.922325">
        <ele>291.803500</ele>
        <time>2021-11-21T15:48:40.248Z</time>
      </trkpt>
      <trkpt lat="47.545690" lon="7.922369">
        <ele>291.843715</ele>
        <time>2021-11-21T15:48:42.347Z</time>
      </trkpt>
      <trkpt lat="47.545641" lon="7.922610">
        <ele>292.063870</ele>
        <time>2021-11-21T15:48:44.700Z</time>
      </trkpt>
      <trkpt lat="47.545587" lon="7.922895">
        <ele>292.322791</ele>
        <time>2021-11-21T15:48:50.497Z</time>
      </trkpt>
      <trkpt lat="47.545553" lon="7.923142">
        <ele>292.864946</ele>
        <time>2021-11-21T15:48:53.143Z</time>
      </trkpt>
      <trkpt lat="47.545536" lon="7.923407">
        <ele>293.505745</ele>
        <time>2021-11-21T15:48:59.033Z</time>
      </trkpt>
      <trkpt lat="47.545521" lon="7.923709">
        <ele>294.234704</ele>
        <time>2021-11-21T15:49:03.187Z</time>
      </trkpt>
      <trkpt lat="47.545481" lon="7.924396">
        <ele>295.894636</ele>
        <time>2021-11-21T15:49:17.790Z</time>
      </trkpt>
      <trkpt lat="47.545466" lon="7.924880">
        <ele>297.060980</ele>
        <time>2021-11-21T15:49:29.097Z</time>
      </trkpt>
      <trkpt lat="47.545446" lon="7.925350">
        <ele>298.194641</ele>
        <time>2021-11-21T15:49:39.471Z</time>
      </trkpt>
      <trkpt lat="47.545417" lon="7.925848">
        <ele>299.170014</ele>
        <time>2021-11-21T15:49:49.950Z</time>
      </trkpt>
      <trkpt lat="47.545409" lon="7.926773">
        <ele>300.583235</ele>
        <time>2021-11-21T15:50:07.152Z</time>
      </trkpt>
      <trkpt lat="47.545407" lon="7.927001">
        <ele>300.931576</ele>
        <time>2021-11-21T15:50:10.960Z</time>
      </trkpt>
      <trkpt lat="47.545406" lon="7.927306">
        <ele>301.397524</ele>
        <time>2021-11-21T15:50:15.565Z</time>
      </trkpt>
      <trkpt lat="47.545421" lon="7.927686">
        <ele>301.979035</ele>
        <time>2021-11-21T15:50:21.100Z</time>
      </trkpt>
      <trkpt lat="47.545475" lon="7.928419">
        <ele>302.682725</ele>
        <time>2021-11-21T15:50:30.418Z</time>
      </trkpt>
      <trkpt lat="47.545563" lon="7.929641">
        <ele>301.514188</ele>
        <time>2021-11-21T15:50:40.297Z</time>
      </trkpt>
      <trkpt lat="47.545661" lon="7.930955">
        <ele>300.264155</ele>
        <time>2021-11-21T15:50:49.693Z</time>
      </trkpt>
      <trkpt lat="47.545696" lon="7.931497">
        <ele>299.813393</ele>
        <time>2021-11-21T15:50:53.662Z</time>
      </trkpt>
      <trkpt lat="47.545721" lon="7.931992">
        <ele>299.402444</ele>
        <time>2021-11-21T15:50:57.455Z</time>
      </trkpt>
      <trkpt lat="47.545724" lon="7.932758">
        <ele>298.768273</ele>
        <time>2021-11-21T15:51:03.664Z</time>
      </trkpt>
      <trkpt lat="47.545702" lon="7.933290">
        <ele>298.327012</ele>
        <time>2021-11-21T15:51:08.307Z</time>
      </trkpt>
      <trkpt lat="47.545674" lon="7.933625">
        <ele>298.149103</ele>
        <time>2021-11-21T15:51:11.507Z</time>
      </trkpt>
      <trkpt lat="47.545457" lon="7.935110">
        <ele>299.107104</ele>
        <time>2021-11-21T15:51:29.642Z</time>
      </trkpt>
      <trkpt lat="47.545074" lon="7.936484">
        <ele>300.271129</ele>
        <time>2021-11-21T15:51:51.169Z</time>
      </trkpt>
      <trkpt lat="47.544903" lon="7.936917">
        <ele>300.864227</ele>
        <time>2021-11-21T15:51:58.486Z</time>
      </trkpt>
      <trkpt lat="47.544705" lon="7.937395">
        <ele>301.527273</ele>
        <time>2021-11-21T15:52:06.670Z</time>
      </trkpt>
      <trkpt lat="47.544472" lon="7.937932">
        <ele>302.282001</ele>
        <time>2021-11-21T15:52:16.077Z</time>
      </trkpt>
      <trkpt lat="47.543826" lon="7.939433">
        <ele>304.334904</ele>
        <time>2021-11-21T15:52:42.959Z</time>
      </trkpt>
      <trkpt lat="47.543435" lon="7.940670">
        <ele>305.892246</ele>
        <time>2021-11-21T15:53:02.919Z</time>
      </trkpt>
      <trkpt lat="47.543161" lon="7.942213">
        <ele>306.519594</ele>
        <time>2021-11-21T15:53:23.769Z</time>
      </trkpt>
      <trkpt lat="47.543007" lon="7.943867">
        <ele>306.428097</ele>
        <time>2021-11-21T15:53:39.313Z</time>
      </trkpt>
      <trkpt lat="47.542913" lon="7.945267">
        <ele>305.099022</ele>
        <time>2021-11-21T15:53:50.219Z</time>
      </trkpt>
      <trkpt lat="47.542872" lon="7.945781">
        <ele>304.610079</ele>
        <time>2021-11-21T15:53:54.035Z</time>
      </trkpt>
      <trkpt lat="47.542875" lon="7.946089">
        <ele>304.307595</ele>
        <time>2021-11-21T15:53:56.270Z</time>
      </trkpt>
      <trkpt lat="47.542902" lon="7.946514">
        <ele>303.853920</ele>
        <time>2021-11-21T15:53:59.364Z</time>
      </trkpt>
      <trkpt lat="47.542943" lon="7.946806">
        <ele>303.536948</ele>
        <time>2021-11-21T15:54:01.575Z</time>
      </trkpt>
      <trkpt lat="47.542974" lon="7.946965">
        <ele>303.361060</ele>
        <time>2021-11-21T15:54:02.882Z</time>
      </trkpt>
      <trkpt lat="47.542979" lon="7.946989">
        <ele>303.334367</ele>
        <time>2021-11-21T15:54:03.039Z</time>
      </trkpt>
      <trkpt lat="47.542989" lon="7.947104">
        <ele>303.211138</ele>
        <time>2021-11-21T15:54:03.910Z</time>
      </trkpt>
      <trkpt lat="47.542984" lon="7.947304">
        <ele>302.998438</ele>
        <time>2021-11-21T15:54:05.485Z</time>
      </trkpt>
      <trkpt lat="47.542979" lon="7.947370">
        <ele>302.927855</ele>
        <time>2021-11-21T15:54:05.987Z</time>
      </trkpt>
      <trkpt lat="47.542935" lon="7.947564">
        <ele>302.710350</ele>
        <time>2021-11-21T15:54:07.554Z</time>
      </trkpt>
      <trkpt lat="47.542892" lon="7.947789">
        <ele>302.461828</ele>
        <time>2021-11-21T15:54:09.472Z</time>
      </trkpt>
      <trkpt lat="47.542875" lon="7.948001">
        <ele>302.234935</ele>
        <time>2021-11-21T15:54:11.288Z</time>
      </trkpt>
      <trkpt lat="47.542838" lon="7.948225">
        <ele>301.989850</ele>
        <time>2021-11-21T15:54:13.072Z</time>
      </trkpt>
      <trkpt lat="47.542826" lon="7.948298">
        <ele>301.910001</ele>
        <time>2021-11-21T15:54:13.694Z</time>
      </trkpt>
      <trkpt lat="47.542719" lon="7.949175">
        <ele>301.390913</ele>
        <time>2021-11-21T15:54:20.919Z</time>
      </trkpt>
      <trkpt lat="47.542609" lon="7.949914">
        <ele>301.145181</ele>
        <time>2021-11-21T15:54:27.693Z</time>
      </trkpt>
      <trkpt lat="47.542560" lon="7.950202">
        <ele>301.048737</ele>
        <time>2021-11-21T15:54:30.561Z</time>
      </trkpt>
      <trkpt lat="47.542554" lon="7.950231">
        <ele>301.038888</ele>
        <time>2021-11-21T15:54:30.837Z</time>
      </trkpt>
      <trkpt lat="47.542546" lon="7.950274">
        <ele>301.024404</ele>
        <time>2021-11-21T15:54:31.242Z</time>
      </trkpt>
      <trkpt lat="47.542444" lon="7.950687">
        <ele>300.881601</ele>
        <time>2021-11-21T15:54:35.704Z</time>
      </trkpt>
      <trkpt lat="47.542357" lon="7.951037">
        <ele>300.760488</ele>
        <time>2021-11-21T15:54:39.348Z</time>
      </trkpt>
      <trkpt lat="47.542192" lon="7.951713">
        <ele>300.615411</ele>
        <time>2021-11-21T15:54:46.296Z</time>
      </trkpt>
      <trkpt lat="47.542169" lon="7.951815">
        <ele>300.596990</ele>
        <time>2021-11-21T15:54:47.223Z</time>
      </trkpt>
      <trkpt lat="47.541991" lon="7.952667">
        <ele>300.444222</ele>
        <time>2021-11-21T15:54:55.505Z</time>
      </trkpt>
      <trkpt lat="47.541791" lon="7.953601">
        <ele>300.276380</ele>
        <time>2021-11-21T15:55:04.556Z</time>
      </trkpt>
      <trkpt lat="47.541773" lon="7.953695">
        <ele>300.259644</ele>
        <time>2021-11-21T15:55:05.492Z</time>
      </trkpt>
      <trkpt lat="47.541735" lon="7.953892">
        <ele>300.269621</ele>
        <time>2021-11-21T15:55:07.375Z</time>
      </trkpt>
      <trkpt lat="47.541660" lon="7.954250">
        <ele>300.292870</ele>
        <time>2021-11-21T15:55:11.133Z</time>
      </trkpt>
      <trkpt lat="47.541530" lon="7.954936">
        <ele>300.337062</ele>
        <time>2021-11-21T15:55:18.354Z</time>
      </trkpt>
      <trkpt lat="47.541482" lon="7.955294">
        <ele>300.359700</ele>
        <time>2021-11-21T15:55:22.403Z</time>
      </trkpt>
      <trkpt lat="47.541465" lon="7.955512">
        <ele>300.373310</ele>
        <time>2021-11-21T15:55:24.738Z</time>
      </trkpt>
      <trkpt lat="47.541442" lon="7.955866">
        <ele>300.395368</ele>
        <time>2021-11-21T15:55:28.924Z</time>
      </trkpt>
      <trkpt lat="47.541410" lon="7.956569">
        <ele>300.375067</ele>
        <time>2021-11-21T15:55:35.900Z</time>
      </trkpt>
      <trkpt lat="47.541404" lon="7.956677">
        <ele>300.355194</ele>
        <time>2021-11-21T15:55:37.594Z</time>
      </trkpt>
      <trkpt lat="47.541280" lon="7.957569">
        <ele>300.188170</ele>
        <time>2021-11-21T15:55:45.632Z</time>
      </trkpt>
      <trkpt lat="47.541237" lon="7.957756">
        <ele>300.151939</ele>
        <time>2021-11-21T15:55:48.188Z</time>
      </trkpt>
      <trkpt lat="47.541305" lon="7.957787">
        <ele>300.132610</ele>
        <time>2021-11-21T15:55:49.361Z</time>
      </trkpt>
      <trkpt lat="47.541539" lon="7.957892">
        <ele>300.066185</ele>
        <time>2021-11-21T15:55:53.917Z</time>
      </trkpt>
      <trkpt lat="47.541700" lon="7.957963">
        <ele>300.020548</ele>
        <time>2021-11-21T15:55:56.913Z</time>
      </trkpt>
      <trkpt lat="47.541830" lon="7.958033">
        <ele>299.982969</ele>
        <time>2021-11-21T15:55:59.305Z</time>
      </trkpt>
      <trkpt lat="47.542259" lon="7.958287">
        <ele>299.927770</ele>
        <time>2021-11-21T15:56:08.508Z</time>
      </trkpt>
      <trkpt lat="47.542441" lon="7.958428">
        <ele>299.923066</ele>
        <time>2021-11-21T15:56:11.968Z</time>
      </trkpt>
      <trkpt lat="47.542693" lon="7.958608">
        <ele>299.916659</ele>
        <time>2021-11-21T15:56:17.406Z</time>
      </trkpt>
      <trkpt lat="47.543178" lon="7.959043">
        <ele>299.903674</ele>
        <time>2021-11-21T15:56:28.268Z</time>
      </trkpt>
      <trkpt lat="47.543322" lon="7.959242">
        <ele>299.899164</ele>
        <time>2021-11-21T15:56:32.444Z</time>
      </trkpt>
      <trkpt lat="47.543374" lon="7.959437">
        <ele>299.895923</ele>
        <time>2021-11-21T15:56:35.665Z</time>
      </trkpt>
      <trkpt lat="47.543374" lon="7.959437">
        <ele>299.895923</ele>
        <time>2021-11-21T15:56:35.723Z</time>
      </trkpt>
      <trkpt lat="47.543357" lon="7.959668">
        <ele>299.934999</ele>
        <time>2021-11-21T15:56:39.441Z</time>
      </trkpt>
      <trkpt lat="47.542960" lon="7.960501">
        <ele>300.853570</ele>
        <time>2021-11-21T15:56:57.123Z</time>
      </trkpt>
      <trkpt lat="47.542861" lon="7.960776">
        <ele>301.134327</ele>
        <time>2021-11-21T15:57:02.915Z</time>
      </trkpt>
      <trkpt lat="47.542800" lon="7.960973">
        <ele>301.329571</ele>
        <time>2021-11-21T15:57:06.849Z</time>
      </trkpt>
      <trkpt lat="47.542731" lon="7.961265">
        <ele>301.608267</ele>
        <time>2021-11-21T15:57:12.453Z</time>
      </trkpt>
      <trkpt lat="47.542689" lon="7.961423">
        <ele>301.761238</ele>
        <time>2021-11-21T15:57:15.516Z</time>
      </trkpt>
      <trkpt lat="47.542653" lon="7.961581">
        <ele>301.911460</ele>
        <time>2021-11-21T15:57:18.488Z</time>
      </trkpt>
      <trkpt lat="47.542619" lon="7.961728">
        <ele>302.051441</ele>
        <time>2021-11-21T15:57:21.268Z</time>
      </trkpt>
      <trkpt lat="47.542513" lon="7.962471">
        <ele>302.837617</ele>
        <time>2021-11-21T15:57:33.888Z</time>
      </trkpt>
      <trkpt lat="47.542516" lon="7.962915">
        <ele>303.329932</ele>
        <time>2021-11-21T15:57:41.378Z</time>
      </trkpt>
      <trkpt lat="47.542511" lon="7.963476">
        <ele>303.952002</ele>
        <time>2021-11-21T15:57:50.790Z</time>
      </trkpt>
      <trkpt lat="47.542253" lon="7.965169">
        <ele>306.093082</ele>
        <time>2021-11-21T15:58:24.848Z</time>
      </trkpt>
      <trkpt lat="47.542271" lon="7.965269">
        <ele>306.247382</ele>
        <time>2021-11-21T15:58:26.812Z</time>
      </trkpt>
      <trkpt lat="47.542210" lon="7.965313">
        <ele>306.397228</ele>
        <time>2021-11-21T15:58:28.803Z</time>
      </trkpt>
      <trkpt lat="47.541714" lon="7.965522">
        <ele>307.536145</ele>
        <time>2021-11-21T15:58:40.675Z</time>
      </trkpt>
      <trkpt lat="47.541593" lon="7.965571">
        <ele>307.813190</ele>
        <time>2021-11-21T15:58:43.584Z</time>
      </trkpt>
      <trkpt lat="47.541502" lon="7.965586">
        <ele>308.015412</ele>
        <time>2021-11-21T15:58:45.888Z</time>
      </trkpt>
      <trkpt lat="47.541122" lon="7.967754">
        <ele>310.876734</ele>
        <time>2021-11-21T15:59:22.024Z</time>
      </trkpt>
      <trkpt lat="47.540988" lon="7.968696">
        <ele>311.990538</ele>
        <time>2021-11-21T15:59:34.044Z</time>
      </trkpt>
      <trkpt lat="47.540930" lon="7.969589">
        <ele>312.832371</ele>
        <time>2021-11-21T15:59:46.327Z</time>
      </trkpt>
      <trkpt lat="47.541007" lon="7.971034">
        <ele>314.056218</ele>
        <time>2021-11-21T16:00:06.436Z</time>
      </trkpt>
      <trkpt lat="47.541050" lon="7.971427">
        <ele>314.392368</ele>
        <time>2021-11-21T16:00:11.808Z</time>
      </trkpt>
      <trkpt lat="47.541111" lon="7.971844">
        <ele>314.589568</ele>
        <time>2021-11-21T16:00:17.292Z</time>
      </trkpt>
      <trkpt lat="47.541444" lon="7.973570">
        <ele>314.871076</ele>
        <time>2021-11-21T16:00:37.496Z</time>
      </trkpt>
      <trkpt lat="47.541613" lon="7.974143">
        <ele>314.969136</ele>
        <time>2021-11-21T16:00:43.083Z</time>
      </trkpt>
      <trkpt lat="47.542030" lon="7.976464">
        <ele>313.073892</ele>
        <time>2021-11-21T16:01:02.369Z</time>
      </trkpt>
      <trkpt lat="47.542105" lon="7.977317">
        <ele>312.228693</ele>
        <time>2021-11-21T16:01:08.961Z</time>
      </trkpt>
      <trkpt lat="47.542119" lon="7.977479">
        <ele>312.054006</ele>
        <time>2021-11-21T16:01:10.167Z</time>
      </trkpt>
      <trkpt lat="47.542153" lon="7.979253">
        <ele>310.155797</ele>
        <time>2021-11-21T16:01:23.753Z</time>
      </trkpt>
      <trkpt lat="47.542138" lon="7.980233">
        <ele>309.611907</ele>
        <time>2021-11-21T16:01:31.423Z</time>
      </trkpt>
      <trkpt lat="47.542122" lon="7.980765">
        <ele>309.360489</ele>
        <time>2021-11-21T16:01:35.814Z</time>
      </trkpt>
      <trkpt lat="47.542087" lon="7.982565">
        <ele>309.154264</ele>
        <time>2021-11-21T16:01:53.102Z</time>
      </trkpt>
      <trkpt lat="47.542068" lon="7.983338">
        <ele>309.759399</ele>
        <time>2021-11-21T16:02:03.134Z</time>
      </trkpt>
      <trkpt lat="47.542145" lon="7.983983">
        <ele>310.271826</ele>
        <time>2021-11-21T16:02:12.349Z</time>
      </trkpt>
      <trkpt lat="47.542208" lon="7.984399">
        <ele>310.605361</ele>
        <time>2021-11-21T16:02:18.459Z</time>
      </trkpt>
      <trkpt lat="47.542126" lon="7.984398">
        <ele>310.700395</ele>
        <time>2021-11-21T16:02:20.359Z</time>
      </trkpt>
      <trkpt lat="47.541734" lon="7.984406">
        <ele>311.537115</ele>
        <time>2021-11-21T16:02:31.837Z</time>
      </trkpt>
      <trkpt lat="47.541183" lon="7.984395">
        <ele>312.944643</ele>
        <time>2021-11-21T16:02:48.976Z</time>
      </trkpt>
      <trkpt lat="47.540750" lon="7.984343">
        <ele>314.054268</ele>
        <time>2021-11-21T16:03:02.733Z</time>
      </trkpt>
      <trkpt lat="47.540609" lon="7.984254">
        <ele>314.445752</ele>
        <time>2021-11-21T16:03:07.818Z</time>
      </trkpt>
      <trkpt lat="47.540570" lon="7.984220">
        <ele>314.561339</ele>
        <time>2021-11-21T16:03:09.392Z</time>
      </trkpt>
      <trkpt lat="47.540197" lon="7.983795">
        <ele>315.607657</ele>
        <time>2021-11-21T16:03:23.598Z</time>
      </trkpt>
      <trkpt lat="47.540009" lon="7.983581">
        <ele>315.929286</ele>
        <time>2021-11-21T16:03:30.468Z</time>
      </trkpt>
      <trkpt lat="47.539746" lon="7.983424">
        <ele>316.313937</ele>
        <time>2021-11-21T16:03:38.178Z</time>
      </trkpt>
      <trkpt lat="47.539359" lon="7.983508">
        <ele>316.844523</ele>
        <time>2021-11-21T16:03:48.738Z</time>
      </trkpt>
      <trkpt lat="47.539266" lon="7.983513">
        <ele>316.970765</ele>
        <time>2021-11-21T16:03:51.553Z</time>
      </trkpt>
      <trkpt lat="47.539141" lon="7.984006">
        <ele>317.453037</ele>
        <time>2021-11-21T16:03:58.647Z</time>
      </trkpt>
      <trkpt lat="47.539084" lon="7.984257">
        <ele>317.695555</ele>
        <time>2021-11-21T16:04:01.266Z</time>
      </trkpt>
      <trkpt lat="47.538988" lon="7.984674">
        <ele>317.726086</ele>
        <time>2021-11-21T16:04:05.483Z</time>
      </trkpt>
      <trkpt lat="47.538891" lon="7.984830">
        <ele>317.602260</ele>
        <time>2021-11-21T16:04:07.035Z</time>
      </trkpt>
      <trkpt lat="47.538208" lon="7.985592">
        <ele>316.862775</ele>
        <time>2021-11-21T16:04:17.073Z</time>
      </trkpt>
      <trkpt lat="47.537884" lon="7.985939">
        <ele>316.516998</ele>
        <time>2021-11-21T16:04:21.910Z</time>
      </trkpt>
      <trkpt lat="47.537812" lon="7.986127">
        <ele>316.390801</ele>
        <time>2021-11-21T16:04:24.336Z</time>
      </trkpt>
      <trkpt lat="47.537815" lon="7.986191">
        <ele>316.353344</ele>
        <time>2021-11-21T16:04:24.750Z</time>
      </trkpt>
      <trkpt lat="47.537821" lon="7.986433">
        <ele>316.384786</ele>
        <time>2021-11-21T16:04:26.922Z</time>
      </trkpt>
      <trkpt lat="47.537409" lon="7.986449">
        <ele>316.621880</ele>
        <time>2021-11-21T16:04:32.703Z</time>
      </trkpt>
      <trkpt lat="47.537167" lon="7.986470">
        <ele>316.761335</ele>
        <time>2021-11-21T16:04:35.931Z</time>
      </trkpt>
      <trkpt lat="47.536796" lon="7.986519">
        <ele>316.975609</ele>
        <time>2021-11-21T16:04:42.057Z</time>
      </trkpt>
      <trkpt lat="47.536685" lon="7.986543">
        <ele>317.040141</ele>
        <time>2021-11-21T16:04:44.518Z</time>
      </trkpt>
      <trkpt lat="47.536465" lon="7.986660">
        <ele>317.174612</ele>
        <time>2021-11-21T16:04:48.833Z</time>
      </trkpt>
      <trkpt lat="47.536140" lon="7.986963">
        <ele>317.464623</ele>
        <time>2021-11-21T16:04:57.964Z</time>
      </trkpt>
      <trkpt lat="47.535935" lon="7.987272">
        <ele>317.890834</ele>
        <time>2021-11-21T16:05:05.622Z</time>
      </trkpt>
      <trkpt lat="47.535862" lon="7.987408">
        <ele>318.061768</ele>
        <time>2021-11-21T16:05:08.212Z</time>
      </trkpt>
      <trkpt lat="47.535735" lon="7.987639">
        <ele>318.354852</ele>
        <time>2021-11-21T16:05:13.156Z</time>
      </trkpt>
      <trkpt lat="47.535393" lon="7.988043">
        <ele>318.992311</ele>
        <time>2021-11-21T16:05:22.379Z</time>
      </trkpt>
      <trkpt lat="47.535196" lon="7.988134">
        <ele>319.293021</ele>
        <time>2021-11-21T16:05:26.533Z</time>
      </trkpt>
      <trkpt lat="47.534985" lon="7.988144">
        <ele>319.600654</ele>
        <time>2021-11-21T16:05:30.157Z</time>
      </trkpt>
      <trkpt lat="47.534795" lon="7.988078">
        <ele>319.885040</ele>
        <time>2021-11-21T16:05:34.262Z</time>
      </trkpt>
      <trkpt lat="47.534771" lon="7.988562">
        <ele>319.764059</ele>
        <time>2021-11-21T16:05:41.285Z</time>
      </trkpt>
      <trkpt lat="47.534723" lon="7.989575">
        <ele>319.234020</ele>
        <time>2021-11-21T16:05:53.097Z</time>
      </trkpt>
      <trkpt lat="47.534609" lon="7.990394">
        <ele>318.797550</ele>
        <time>2021-11-21T16:06:02.473Z</time>
      </trkpt>
      <trkpt lat="47.534606" lon="7.990590">
        <ele>318.695221</ele>
        <time>2021-11-21T16:06:04.608Z</time>
      </trkpt>
      <trkpt lat="47.534644" lon="7.990797">
        <ele>318.583254</ele>
        <time>2021-11-21T16:06:07.204Z</time>
      </trkpt>
      <trkpt lat="47.534860" lon="7.991148">
        <ele>318.462412</ele>
        <time>2021-11-21T16:06:12.773Z</time>
      </trkpt>
      <trkpt lat="47.535110" lon="7.991631">
        <ele>318.309073</ele>
        <time>2021-11-21T16:06:20.165Z</time>
      </trkpt>
      <trkpt lat="47.535497" lon="7.992318">
        <ele>318.083647</ele>
        <time>2021-11-21T16:06:31.119Z</time>
      </trkpt>
      <trkpt lat="47.535603" lon="7.992576">
        <ele>318.007555</ele>
        <time>2021-11-21T16:06:35.782Z</time>
      </trkpt>
      <trkpt lat="47.535601" lon="7.992617">
        <ele>317.997198</ele>
        <time>2021-11-21T16:06:36.846Z</time>
      </trkpt>
      <trkpt lat="47.535530" lon="7.992828">
        <ele>317.937801</ele>
        <time>2021-11-21T16:06:39.736Z</time>
      </trkpt>
      <trkpt lat="47.535193" lon="7.993482">
        <ele>318.356595</ele>
        <time>2021-11-21T16:06:54.171Z</time>
      </trkpt>
      <trkpt lat="47.535091" lon="7.993681">
        <ele>318.513538</ele>
        <time>2021-11-21T16:06:58.141Z</time>
      </trkpt>
      <trkpt lat="47.534115" lon="7.996823">
        <ele>320.211065</ele>
        <time>2021-11-21T16:07:54.181Z</time>
      </trkpt>
      <trkpt lat="47.532880" lon="7.998728">
        <ele>320.262231</ele>
        <time>2021-11-21T16:08:28.843Z</time>
      </trkpt>
      <trkpt lat="47.532745" lon="7.998891">
        <ele>320.221486</ele>
        <time>2021-11-21T16:08:32.185Z</time>
      </trkpt>
      <trkpt lat="47.532616" lon="7.998942">
        <ele>320.190252</ele>
        <time>2021-11-21T16:08:34.614Z</time>
      </trkpt>
      <trkpt lat="47.532314" lon="7.998991">
        <ele>320.119180</ele>
        <time>2021-11-21T16:08:40.371Z</time>
      </trkpt>
      <trkpt lat="47.532321" lon="7.999312">
        <ele>320.219754</ele>
        <time>2021-11-21T16:08:44.704Z</time>
      </trkpt>
      <trkpt lat="47.532283" lon="7.999633">
        <ele>320.335118</ele>
        <time>2021-11-21T16:08:48.881Z</time>
      </trkpt>
      <trkpt lat="47.532176" lon="8.000088">
        <ele>320.505673</ele>
        <time>2021-11-21T16:08:55.151Z</time>
      </trkpt>
      <trkpt lat="47.531789" lon="8.001140">
        <ele>320.929759</ele>
        <time>2021-11-21T16:09:13.506Z</time>
      </trkpt>
      <trkpt lat="47.531407" lon="8.001793">
        <ele>321.791561</ele>
        <time>2021-11-21T16:09:29.767Z</time>
      </trkpt>
      <trkpt lat="47.531127" lon="8.002157">
        <ele>322.598815</ele>
        <time>2021-11-21T16:09:40.743Z</time>
      </trkpt>
      <trkpt lat="47.530077" lon="8.003471">
        <ele>325.581446</ele>
        <time>2021-11-21T16:10:21.623Z</time>
      </trkpt>
      <trkpt lat="47.529391" lon="8.004422">
        <ele>327.630852</ele>
        <time>2021-11-21T16:10:49.889Z</time>
      </trkpt>
      <trkpt lat="47.529337" lon="8.004498">
        <ele>327.793327</ele>
        <time>2021-11-21T16:10:52.006Z</time>
      </trkpt>
      <trkpt lat="47.528852" lon="8.005150">
        <ele>329.163131</ele>
        <time>2021-11-21T16:11:09.222Z</time>
      </trkpt>
      <trkpt lat="47.527466" lon="8.006442">
        <ele>332.123682</ele>
        <time>2021-11-21T16:11:54.512Z</time>
      </trkpt>
      <trkpt lat="47.526398" lon="8.007517">
        <ele>334.308261</ele>
        <time>2021-11-21T16:12:30.322Z</time>
      </trkpt>
      <trkpt lat="47.525704" lon="8.008036">
        <ele>335.295358</ele>
        <time>2021-11-21T16:12:50.293Z</time>
      </trkpt>
      <trkpt lat="47.525125" lon="8.008474">
        <ele>335.595795</ele>
        <time>2021-11-21T16:13:05.279Z</time>
      </trkpt>
      <trkpt lat="47.524738" lon="8.008790">
        <ele>335.800007</ele>
        <time>2021-11-21T16:13:14.720Z</time>
      </trkpt>
      <trkpt lat="47.523750" lon="8.009595">
        <ele>335.576956</ele>
        <time>2021-11-21T16:13:35.917Z</time>
      </trkpt>
      <trkpt lat="47.523475" lon="8.009886">
        <ele>335.367503</ele>
        <time>2021-11-21T16:13:42.109Z</time>
      </trkpt>
      <trkpt lat="47.522752" lon="8.010942">
        <ele>334.794041</ele>
        <time>2021-11-21T16:13:59.977Z</time>
      </trkpt>
      <trkpt lat="47.522135" lon="8.011541">
        <ele>334.506569</ele>
        <time>2021-11-21T16:14:13.213Z</time>
      </trkpt>
      <trkpt lat="47.521999" lon="8.011997">
        <ele>334.375400</ele>
        <time>2021-11-21T16:14:19.824Z</time>
      </trkpt>
      <trkpt lat="47.521884" lon="8.013019">
        <ele>334.198409</ele>
        <time>2021-11-21T16:14:34.517Z</time>
      </trkpt>
      <trkpt lat="47.521867" lon="8.013168">
        <ele>334.203377</ele>
        <time>2021-11-21T16:14:37.051Z</time>
      </trkpt>
      <trkpt lat="47.521857" lon="8.013314">
        <ele>334.208202</ele>
        <time>2021-11-21T16:14:38.552Z</time>
      </trkpt>
      <trkpt lat="47.521782" lon="8.013652">
        <ele>334.219898</ele>
        <time>2021-11-21T16:14:42.040Z</time>
      </trkpt>
      <trkpt lat="47.521611" lon="8.013949">
        <ele>334.232729</ele>
        <time>2021-11-21T16:14:45.655Z</time>
      </trkpt>
      <trkpt lat="47.521532" lon="8.014046">
        <ele>334.237726</ele>
        <time>2021-11-21T16:14:47.590Z</time>
      </trkpt>
      <trkpt lat="47.521508" lon="8.014076">
        <ele>334.239255</ele>
        <time>2021-11-21T16:14:48.065Z</time>
      </trkpt>
      <trkpt lat="47.521454" lon="8.014134">
        <ele>334.242502</ele>
        <time>2021-11-21T16:14:49.117Z</time>
      </trkpt>
      <trkpt lat="47.521292" lon="8.014319">
        <ele>334.252462</ele>
        <time>2021-11-21T16:14:51.992Z</time>
      </trkpt>
      <trkpt lat="47.521150" lon="8.014447">
        <ele>334.260555</ele>
        <time>2021-11-21T16:14:54.794Z</time>
      </trkpt>
      <trkpt lat="47.520953" lon="8.014530">
        <ele>334.270526</ele>
        <time>2021-11-21T16:14:57.683Z</time>
      </trkpt>
      <trkpt lat="47.520848" lon="8.014542">
        <ele>334.274257</ele>
        <time>2021-11-21T16:14:59.351Z</time>
      </trkpt>
      <trkpt lat="47.520539" lon="8.014558">
        <ele>334.219828</ele>
        <time>2021-11-21T16:15:03.395Z</time>
      </trkpt>
      <trkpt lat="47.520115" lon="8.014648">
        <ele>334.144426</ele>
        <time>2021-11-21T16:15:09.755Z</time>
      </trkpt>
      <trkpt lat="47.519666" lon="8.015011">
        <ele>334.054372</ele>
        <time>2021-11-21T16:15:16.976Z</time>
      </trkpt>
      <trkpt lat="47.519564" lon="8.015041">
        <ele>334.036065</ele>
        <time>2021-11-21T16:15:18.077Z</time>
      </trkpt>
      <trkpt lat="47.519570" lon="8.014933">
        <ele>334.023183</ele>
        <time>2021-11-21T16:15:18.798Z</time>
      </trkpt>
      <trkpt lat="47.519567" lon="8.014689">
        <ele>333.994170</ele>
        <time>2021-11-21T16:15:21.878Z</time>
      </trkpt>
      <trkpt lat="47.519560" lon="8.014397">
        <ele>333.959434</ele>
        <time>2021-11-21T16:15:24.258Z</time>
      </trkpt>
      <trkpt lat="47.519550" lon="8.014167">
        <ele>334.143359</ele>
        <time>2021-11-21T16:15:27.443Z</time>
      </trkpt>
      <trkpt lat="47.519542" lon="8.014115">
        <ele>334.187221</ele>
        <time>2021-11-21T16:15:29.832Z</time>
      </trkpt>
      <trkpt lat="47.519506" lon="8.013880">
        <ele>334.385402</ele>
        <time>2021-11-21T16:15:31.532Z</time>
      </trkpt>
      <trkpt lat="47.519407" lon="8.013567">
        <ele>334.669658</ele>
        <time>2021-11-21T16:15:37.519Z</time>
      </trkpt>
      <trkpt lat="47.519283" lon="8.013313">
        <ele>334.927421</ele>
        <time>2021-11-21T16:15:40.445Z</time>
      </trkpt>
      <trkpt lat="47.519066" lon="8.012986">
        <ele>335.304465</ele>
        <time>2021-11-21T16:15:46.873Z</time>
      </trkpt>
      <trkpt lat="47.518762" lon="8.012505">
        <ele>335.846269</ele>
        <time>2021-11-21T16:15:57.279Z</time>
      </trkpt>
      <trkpt lat="47.518672" lon="8.012356">
        <ele>336.010677</ele>
        <time>2021-11-21T16:16:01.341Z</time>
      </trkpt>
      <trkpt lat="47.518031" lon="8.011413">
        <ele>337.270745</ele>
        <time>2021-11-21T16:16:19.372Z</time>
      </trkpt>
      <trkpt lat="47.518005" lon="8.011373">
        <ele>337.323984</ele>
        <time>2021-11-21T16:16:20.203Z</time>
      </trkpt>
      <trkpt lat="47.517842" lon="8.011140">
        <ele>337.645692</ele>
        <time>2021-11-21T16:16:25.264Z</time>
      </trkpt>
      <trkpt lat="47.517559" lon="8.011519">
        <ele>338.187521</ele>
        <time>2021-11-21T16:16:33.198Z</time>
      </trkpt>
      <trkpt lat="47.517220" lon="8.011958">
        <ele>338.765691</ele>
        <time>2021-11-21T16:16:41.641Z</time>
      </trkpt>
      <trkpt lat="47.516968" lon="8.012240">
        <ele>338.992252</ele>
        <time>2021-11-21T16:16:47.059Z</time>
      </trkpt>
      <trkpt lat="47.516536" lon="8.012651">
        <ele>339.360553</ele>
        <time>2021-11-21T16:16:55.599Z</time>
      </trkpt>
      <trkpt lat="47.515686" lon="8.013458">
        <ele>340.146659</ele>
        <time>2021-11-21T16:17:13.422Z</time>
      </trkpt>
      <trkpt lat="47.515654" lon="8.013483">
        <ele>340.190140</ele>
        <time>2021-11-21T16:17:14.207Z</time>
      </trkpt>
      <trkpt lat="47.515613" lon="8.013424">
        <ele>340.258847</ele>
        <time>2021-11-21T16:17:15.353Z</time>
      </trkpt>
      <trkpt lat="47.515541" lon="8.013407">
        <ele>340.346465</ele>
        <time>2021-11-21T16:17:16.712Z</time>
      </trkpt>
      <trkpt lat="47.515502" lon="8.013432">
        <ele>340.397536</ele>
        <time>2021-11-21T16:17:17.625Z</time>
      </trkpt>
      <trkpt lat="47.515475" lon="8.013469">
        <ele>340.441747</ele>
        <time>2021-11-21T16:17:18.298Z</time>
      </trkpt>
      <trkpt lat="47.515457" lon="8.013608">
        <ele>340.556620</ele>
        <time>2021-11-21T16:17:20.023Z</time>
      </trkpt>
      <trkpt lat="47.515468" lon="8.013643">
        <ele>340.587952</ele>
        <time>2021-11-21T16:17:20.481Z</time>
      </trkpt>
      <trkpt lat="47.515263" lon="8.013836">
        <ele>340.879891</ele>
        <time>2021-11-21T16:17:25.375Z</time>
      </trkpt>
      <trkpt lat="47.515054" lon="8.014017">
        <ele>341.170862</ele>
        <time>2021-11-21T16:17:30.098Z</time>
      </trkpt>
      <trkpt lat="47.514746" lon="8.014292">
        <ele>341.603085</ele>
        <time>2021-11-21T16:17:37.283Z</time>
      </trkpt>
      <trkpt lat="47.514628" lon="8.014407">
        <ele>341.772852</ele>
        <time>2021-11-21T16:17:40.163Z</time>
      </trkpt>
      <trkpt lat="47.514464" lon="8.014550">
        <ele>342.001573</ele>
        <time>2021-11-21T16:17:44.055Z</time>
      </trkpt>
      <trkpt lat="47.514162" lon="8.014813">
        <ele>342.429038</ele>
        <time>2021-11-21T16:17:51.077Z</time>
      </trkpt>
      <trkpt lat="47.514036" lon="8.014936">
        <ele>342.614750</ele>
        <time>2021-11-21T16:17:54.363Z</time>
      </trkpt>
      <trkpt lat="47.513919" lon="8.015052">
        <ele>342.788019</ele>
        <time>2021-11-21T16:17:57.248Z</time>
      </trkpt>
      <trkpt lat="47.513872" lon="8.015092">
        <ele>342.854727</ele>
        <time>2021-11-21T16:17:58.313Z</time>
      </trkpt>
      <trkpt lat="47.513615" lon="8.015346">
        <ele>343.234955</ele>
        <time>2021-11-21T16:18:04.935Z</time>
      </trkpt>
      <trkpt lat="47.512943" lon="8.015998">
        <ele>344.223600</ele>
        <time>2021-11-21T16:18:20.738Z</time>
      </trkpt>
      <trkpt lat="47.512748" lon="8.016153">
        <ele>344.389453</ele>
        <time>2021-11-21T16:18:24.592Z</time>
      </trkpt>
      <trkpt lat="47.512572" lon="8.016270">
        <ele>344.429383</ele>
        <time>2021-11-21T16:18:27.766Z</time>
      </trkpt>
      <trkpt lat="47.512292" lon="8.016407">
        <ele>344.490419</ele>
        <time>2021-11-21T16:18:32.733Z</time>
      </trkpt>
      <trkpt lat="47.511937" lon="8.016578">
        <ele>344.567685</ele>
        <time>2021-11-21T16:18:38.682Z</time>
      </trkpt>
      <trkpt lat="47.511835" lon="8.016624">
        <ele>344.589754</ele>
        <time>2021-11-21T16:18:40.177Z</time>
      </trkpt>
      <trkpt lat="47.511079" lon="8.016999">
        <ele>344.699892</ele>
        <time>2021-11-21T16:18:51.767Z</time>
      </trkpt>
      <trkpt lat="47.510624" lon="8.017217">
        <ele>344.426407</ele>
        <time>2021-11-21T16:18:58.134Z</time>
      </trkpt>
      <trkpt lat="47.510117" lon="8.017458">
        <ele>344.121892</ele>
        <time>2021-11-21T16:19:04.877Z</time>
      </trkpt>
      <trkpt lat="47.509872" lon="8.017541">
        <ele>343.978164</ele>
        <time>2021-11-21T16:19:08.040Z</time>
      </trkpt>
      <trkpt lat="47.509728" lon="8.017576">
        <ele>343.894713</ele>
        <time>2021-11-21T16:19:09.997Z</time>
      </trkpt>
      <trkpt lat="47.509596" lon="8.017609">
        <ele>343.818158</ele>
        <time>2021-11-21T16:19:11.653Z</time>
      </trkpt>
      <trkpt lat="47.509437" lon="8.017668">
        <ele>343.724419</ele>
        <time>2021-11-21T16:19:13.777Z</time>
      </trkpt>
      <trkpt lat="47.509253" lon="8.017765">
        <ele>343.718277</ele>
        <time>2021-11-21T16:19:16.288Z</time>
      </trkpt>
      <trkpt lat="47.509105" lon="8.017861">
        <ele>343.724510</ele>
        <time>2021-11-21T16:19:18.392Z</time>
      </trkpt>
      <trkpt lat="47.508988" lon="8.017959">
        <ele>343.729695</ele>
        <time>2021-11-21T16:19:20.167Z</time>
      </trkpt>
      <trkpt lat="47.508896" lon="8.018035">
        <ele>343.733758</ele>
        <time>2021-11-21T16:19:21.473Z</time>
      </trkpt>
      <trkpt lat="47.508805" lon="8.018141">
        <ele>343.738225</ele>
        <time>2021-11-21T16:19:23.110Z</time>
      </trkpt>
      <trkpt lat="47.508699" lon="8.018304">
        <ele>343.744120</ele>
        <time>2021-11-21T16:19:25.227Z</time>
      </trkpt>
      <trkpt lat="47.508636" lon="8.018423">
        <ele>343.748059</ele>
        <time>2021-11-21T16:19:26.575Z</time>
      </trkpt>
      <trkpt lat="47.508617" lon="8.018463">
        <ele>343.749333</ele>
        <time>2021-11-21T16:19:27.027Z</time>
      </trkpt>
      <trkpt lat="47.508597" lon="8.018443">
        <ele>343.750264</ele>
        <time>2021-11-21T16:19:27.441Z</time>
      </trkpt>
      <trkpt lat="47.508507" lon="8.018455">
        <ele>343.753749</ele>
        <time>2021-11-21T16:19:28.934Z</time>
      </trkpt>
      <trkpt lat="47.508490" lon="8.018479">
        <ele>343.754655</ele>
        <time>2021-11-21T16:19:29.343Z</time>
      </trkpt>
      <trkpt lat="47.508475" lon="8.018519">
        <ele>343.755847</ele>
        <time>2021-11-21T16:19:29.779Z</time>
      </trkpt>
      <trkpt lat="47.508493" lon="8.018648">
        <ele>343.759279</ele>
        <time>2021-11-21T16:19:31.195Z</time>
      </trkpt>
      <trkpt lat="47.508517" lon="8.018677">
        <ele>343.760474</ele>
        <time>2021-11-21T16:19:31.611Z</time>
      </trkpt>
      <trkpt lat="47.508505" lon="8.018716">
        <ele>343.761591</ele>
        <time>2021-11-21T16:19:32.075Z</time>
      </trkpt>
      <trkpt lat="47.508436" lon="8.018909">
        <ele>343.767280</ele>
        <time>2021-11-21T16:19:34.699Z</time>
      </trkpt>
      <trkpt lat="47.508403" lon="8.018982">
        <ele>343.769569</ele>
        <time>2021-11-21T16:19:35.700Z</time>
      </trkpt>
      <trkpt lat="47.508273" lon="8.019268">
        <ele>343.778550</ele>
        <time>2021-11-21T16:19:39.875Z</time>
      </trkpt>
      <trkpt lat="47.508117" lon="8.019584">
        <ele>344.159791</ele>
        <time>2021-11-21T16:19:44.846Z</time>
      </trkpt>
      <trkpt lat="47.508075" lon="8.019669">
        <ele>344.293662</ele>
        <time>2021-11-21T16:19:46.302Z</time>
      </trkpt>
      <trkpt lat="47.508029" lon="8.019761">
        <ele>344.439161</ele>
        <time>2021-11-21T16:19:47.927Z</time>
      </trkpt>
      <trkpt lat="47.507951" lon="8.019911">
        <ele>344.679791</ele>
        <time>2021-11-21T16:19:50.619Z</time>
      </trkpt>
      <trkpt lat="47.507863" lon="8.020075">
        <ele>344.946032</ele>
        <time>2021-11-21T16:19:53.425Z</time>
      </trkpt>
      <trkpt lat="47.507666" lon="8.020400">
        <ele>345.501112</ele>
        <time>2021-11-21T16:19:59.790Z</time>
      </trkpt>
      <trkpt lat="47.507609" lon="8.020484">
        <ele>345.652464</ele>
        <time>2021-11-21T16:20:01.620Z</time>
      </trkpt>
      <trkpt lat="47.507466" lon="8.020697">
        <ele>346.034208</ele>
        <time>2021-11-21T16:20:06.429Z</time>
      </trkpt>
      <trkpt lat="47.507213" lon="8.021061">
        <ele>346.698120</ele>
        <time>2021-11-21T16:20:15.207Z</time>
      </trkpt>
      <trkpt lat="47.507007" lon="8.021362">
        <ele>347.266782</ele>
        <time>2021-11-21T16:20:22.777Z</time>
      </trkpt>
      <trkpt lat="47.506949" lon="8.021459">
        <ele>347.482694</ele>
        <time>2021-11-21T16:20:25.043Z</time>
      </trkpt>
      <trkpt lat="47.506910" lon="8.021529">
        <ele>347.633929</ele>
        <time>2021-11-21T16:20:26.543Z</time>
      </trkpt>
      <trkpt lat="47.506867" lon="8.021604">
        <ele>347.797889</ele>
        <time>2021-11-21T16:20:28.397Z</time>
      </trkpt>
      <trkpt lat="47.506735" lon="8.021861">
        <ele>348.335998</ele>
        <time>2021-11-21T16:20:34.279Z</time>
      </trkpt>
      <trkpt lat="47.506678" lon="8.022015">
        <ele>348.628680</ele>
        <time>2021-11-21T16:20:37.310Z</time>
      </trkpt>
      <trkpt lat="47.506655" lon="8.022123">
        <ele>348.817422</ele>
        <time>2021-11-21T16:20:39.427Z</time>
      </trkpt>
      <trkpt lat="47.506621" lon="8.022234">
        <ele>349.020561</ele>
        <time>2021-11-21T16:20:41.503Z</time>
      </trkpt>
      <trkpt lat="47.506535" lon="8.022414">
        <ele>349.388032</ele>
        <time>2021-11-21T16:20:45.077Z</time>
      </trkpt>
      <trkpt lat="47.506468" lon="8.022553">
        <ele>349.672643</ele>
        <time>2021-11-21T16:20:48.057Z</time>
      </trkpt>
      <trkpt lat="47.506258" lon="8.022985">
        <ele>350.559734</ele>
        <time>2021-11-21T16:20:56.743Z</time>
      </trkpt>
      <trkpt lat="47.506232" lon="8.023038">
        <ele>350.668908</ele>
        <time>2021-11-21T16:20:57.785Z</time>
      </trkpt>
      <trkpt lat="47.506199" lon="8.023103">
        <ele>350.804434</ele>
        <time>2021-11-21T16:20:59.073Z</time>
      </trkpt>
      <trkpt lat="47.505883" lon="8.023827">
        <ele>352.002718</ele>
        <time>2021-11-21T16:21:12.470Z</time>
      </trkpt>
      <trkpt lat="47.505697" lon="8.024216">
        <ele>352.499953</ele>
        <time>2021-11-21T16:21:19.560Z</time>
      </trkpt>
      <trkpt lat="47.505612" lon="8.024383">
        <ele>352.718111</ele>
        <time>2021-11-21T16:21:22.674Z</time>
      </trkpt>
      <trkpt lat="47.505559" lon="8.024486">
        <ele>352.853199</ele>
        <time>2021-11-21T16:21:24.432Z</time>
      </trkpt>
      <trkpt lat="47.505192" lon="8.025207">
        <ele>353.795091</ele>
        <time>2021-11-21T16:21:36.569Z</time>
      </trkpt>
      <trkpt lat="47.504823" lon="8.026024">
        <ele>354.729869</ele>
        <time>2021-11-21T16:21:49.532Z</time>
      </trkpt>
      <trkpt lat="47.504760" lon="8.026163">
        <ele>354.868451</ele>
        <time>2021-11-21T16:21:51.991Z</time>
      </trkpt>
      <trkpt lat="47.504725" lon="8.026244">
        <ele>354.948057</ele>
        <time>2021-11-21T16:21:53.279Z</time>
      </trkpt>
      <trkpt lat="47.504704" lon="8.026294">
        <ele>354.996801</ele>
        <time>2021-11-21T16:21:54.066Z</time>
      </trkpt>
      <trkpt lat="47.504676" lon="8.026276">
        <ele>355.034213</ele>
        <time>2021-11-21T16:21:54.679Z</time>
      </trkpt>
      <trkpt lat="47.504602" lon="8.026299">
        <ele>355.126882</ele>
        <time>2021-11-21T16:21:56.248Z</time>
      </trkpt>
      <trkpt lat="47.504574" lon="8.026349">
        <ele>355.180652</ele>
        <time>2021-11-21T16:21:57.174Z</time>
      </trkpt>
      <trkpt lat="47.504545" lon="8.026334">
        <ele>355.218301</ele>
        <time>2021-11-21T16:21:58.233Z</time>
      </trkpt>
      <trkpt lat="47.504340" lon="8.026234">
        <ele>355.482833</ele>
        <time>2021-11-21T16:22:03.585Z</time>
      </trkpt>
      <trkpt lat="47.504214" lon="8.026133">
        <ele>355.658441</ele>
        <time>2021-11-21T16:22:07.398Z</time>
      </trkpt>
      <trkpt lat="47.504214" lon="8.026133">
        <ele>355.658441</ele>
        <time>2021-11-21T16:22:07.436Z</time>
      </trkpt>
      <trkpt lat="47.504128" lon="8.026064">
        <ele>355.778326</ele>
        <time>2021-11-21T16:22:09.727Z</time>
      </trkpt>
      <trkpt lat="47.503792" lon="8.025767">
        <ele>356.257946</ele>
        <time>2021-11-21T16:22:18.844Z</time>
      </trkpt>
      <trkpt lat="47.503697" lon="8.025684">
        <ele>356.393142</ele>
        <time>2021-11-21T16:22:21.470Z</time>
      </trkpt>
      <trkpt lat="47.503468" lon="8.025476">
        <ele>356.730680</ele>
        <time>2021-11-21T16:22:28.081Z</time>
      </trkpt>
      <trkpt lat="47.503308" lon="8.025332">
        <ele>356.974073</ele>
        <time>2021-11-21T16:22:32.910Z</time>
      </trkpt>
      <trkpt lat="47.503222" lon="8.025223">
        <ele>357.121234</ele>
        <time>2021-11-21T16:22:35.937Z</time>
      </trkpt>
      <trkpt lat="47.503159" lon="8.025346">
        <ele>357.256773</ele>
        <time>2021-11-21T16:22:38.009Z</time>
      </trkpt>
      <trkpt lat="47.503016" lon="8.025577">
        <ele>357.531897</ele>
        <time>2021-11-21T16:22:42.568Z</time>
      </trkpt>
      <trkpt lat="47.503032" lon="8.025730">
        <ele>357.667845</ele>
        <time>2021-11-21T16:22:45.133Z</time>
      </trkpt>
      <trkpt lat="47.503021" lon="8.025852">
        <ele>357.775923</ele>
        <time>2021-11-21T16:22:47.405Z</time>
      </trkpt>
      <trkpt lat="47.502970" lon="8.026171">
        <ele>358.063772</ele>
        <time>2021-11-21T16:22:53.130Z</time>
      </trkpt>
      <trkpt lat="47.502945" lon="8.026325">
        <ele>358.202848</ele>
        <time>2021-11-21T16:22:55.860Z</time>
      </trkpt>
      <trkpt lat="47.502892" lon="8.026637">
        <ele>358.485342</ele>
        <time>2021-11-21T16:23:01.423Z</time>
      </trkpt>
      <trkpt lat="47.502768" lon="8.027165">
        <ele>358.983003</ele>
        <time>2021-11-21T16:23:10.783Z</time>
      </trkpt>
      <trkpt lat="47.502470" lon="8.027919">
        <ele>359.850078</ele>
        <time>2021-11-21T16:23:25.230Z</time>
      </trkpt>
      <trkpt lat="47.501858" lon="8.029220">
        <ele>361.423662</ele>
        <time>2021-11-21T16:23:53.729Z</time>
      </trkpt>
      <trkpt lat="47.501479" lon="8.030595">
        <ele>363.100520</ele>
        <time>2021-11-21T16:24:21.973Z</time>
      </trkpt>
      <trkpt lat="47.501451" lon="8.030732">
        <ele>363.264240</ele>
        <time>2021-11-21T16:24:24.698Z</time>
      </trkpt>
      <trkpt lat="47.501417" lon="8.030833">
        <ele>363.393316</ele>
        <time>2021-11-21T16:24:26.861Z</time>
      </trkpt>
      <trkpt lat="47.501196" lon="8.031661">
        <ele>364.411658</ele>
        <time>2021-11-21T16:24:42.602Z</time>
      </trkpt>
      <trkpt lat="47.501016" lon="8.032338">
        <ele>364.962889</ele>
        <time>2021-11-21T16:24:54.514Z</time>
      </trkpt>
      <trkpt lat="47.500609" lon="8.033743">
        <ele>365.933901</ele>
        <time>2021-11-21T16:25:18.593Z</time>
      </trkpt>
      <trkpt lat="47.500514" lon="8.034048">
        <ele>366.147231</ele>
        <time>2021-11-21T16:25:23.600Z</time>
      </trkpt>
      <trkpt lat="47.500411" lon="8.034253">
        <ele>366.320929</ele>
        <time>2021-11-21T16:25:27.872Z</time>
      </trkpt>
      <trkpt lat="47.500371" lon="8.034497">
        <ele>366.766150</ele>
        <time>2021-11-21T16:25:31.477Z</time>
      </trkpt>
      <trkpt lat="47.500370" lon="8.034585">
        <ele>366.922215</ele>
        <time>2021-11-21T16:25:33.169Z</time>
      </trkpt>
      <trkpt lat="47.500142" lon="8.035639">
        <ele>368.884661</ele>
        <time>2021-11-21T16:25:54.026Z</time>
      </trkpt>
      <trkpt lat="47.500033" lon="8.036458">
        <ele>370.364846</ele>
        <time>2021-11-21T16:26:14.055Z</time>
      </trkpt>
      <trkpt lat="47.499899" lon="8.036731">
        <ele>370.963216</ele>
        <time>2021-11-21T16:26:23.110Z</time>
      </trkpt>
      <trkpt lat="47.499762" lon="8.036824">
        <ele>371.375764</ele>
        <time>2021-11-21T16:26:29.038Z</time>
      </trkpt>
      <trkpt lat="47.498683" lon="8.037262">
        <ele>374.461095</ele>
        <time>2021-11-21T16:27:07.309Z</time>
      </trkpt>
      <trkpt lat="47.498149" lon="8.037545">
        <ele>375.970561</ele>
        <time>2021-11-21T16:27:21.806Z</time>
      </trkpt>
      <trkpt lat="47.497508" lon="8.037915">
        <ele>375.350628</ele>
        <time>2021-11-21T16:27:35.146Z</time>
      </trkpt>
      <trkpt lat="47.497029" lon="8.038197">
        <ele>374.886140</ele>
        <time>2021-11-21T16:27:43.340Z</time>
      </trkpt>
      <trkpt lat="47.496436" lon="8.038587">
        <ele>374.336887</ele>
        <time>2021-11-21T16:27:53.471Z</time>
      </trkpt>
      <trkpt lat="47.495489" lon="8.039211">
        <ele>373.937423</ele>
        <time>2021-11-21T16:28:12.695Z</time>
      </trkpt>
      <trkpt lat="47.495279" lon="8.039095">
        <ele>373.851045</ele>
        <time>2021-11-21T16:28:17.623Z</time>
      </trkpt>
      <trkpt lat="47.495197" lon="8.038814">
        <ele>373.771350</ele>
        <time>2021-11-21T16:28:21.519Z</time>
      </trkpt>
      <trkpt lat="47.495161" lon="8.038728">
        <ele>373.745009</ele>
        <time>2021-11-21T16:28:23.441Z</time>
      </trkpt>
      <trkpt lat="47.495065" lon="8.038717">
        <ele>373.707904</ele>
        <time>2021-11-21T16:28:25.188Z</time>
      </trkpt>
      <trkpt lat="47.494550" lon="8.038902">
        <ele>374.098150</ele>
        <time>2021-11-21T16:28:37.363Z</time>
      </trkpt>
      <trkpt lat="47.493985" lon="8.039302">
        <ele>374.718183</ele>
        <time>2021-11-21T16:28:52.692Z</time>
      </trkpt>
      <trkpt lat="47.493681" lon="8.039626">
        <ele>375.089048</ele>
        <time>2021-11-21T16:29:02.092Z</time>
      </trkpt>
      <trkpt lat="47.493615" lon="8.039696">
        <ele>375.169431</ele>
        <time>2021-11-21T16:29:04.404Z</time>
      </trkpt>
      <trkpt lat="47.493541" lon="8.039739">
        <ele>375.248133</ele>
        <time>2021-11-21T16:29:06.562Z</time>
      </trkpt>
      <trkpt lat="47.493416" lon="8.039728">
        <ele>375.372098</ele>
        <time>2021-11-21T16:29:09.257Z</time>
      </trkpt>
      <trkpt lat="47.493090" lon="8.039530">
        <ele>375.854550</ele>
        <time>2021-11-21T16:29:18.089Z</time>
      </trkpt>
      <trkpt lat="47.492451" lon="8.039274">
        <ele>376.834088</ele>
        <time>2021-11-21T16:29:35.634Z</time>
      </trkpt>
      <trkpt lat="47.492266" lon="8.039262">
        <ele>377.108090</ele>
        <time>2021-11-21T16:29:40.508Z</time>
      </trkpt>
      <trkpt lat="47.489708" lon="8.040031">
        <ele>381.000831</ele>
        <time>2021-11-21T16:30:49.241Z</time>
      </trkpt>
      <trkpt lat="47.489332" lon="8.040190">
        <ele>381.587005</ele>
        <time>2021-11-21T16:30:59.306Z</time>
      </trkpt>
      <trkpt lat="47.489262" lon="8.040226">
        <ele>381.698089</ele>
        <time>2021-11-21T16:31:01.172Z</time>
      </trkpt>
      <trkpt lat="47.488652" lon="8.040561">
        <ele>382.673396</ele>
        <time>2021-11-21T16:31:17.985Z</time>
      </trkpt>
      <trkpt lat="47.488448" lon="8.040708">
        <ele>383.013512</ele>
        <time>2021-11-21T16:31:24.010Z</time>
      </trkpt>
      <trkpt lat="47.488139" lon="8.041130">
        <ele>383.819100</ele>
        <time>2021-11-21T16:31:35.332Z</time>
      </trkpt>
      <trkpt lat="47.487908" lon="8.041733">
        <ele>385.363456</ele>
        <time>2021-11-21T16:31:47.618Z</time>
      </trkpt>
      <trkpt lat="47.487400" lon="8.042230">
        <ele>387.371332</ele>
        <time>2021-11-21T16:32:04.216Z</time>
      </trkpt>
      <trkpt lat="47.487333" lon="8.042295">
        <ele>387.635478</ele>
        <time>2021-11-21T16:32:06.325Z</time>
      </trkpt>
      <trkpt lat="47.487031" lon="8.042589">
        <ele>388.827348</ele>
        <time>2021-11-21T16:32:19.114Z</time>
      </trkpt>
      <trkpt lat="47.486857" lon="8.042766">
        <ele>389.690875</ele>
        <time>2021-11-21T16:32:29.957Z</time>
      </trkpt>
      <trkpt lat="47.486260" lon="8.043156">
        <ele>395.611487</ele>
        <time>2021-11-21T16:33:08.735Z</time>
      </trkpt>
      <trkpt lat="47.486222" lon="8.043212">
        <ele>396.098041</ele>
        <time>2021-11-21T16:33:13.866Z</time>
      </trkpt>
      <trkpt lat="47.486179" lon="8.043182">
        <ele>396.529345</ele>
        <time>2021-11-21T16:33:15.589Z</time>
      </trkpt>
      <trkpt lat="47.486151" lon="8.043162">
        <ele>396.811423</ele>
        <time>2021-11-21T16:33:17.192Z</time>
      </trkpt>
      <trkpt lat="47.486019" lon="8.043059">
        <ele>398.165295</ele>
        <time>2021-11-21T16:33:21.942Z</time>
      </trkpt>
      <trkpt lat="47.486008" lon="8.043050">
        <ele>398.279332</ele>
        <time>2021-11-21T16:33:23.268Z</time>
      </trkpt>
      <trkpt lat="47.485655" lon="8.042735">
        <ele>402.019186</ele>
        <time>2021-11-21T16:33:47.184Z</time>
      </trkpt>
      <trkpt lat="47.485598" lon="8.042685">
        <ele>402.620354</ele>
        <time>2021-11-21T16:33:53.469Z</time>
      </trkpt>
      <trkpt lat="47.485395" lon="8.042549">
        <ele>404.642043</ele>
        <time>2021-11-21T16:34:00.748Z</time>
      </trkpt>
      <trkpt lat="47.485289" lon="8.042522">
        <ele>405.617878</ele>
        <time>2021-11-21T16:34:10.924Z</time>
      </trkpt>
      <trkpt lat="47.485120" lon="8.042908">
        <ele>407.209062</ele>
        <time>2021-11-21T16:34:26.956Z</time>
      </trkpt>
      <trkpt lat="47.484698" lon="8.044163">
        <ele>411.880043</ele>
        <time>2021-11-21T16:35:16.650Z</time>
      </trkpt>
      <trkpt lat="47.484315" lon="8.044930">
        <ele>414.121522</ele>
        <time>2021-11-21T16:35:27.960Z</time>
      </trkpt>
      <trkpt lat="47.484086" lon="8.045711">
        <ele>410.959025</ele>
        <time>2021-11-21T16:35:35.447Z</time>
      </trkpt>
      <trkpt lat="47.484017" lon="8.046089">
        <ele>409.504540</ele>
        <time>2021-11-21T16:35:38.895Z</time>
      </trkpt>
      <trkpt lat="47.483960" lon="8.046613">
        <ele>407.532970</ele>
        <time>2021-11-21T16:35:43.495Z</time>
      </trkpt>
      <trkpt lat="47.483944" lon="8.046772">
        <ele>406.935817</ele>
        <time>2021-11-21T16:35:44.846Z</time>
      </trkpt>
      <trkpt lat="47.484094" lon="8.047008">
        <ele>405.732325</ele>
        <time>2021-11-21T16:35:46.848Z</time>
      </trkpt>
      <trkpt lat="47.484254" lon="8.047262">
        <ele>404.559596</ele>
        <time>2021-11-21T16:35:48.955Z</time>
      </trkpt>
      <trkpt lat="47.484285" lon="8.047381">
        <ele>404.279978</ele>
        <time>2021-11-21T16:35:49.773Z</time>
      </trkpt>
      <trkpt lat="47.484302" lon="8.047447">
        <ele>404.125121</ele>
        <time>2021-11-21T16:35:50.209Z</time>
      </trkpt>
      <trkpt lat="47.484336" lon="8.047958">
        <ele>402.999351</ele>
        <time>2021-11-21T16:35:53.413Z</time>
      </trkpt>
      <trkpt lat="47.484354" lon="8.048144">
        <ele>402.587392</ele>
        <time>2021-11-21T16:35:54.574Z</time>
      </trkpt>
      <trkpt lat="47.484323" lon="8.048319">
        <ele>402.190747</ele>
        <time>2021-11-21T16:35:55.752Z</time>
      </trkpt>
      <trkpt lat="47.484311" lon="8.048547">
        <ele>401.689350</ele>
        <time>2021-11-21T16:35:57.276Z</time>
      </trkpt>
      <trkpt lat="47.484310" lon="8.048647">
        <ele>401.470079</ele>
        <time>2021-11-21T16:35:57.904Z</time>
      </trkpt>
      <trkpt lat="47.484307" lon="8.048841">
        <ele>401.044629</ele>
        <time>2021-11-21T16:35:59.232Z</time>
      </trkpt>
      <trkpt lat="47.484328" lon="8.049054">
        <ele>400.572689</ele>
        <time>2021-11-21T16:36:00.801Z</time>
      </trkpt>
      <trkpt lat="47.484248" lon="8.049249">
        <ele>400.072542</ele>
        <time>2021-11-21T16:36:03.689Z</time>
      </trkpt>
      <trkpt lat="47.484225" lon="8.049304">
        <ele>399.930736</ele>
        <time>2021-11-21T16:36:04.554Z</time>
      </trkpt>
      <trkpt lat="47.483967" lon="8.049904">
        <ele>399.210596</ele>
        <time>2021-11-21T16:36:15.757Z</time>
      </trkpt>
      <trkpt lat="47.483809" lon="8.050170">
        <ele>399.683538</ele>
        <time>2021-11-21T16:36:21.861Z</time>
      </trkpt>
      <trkpt lat="47.483598" lon="8.050422">
        <ele>400.219367</ele>
        <time>2021-11-21T16:36:29.445Z</time>
      </trkpt>
      <trkpt lat="47.483364" lon="8.050596">
        <ele>400.736880</ele>
        <time>2021-11-21T16:36:37.654Z</time>
      </trkpt>
      <trkpt lat="47.483227" lon="8.050664">
        <ele>401.022433</ele>
        <time>2021-11-21T16:36:42.238Z</time>
      </trkpt>
      <trkpt lat="47.483058" lon="8.050738">
        <ele>401.370712</ele>
        <time>2021-11-21T16:36:48.031Z</time>
      </trkpt>
      <trkpt lat="47.482913" lon="8.050915">
        <ele>401.742166</ele>
        <time>2021-11-21T16:36:53.761Z</time>
      </trkpt>
      <trkpt lat="47.482669" lon="8.051382">
        <ele>402.533627</ele>
        <time>2021-11-21T16:37:05.754Z</time>
      </trkpt>
      <trkpt lat="47.482625" lon="8.051456">
        <ele>402.670221</ele>
        <time>2021-11-21T16:37:08.077Z</time>
      </trkpt>
      <trkpt lat="47.482455" lon="8.051685">
        <ele>403.141647</ele>
        <time>2021-11-21T16:37:13.843Z</time>
      </trkpt>
      <trkpt lat="47.482375" lon="8.051733">
        <ele>403.318671</ele>
        <time>2021-11-21T16:37:16.601Z</time>
      </trkpt>
      <trkpt lat="47.482335" lon="8.051760">
        <ele>403.408828</ele>
        <time>2021-11-21T16:37:18.073Z</time>
      </trkpt>
      <trkpt lat="47.482219" lon="8.051812">
        <ele>403.657377</ele>
        <time>2021-11-21T16:37:20.930Z</time>
      </trkpt>
      <trkpt lat="47.482127" lon="8.051839">
        <ele>403.849710</ele>
        <time>2021-11-21T16:37:23.503Z</time>
      </trkpt>
      <trkpt lat="47.481797" lon="8.051888">
        <ele>404.529815</ele>
        <time>2021-11-21T16:37:32.737Z</time>
      </trkpt>
      <trkpt lat="47.481555" lon="8.051930">
        <ele>405.029469</ele>
        <time>2021-11-21T16:37:39.985Z</time>
      </trkpt>
      <trkpt lat="47.481406" lon="8.051919">
        <ele>405.335392</ele>
        <time>2021-11-21T16:37:43.798Z</time>
      </trkpt>
      <trkpt lat="47.481264" lon="8.051869">
        <ele>405.634712</ele>
        <time>2021-11-21T16:37:48.753Z</time>
      </trkpt>
      <trkpt lat="47.481212" lon="8.051837">
        <ele>405.750200</ele>
        <time>2021-11-21T16:37:50.212Z</time>
      </trkpt>
      <trkpt lat="47.481120" lon="8.051779">
        <ele>405.955267</ele>
        <time>2021-11-21T16:37:52.828Z</time>
      </trkpt>
      <trkpt lat="47.480731" lon="8.051537">
        <ele>406.686183</ele>
        <time>2021-11-21T16:38:04.798Z</time>
      </trkpt>
      <trkpt lat="47.480109" lon="8.051281">
        <ele>407.750290</ele>
        <time>2021-11-21T16:38:21.582Z</time>
      </trkpt>
      <trkpt lat="47.479301" lon="8.050948">
        <ele>409.122338</ele>
        <time>2021-11-21T16:38:44.004Z</time>
      </trkpt>
      <trkpt lat="47.478902" lon="8.050813">
        <ele>409.581407</ele>
        <time>2021-11-21T16:38:54.702Z</time>
      </trkpt>
      <trkpt lat="47.478348" lon="8.050767">
        <ele>410.203749</ele>
        <time>2021-11-21T16:39:08.391Z</time>
      </trkpt>
      <trkpt lat="47.477918" lon="8.050584">
        <ele>410.705589</ele>
        <time>2021-11-21T16:39:19.269Z</time>
      </trkpt>
      <trkpt lat="47.477267" lon="8.050373">
        <ele>411.503886</ele>
        <time>2021-11-21T16:39:34.898Z</time>
      </trkpt>
      <trkpt lat="47.477047" lon="8.050303">
        <ele>411.794509</ele>
        <time>2021-11-21T16:40:00.800Z</time>
      </trkpt>
      <trkpt lat="47.476858" lon="8.050274">
        <ele>412.039910</ele>
        <time>2021-11-21T16:40:22.402Z</time>
      </trkpt>
      <trkpt lat="47.476590" lon="8.050307">
        <ele>412.387225</ele>
        <time>2021-11-21T16:40:53.190Z</time>
      </trkpt>
      <trkpt lat="47.476344" lon="8.050361">
        <ele>412.708409</ele>
        <time>2021-11-21T16:40:59.492Z</time>
      </trkpt>
      <trkpt lat="47.475746" lon="8.050384">
        <ele>413.504780</ele>
        <time>2021-11-21T16:41:14.480Z</time>
      </trkpt>
      <trkpt lat="47.475713" lon="8.050385">
        <ele>413.572450</ele>
        <time>2021-11-21T16:41:16.910Z</time>
      </trkpt>
      <trkpt lat="47.475715" lon="8.050478">
        <ele>413.701387</ele>
        <time>2021-11-21T16:41:20.602Z</time>
      </trkpt>
      <trkpt lat="47.475357" lon="8.050458">
        <ele>414.435873</ele>
        <time>2021-11-21T16:41:28.855Z</time>
      </trkpt>
      <trkpt lat="47.475284" lon="8.050458">
        <ele>414.585536</ele>
        <time>2021-11-21T16:41:29.678Z</time>
      </trkpt>
      <trkpt lat="47.475253" lon="8.050461">
        <ele>414.649227</ele>
        <time>2021-11-21T16:41:30.006Z</time>
      </trkpt>
      <trkpt lat="47.475144" lon="8.050466">
        <ele>414.872804</ele>
        <time>2021-11-21T16:41:31.152Z</time>
      </trkpt>
      <trkpt lat="47.474929" lon="8.050514">
        <ele>415.318582</ele>
        <time>2021-11-21T16:41:38.859Z</time>
      </trkpt>
      <trkpt lat="47.474798" lon="8.050543">
        <ele>415.590145</ele>
        <time>2021-11-21T16:41:40.242Z</time>
      </trkpt>
      <trkpt lat="47.474739" lon="8.050556">
        <ele>415.712439</ele>
        <time>2021-11-21T16:41:40.916Z</time>
      </trkpt>
      <trkpt lat="47.474655" lon="8.050582">
        <ele>415.888382</ele>
        <time>2021-11-21T16:41:47.374Z</time>
      </trkpt>
      <trkpt lat="47.474369" lon="8.050670">
        <ele>416.487279</ele>
        <time>2021-11-21T16:41:50.900Z</time>
      </trkpt>
      <trkpt lat="47.474254" lon="8.050712">
        <ele>416.730127</ele>
        <time>2021-11-21T16:41:56.868Z</time>
      </trkpt>
      <trkpt lat="47.474067" lon="8.050782">
        <ele>417.125592</ele>
        <time>2021-11-21T16:41:59.018Z</time>
      </trkpt>
      <trkpt lat="47.474013" lon="8.050809">
        <ele>417.222455</ele>
        <time>2021-11-21T16:42:01.073Z</time>
      </trkpt>
      <trkpt lat="47.473944" lon="8.050844">
        <ele>417.345872</ele>
        <time>2021-11-21T16:42:05.801Z</time>
      </trkpt>
      <trkpt lat="47.473006" lon="8.051614">
        <ele>419.160869</ele>
        <time>2021-11-21T16:42:26.407Z</time>
      </trkpt>
      <trkpt lat="47.472803" lon="8.051811">
        <ele>419.571637</ele>
        <time>2021-11-21T16:42:31.977Z</time>
      </trkpt>
      <trkpt lat="47.472623" lon="8.052001">
        <ele>419.945763</ele>
        <time>2021-11-21T16:42:36.872Z</time>
      </trkpt>
      <trkpt lat="47.472429" lon="8.052206">
        <ele>420.334559</ele>
        <time>2021-11-21T16:42:42.013Z</time>
      </trkpt>
      <trkpt lat="47.472031" lon="8.052625">
        <ele>421.093345</ele>
        <time>2021-11-21T16:42:52.145Z</time>
      </trkpt>
      <trkpt lat="47.471962" lon="8.052697">
        <ele>421.224504</ele>
        <time>2021-11-21T16:42:54.187Z</time>
      </trkpt>
      <trkpt lat="47.471695" lon="8.052974">
        <ele>421.731063</ele>
        <time>2021-11-21T16:43:00.750Z</time>
      </trkpt>
      <trkpt lat="47.471653" lon="8.053017">
        <ele>421.810403</ele>
        <time>2021-11-21T16:43:02.252Z</time>
      </trkpt>
      <trkpt lat="47.471281" lon="8.053367">
        <ele>422.495207</ele>
        <time>2021-11-21T16:43:11.128Z</time>
      </trkpt>
      <trkpt lat="47.470975" lon="8.053567">
        <ele>423.015224</ele>
        <time>2021-11-21T16:43:18.140Z</time>
      </trkpt>
      <trkpt lat="47.470388" lon="8.053827">
        <ele>423.974160</ele>
        <time>2021-11-21T16:43:30.921Z</time>
      </trkpt>
      <trkpt lat="47.470221" lon="8.053859">
        <ele>424.237695</ele>
        <time>2021-11-21T16:43:34.711Z</time>
      </trkpt>
      <trkpt lat="47.470146" lon="8.053870">
        <ele>424.355644</ele>
        <time>2021-11-21T16:43:36.372Z</time>
      </trkpt>
      <trkpt lat="47.470035" lon="8.053870">
        <ele>424.529357</ele>
        <time>2021-11-21T16:43:38.701Z</time>
      </trkpt>
      <trkpt lat="47.469912" lon="8.053834">
        <ele>424.725580</ele>
        <time>2021-11-21T16:43:41.324Z</time>
      </trkpt>
      <trkpt lat="47.469816" lon="8.053809">
        <ele>424.878129</ele>
        <time>2021-11-21T16:43:43.271Z</time>
      </trkpt>
      <trkpt lat="47.469768" lon="8.053784">
        <ele>424.957767</ele>
        <time>2021-11-21T16:43:44.666Z</time>
      </trkpt>
      <trkpt lat="47.468916" lon="8.053225">
        <ele>426.587846</ele>
        <time>2021-11-21T16:44:03.868Z</time>
      </trkpt>
      <trkpt lat="47.468638" lon="8.053071">
        <ele>427.177576</ele>
        <time>2021-11-21T16:44:10.015Z</time>
      </trkpt>
      <trkpt lat="47.468555" lon="8.053028">
        <ele>427.352284</ele>
        <time>2021-11-21T16:44:11.695Z</time>
      </trkpt>
      <trkpt lat="47.468134" lon="8.052813">
        <ele>428.237083</ele>
        <time>2021-11-21T16:44:21.950Z</time>
      </trkpt>
      <trkpt lat="47.467479" lon="8.052348">
        <ele>429.859153</ele>
        <time>2021-11-21T16:44:40.380Z</time>
      </trkpt>
      <trkpt lat="47.467177" lon="8.052075">
        <ele>430.946356</ele>
        <time>2021-11-21T16:44:49.819Z</time>
      </trkpt>
      <trkpt lat="47.466793" lon="8.051728">
        <ele>432.328625</ele>
        <time>2021-11-21T16:45:01.807Z</time>
      </trkpt>
      <trkpt lat="47.466507" lon="8.051581">
        <ele>433.258696</ele>
        <time>2021-11-21T16:45:09.708Z</time>
      </trkpt>
      <trkpt lat="47.466297" lon="8.051497">
        <ele>433.926951</ele>
        <time>2021-11-21T16:45:16.103Z</time>
      </trkpt>
      <trkpt lat="47.465552" lon="8.051201">
        <ele>436.526682</ele>
        <time>2021-11-21T16:45:38.324Z</time>
      </trkpt>
      <trkpt lat="47.465219" lon="8.050945">
        <ele>437.866535</ele>
        <time>2021-11-21T16:45:49.007Z</time>
      </trkpt>
      <trkpt lat="47.464876" lon="8.050495">
        <ele>439.503379</ele>
        <time>2021-11-21T16:46:01.986Z</time>
      </trkpt>
      <trkpt lat="47.464428" lon="8.050024">
        <ele>441.521858</ele>
        <time>2021-11-21T16:46:17.299Z</time>
      </trkpt>
      <trkpt lat="47.462932" lon="8.048714">
        <ele>449.831702</ele>
        <time>2021-11-21T16:47:18.430Z</time>
      </trkpt>
      <trkpt lat="47.462793" lon="8.048637">
        <ele>450.404332</ele>
        <time>2021-11-21T16:47:24.203Z</time>
      </trkpt>
      <trkpt lat="47.462760" lon="8.048615">
        <ele>450.540584</ele>
        <time>2021-11-21T16:47:25.536Z</time>
      </trkpt>
      <trkpt lat="47.462692" lon="8.048578">
        <ele>450.813318</ele>
        <time>2021-11-21T16:47:27.666Z</time>
      </trkpt>
      <trkpt lat="47.462404" lon="8.048445">
        <ele>451.949012</ele>
        <time>2021-11-21T16:47:37.568Z</time>
      </trkpt>
      <trkpt lat="47.461466" lon="8.048031">
        <ele>455.633661</ele>
        <time>2021-11-21T16:48:05.269Z</time>
      </trkpt>
      <trkpt lat="47.461083" lon="8.047963">
        <ele>457.143996</ele>
        <time>2021-11-21T16:48:14.909Z</time>
      </trkpt>
      <trkpt lat="47.460776" lon="8.047954">
        <ele>458.461020</ele>
        <time>2021-11-21T16:48:23.362Z</time>
      </trkpt>
      <trkpt lat="47.460608" lon="8.047981">
        <ele>459.185836</ele>
        <time>2021-11-21T16:48:27.483Z</time>
      </trkpt>
      <trkpt lat="47.460570" lon="8.047988">
        <ele>459.350083</ele>
        <time>2021-11-21T16:48:29.446Z</time>
      </trkpt>
      <trkpt lat="47.460185" lon="8.048175">
        <ele>461.088161</ele>
        <time>2021-11-21T16:48:43.130Z</time>
      </trkpt>
      <trkpt lat="47.460107" lon="8.048213">
        <ele>461.440395</ele>
        <time>2021-11-21T16:48:45.918Z</time>
      </trkpt>
      <trkpt lat="47.459740" lon="8.048503">
        <ele>463.225072</ele>
        <time>2021-11-21T16:49:00.950Z</time>
      </trkpt>
      <trkpt lat="47.459655" lon="8.048568">
        <ele>463.635494</ele>
        <time>2021-11-21T16:49:03.667Z</time>
      </trkpt>
      <trkpt lat="47.459546" lon="8.048650">
        <ele>464.160010</ele>
        <time>2021-11-21T16:49:08.581Z</time>
      </trkpt>
      <trkpt lat="47.459520" lon="8.048663">
        <ele>464.277728</ele>
        <time>2021-11-21T16:49:09.509Z</time>
      </trkpt>
      <trkpt lat="47.459227" lon="8.048808">
        <ele>465.464359</ele>
        <time>2021-11-21T16:49:19.954Z</time>
      </trkpt>
      <trkpt lat="47.459118" lon="8.048828">
        <ele>465.881981</ele>
        <time>2021-11-21T16:49:23.782Z</time>
      </trkpt>
      <trkpt lat="47.459071" lon="8.048837">
        <ele>466.062178</ele>
        <time>2021-11-21T16:49:25.770Z</time>
      </trkpt>
      <trkpt lat="47.458765" lon="8.048904">
        <ele>467.238345</ele>
        <time>2021-11-21T16:49:35.501Z</time>
      </trkpt>
      <trkpt lat="47.458490" lon="8.048954">
        <ele>468.291834</ele>
        <time>2021-11-21T16:49:44.238Z</time>
      </trkpt>
      <trkpt lat="47.458266" lon="8.048995">
        <ele>469.150034</ele>
        <time>2021-11-21T16:49:50.543Z</time>
      </trkpt>
      <trkpt lat="47.457876" lon="8.049195">
        <ele>470.719519</ele>
        <time>2021-11-21T16:50:01.593Z</time>
      </trkpt>
      <trkpt lat="47.457845" lon="8.049210">
        <ele>470.843536</ele>
        <time>2021-11-21T16:50:02.122Z</time>
      </trkpt>
      <trkpt lat="47.457577" lon="8.049600">
        <ele>471.864526</ele>
        <time>2021-11-21T16:50:11.722Z</time>
      </trkpt>
      <trkpt lat="47.457433" lon="8.049943">
        <ele>472.499354</ele>
        <time>2021-11-21T16:50:17.294Z</time>
      </trkpt>
      <trkpt lat="47.457227" lon="8.050454">
        <ele>473.434807</ele>
        <time>2021-11-21T16:50:25.429Z</time>
      </trkpt>
      <trkpt lat="47.457063" lon="8.050750">
        <ele>474.036531</ele>
        <time>2021-11-21T16:50:31.976Z</time>
      </trkpt>
      <trkpt lat="47.456972" lon="8.050861">
        <ele>474.310840</ele>
        <time>2021-11-21T16:50:34.412Z</time>
      </trkpt>
      <trkpt lat="47.456820" lon="8.051046">
        <ele>474.768621</ele>
        <time>2021-11-21T16:50:39.546Z</time>
      </trkpt>
      <trkpt lat="47.456563" lon="8.051295">
        <ele>475.511224</ele>
        <time>2021-11-21T16:50:47.711Z</time>
      </trkpt>
      <trkpt lat="47.456114" lon="8.051697">
        <ele>477.165166</ele>
        <time>2021-11-21T16:51:02.136Z</time>
      </trkpt>
      <trkpt lat="47.455980" lon="8.051817">
        <ele>477.658801</ele>
        <time>2021-11-21T16:51:07.294Z</time>
      </trkpt>
      <trkpt lat="47.455912" lon="8.051878">
        <ele>477.909417</ele>
        <time>2021-11-21T16:51:09.507Z</time>
      </trkpt>
      <trkpt lat="47.455674" lon="8.052090">
        <ele>478.784923</ele>
        <time>2021-11-21T16:51:17.494Z</time>
      </trkpt>
      <trkpt lat="47.455435" lon="8.052304">
        <ele>479.665329</ele>
        <time>2021-11-21T16:51:24.625Z</time>
      </trkpt>
      <trkpt lat="47.455278" lon="8.052443">
        <ele>480.241939</ele>
        <time>2021-11-21T16:51:29.855Z</time>
      </trkpt>
      <trkpt lat="47.455102" lon="8.052621">
        <ele>480.913827</ele>
        <time>2021-11-21T16:51:35.703Z</time>
      </trkpt>
      <trkpt lat="47.455021" lon="8.052703">
        <ele>481.233673</ele>
        <time>2021-11-21T16:51:38.215Z</time>
      </trkpt>
      <trkpt lat="47.454740" lon="8.053121">
        <ele>482.576935</ele>
        <time>2021-11-21T16:51:48.776Z</time>
      </trkpt>
      <trkpt lat="47.454599" lon="8.053302">
        <ele>483.206201</ele>
        <time>2021-11-21T16:51:53.266Z</time>
      </trkpt>
      <trkpt lat="47.454280" lon="8.053495">
        <ele>484.367826</ele>
        <time>2021-11-21T16:52:01.633Z</time>
      </trkpt>
      <trkpt lat="47.454190" lon="8.053504">
        <ele>484.671848</ele>
        <time>2021-11-21T16:52:04.336Z</time>
      </trkpt>
      <trkpt lat="47.454007" lon="8.053484">
        <ele>485.290301</ele>
        <time>2021-11-21T16:52:10.285Z</time>
      </trkpt>
      <trkpt lat="47.453588" lon="8.053338">
        <ele>486.741138</ele>
        <time>2021-11-21T16:52:22.253Z</time>
      </trkpt>
      <trkpt lat="47.453160" lon="8.053216">
        <ele>489.399169</ele>
        <time>2021-11-21T16:52:37.073Z</time>
      </trkpt>
      <trkpt lat="47.452870" lon="8.053142">
        <ele>491.486555</ele>
        <time>2021-11-21T16:52:48.711Z</time>
      </trkpt>
      <trkpt lat="47.452771" lon="8.053113">
        <ele>492.202412</ele>
        <time>2021-11-21T16:52:52.653Z</time>
      </trkpt>
      <trkpt lat="47.452592" lon="8.053064">
        <ele>493.493640</ele>
        <time>2021-11-21T16:53:00.702Z</time>
      </trkpt>
      <trkpt lat="47.452030" lon="8.052767">
        <ele>497.726828</ele>
        <time>2021-11-21T16:53:27.815Z</time>
      </trkpt>
      <trkpt lat="47.451728" lon="8.052549">
        <ele>500.187371</ele>
        <time>2021-11-21T16:53:45.821Z</time>
      </trkpt>
      <trkpt lat="47.451546" lon="8.052392">
        <ele>502.206800</ele>
        <time>2021-11-21T16:53:56.894Z</time>
      </trkpt>
      <trkpt lat="47.451164" lon="8.052019">
        <ele>506.594106</ele>
        <time>2021-11-21T16:54:23.303Z</time>
      </trkpt>
      <trkpt lat="47.450757" lon="8.051663">
        <ele>511.126202</ele>
        <time>2021-11-21T16:54:49.569Z</time>
      </trkpt>
      <trkpt lat="47.450592" lon="8.051537">
        <ele>512.906017</ele>
        <time>2021-11-21T16:54:59.745Z</time>
      </trkpt>
      <trkpt lat="47.450504" lon="8.051491">
        <ele>513.800579</ele>
        <time>2021-11-21T16:55:05.100Z</time>
      </trkpt>
      <trkpt lat="47.450344" lon="8.051426">
        <ele>515.390883</ele>
        <time>2021-11-21T16:55:13.247Z</time>
      </trkpt>
      <trkpt lat="47.450074" lon="8.051371">
        <ele>517.675828</ele>
        <time>2021-11-21T16:55:26.659Z</time>
      </trkpt>
      <trkpt lat="47.449886" lon="8.051364">
        <ele>518.802318</ele>
        <time>2021-11-21T16:55:35.595Z</time>
      </trkpt>
      <trkpt lat="47.449679" lon="8.051419">
        <ele>520.062118</ele>
        <time>2021-11-21T16:55:45.734Z</time>
      </trkpt>
      <trkpt lat="47.449613" lon="8.051437">
        <ele>520.464130</ele>
        <time>2021-11-21T16:55:49.028Z</time>
      </trkpt>
      <trkpt lat="47.449059" lon="8.051793">
        <ele>524.082413</ele>
        <time>2021-11-21T16:56:12.846Z</time>
      </trkpt>
      <trkpt lat="47.448673" lon="8.052159">
        <ele>526.829077</ele>
        <time>2021-11-21T16:56:27.232Z</time>
      </trkpt>
      <trkpt lat="47.448435" lon="8.052444">
        <ele>528.026386</ele>
        <time>2021-11-21T16:56:35.400Z</time>
      </trkpt>
      <trkpt lat="47.447919" lon="8.053237">
        <ele>528.742583</ele>
        <time>2021-11-21T16:56:53.371Z</time>
      </trkpt>
      <trkpt lat="47.447679" lon="8.053483">
        <ele>529.023612</ele>
        <time>2021-11-21T16:56:58.832Z</time>
      </trkpt>
      <trkpt lat="47.447302" lon="8.053642">
        <ele>529.400891</ele>
        <time>2021-11-21T16:57:04.073Z</time>
      </trkpt>
      <trkpt lat="47.446540" lon="8.053621">
        <ele>528.689517</ele>
        <time>2021-11-21T16:57:12.354Z</time>
      </trkpt>
      <trkpt lat="47.446453" lon="8.053638">
        <ele>528.529423</ele>
        <time>2021-11-21T16:57:13.210Z</time>
      </trkpt>
      <trkpt lat="47.446269" lon="8.053688">
        <ele>528.188132</ele>
        <time>2021-11-21T16:57:15.353Z</time>
      </trkpt>
      <trkpt lat="47.446146" lon="8.053729">
        <ele>527.958113</ele>
        <time>2021-11-21T16:57:16.623Z</time>
      </trkpt>
      <trkpt lat="47.446043" lon="8.053773">
        <ele>527.762526</ele>
        <time>2021-11-21T16:57:17.711Z</time>
      </trkpt>
      <trkpt lat="47.445607" lon="8.054011">
        <ele>526.914665</ele>
        <time>2021-11-21T16:57:23.176Z</time>
      </trkpt>
      <trkpt lat="47.445482" lon="8.054086">
        <ele>526.668570</ele>
        <time>2021-11-21T16:57:24.600Z</time>
      </trkpt>
      <trkpt lat="47.445165" lon="8.054338">
        <ele>526.827314</ele>
        <time>2021-11-21T16:57:28.678Z</time>
      </trkpt>
      <trkpt lat="47.444891" lon="8.054624">
        <ele>527.673564</ele>
        <time>2021-11-21T16:57:32.973Z</time>
      </trkpt>
      <trkpt lat="47.444778" lon="8.054764">
        <ele>528.045538</ele>
        <time>2021-11-21T16:57:35.332Z</time>
      </trkpt>
      <trkpt lat="47.444574" lon="8.055018">
        <ele>528.718446</ele>
        <time>2021-11-21T16:57:41.714Z</time>
      </trkpt>
      <trkpt lat="47.444016" lon="8.055716">
        <ele>530.562614</ele>
        <time>2021-11-21T16:58:05.950Z</time>
      </trkpt>
      <trkpt lat="47.443780" lon="8.055984">
        <ele>532.320251</ele>
        <time>2021-11-21T16:58:17.547Z</time>
      </trkpt>
      <trkpt lat="47.443746" lon="8.056022">
        <ele>532.684941</ele>
        <time>2021-11-21T16:58:19.099Z</time>
      </trkpt>
      <trkpt lat="47.443500" lon="8.056201">
        <ele>535.030982</ele>
        <time>2021-11-21T16:58:32.151Z</time>
      </trkpt>
      <trkpt lat="47.443063" lon="8.056406">
        <ele>538.953964</ele>
        <time>2021-11-21T16:58:54.077Z</time>
      </trkpt>
      <trkpt lat="47.443058" lon="8.056408">
        <ele>538.998286</ele>
        <time>2021-11-21T16:58:54.626Z</time>
      </trkpt>
      <trkpt lat="47.442807" lon="8.056482">
        <ele>541.188308</ele>
        <time>2021-11-21T16:59:07.261Z</time>
      </trkpt>
      <trkpt lat="47.442440" lon="8.056586">
        <ele>544.385789</ele>
        <time>2021-11-21T16:59:28.131Z</time>
      </trkpt>
      <trkpt lat="47.442208" lon="8.056646">
        <ele>546.419813</ele>
        <time>2021-11-21T16:59:42.353Z</time>
      </trkpt>
      <trkpt lat="47.441973" lon="8.056692">
        <ele>548.769540</ele>
        <time>2021-11-21T16:59:55.173Z</time>
      </trkpt>
      <trkpt lat="47.441858" lon="8.056699">
        <ele>549.910425</ele>
        <time>2021-11-21T17:00:01.724Z</time>
      </trkpt>
      <trkpt lat="47.441352" lon="8.056727">
        <ele>554.929583</ele>
        <time>2021-11-21T17:00:28.775Z</time>
      </trkpt>
      <trkpt lat="47.441177" lon="8.056749">
        <ele>556.670503</ele>
        <time>2021-11-21T17:00:39.482Z</time>
      </trkpt>
      <trkpt lat="47.439250" lon="8.057494">
        <ele>575.558214</ele>
        <time>2021-11-21T17:02:24.677Z</time>
      </trkpt>
      <trkpt lat="47.439110" lon="8.057501">
        <ele>576.850165</ele>
        <time>2021-11-21T17:02:32.746Z</time>
      </trkpt>
      <trkpt lat="47.438753" lon="8.057449">
        <ele>580.158696</ele>
        <time>2021-11-21T17:02:49.943Z</time>
      </trkpt>
      <trkpt lat="47.438390" lon="8.057522">
        <ele>583.075642</ele>
        <time>2021-11-21T17:03:07.526Z</time>
      </trkpt>
      <trkpt lat="47.438151" lon="8.057748">
        <ele>585.266291</ele>
        <time>2021-11-21T17:03:20.493Z</time>
      </trkpt>
      <trkpt lat="47.437631" lon="8.058564">
        <ele>591.121638</ele>
        <time>2021-11-21T17:03:56.057Z</time>
      </trkpt>
      <trkpt lat="47.436575" lon="8.060226">
        <ele>602.045172</ele>
        <time>2021-11-21T17:05:00.123Z</time>
      </trkpt>
      <trkpt lat="47.436511" lon="8.060328">
        <ele>602.686957</ele>
        <time>2021-11-21T17:05:04.157Z</time>
      </trkpt>
      <trkpt lat="47.436332" lon="8.060550">
        <ele>604.280353</ele>
        <time>2021-11-21T17:05:13.345Z</time>
      </trkpt>
      <trkpt lat="47.436148" lon="8.060668">
        <ele>605.648161</ele>
        <time>2021-11-21T17:05:22.052Z</time>
      </trkpt>
      <trkpt lat="47.435679" lon="8.060767">
        <ele>609.235773</ele>
        <time>2021-11-21T17:05:42.652Z</time>
      </trkpt>
      <trkpt lat="47.435387" lon="8.060864">
        <ele>611.636524</ele>
        <time>2021-11-21T17:05:56.437Z</time>
      </trkpt>
      <trkpt lat="47.434799" lon="8.061205">
        <ele>616.703240</ele>
        <time>2021-11-21T17:06:24.261Z</time>
      </trkpt>
      <trkpt lat="47.434654" lon="8.061257">
        <ele>617.900126</ele>
        <time>2021-11-21T17:06:30.442Z</time>
      </trkpt>
      <trkpt lat="47.434476" lon="8.061251">
        <ele>619.328365</ele>
        <time>2021-11-21T17:06:40.193Z</time>
      </trkpt>
      <trkpt lat="47.434186" lon="8.061122">
        <ele>621.877792</ele>
        <time>2021-11-21T17:06:56.653Z</time>
      </trkpt>
      <trkpt lat="47.434058" lon="8.061001">
        <ele>623.405150</ele>
        <time>2021-11-21T17:07:03.829Z</time>
      </trkpt>
      <trkpt lat="47.433974" lon="8.060897">
        <ele>624.506626</ele>
        <time>2021-11-21T17:07:10.464Z</time>
      </trkpt>
      <trkpt lat="47.433913" lon="8.060781">
        <ele>625.505771</ele>
        <time>2021-11-21T17:07:18.291Z</time>
      </trkpt>
      <trkpt lat="47.433897" lon="8.060733">
        <ele>625.869660</ele>
        <time>2021-11-21T17:07:18.998Z</time>
      </trkpt>
      <trkpt lat="47.433841" lon="8.060561">
        <ele>627.167726</ele>
        <time>2021-11-21T17:07:26.470Z</time>
      </trkpt>
      <trkpt lat="47.433818" lon="8.060443">
        <ele>628.002799</ele>
        <time>2021-11-21T17:07:30.893Z</time>
      </trkpt>
      <trkpt lat="47.433730" lon="8.060519">
        <ele>629.027357</ele>
        <time>2021-11-21T17:07:39.492Z</time>
      </trkpt>
      <trkpt lat="47.433691" lon="8.060591">
        <ele>629.654604</ele>
        <time>2021-11-21T17:07:41.420Z</time>
      </trkpt>
      <trkpt lat="47.433563" lon="8.061773">
        <ele>637.794835</ele>
        <time>2021-11-21T17:08:27.552Z</time>
      </trkpt>
      <trkpt lat="47.433539" lon="8.061973">
        <ele>639.176120</ele>
        <time>2021-11-21T17:08:35.732Z</time>
      </trkpt>
      <trkpt lat="47.433539" lon="8.061973">
        <ele>639.176120</ele>
        <time>2021-11-21T17:08:36.483Z</time>
      </trkpt>
      <trkpt lat="47.433539" lon="8.061973">
        <ele>639.176120</ele>
        <time>2021-11-21T17:08:36.708Z</time>
      </trkpt>
      <trkpt lat="47.433432" lon="8.063843">
        <ele>647.384400</ele>
        <time>2021-11-21T17:09:33.463Z</time>
      </trkpt>
      <trkpt lat="47.433334" lon="8.064796">
        <ele>651.110837</ele>
        <time>2021-11-21T17:09:52.779Z</time>
      </trkpt>
      <trkpt lat="47.433334" lon="8.064968">
        <ele>651.348777</ele>
        <time>2021-11-21T17:09:55.241Z</time>
      </trkpt>
      <trkpt lat="47.433401" lon="8.065135">
        <ele>651.617377</ele>
        <time>2021-11-21T17:09:56.974Z</time>
      </trkpt>
      <trkpt lat="47.433554" lon="8.065256">
        <ele>651.972230</ele>
        <time>2021-11-21T17:10:02.043Z</time>
      </trkpt>
      <trkpt lat="47.433766" lon="8.065315">
        <ele>652.413398</ele>
        <time>2021-11-21T17:10:05.825Z</time>
      </trkpt>
      <trkpt lat="47.434017" lon="8.065303">
        <ele>652.926975</ele>
        <time>2021-11-21T17:10:11.905Z</time>
      </trkpt>
      <trkpt lat="47.434745" lon="8.065087">
        <ele>654.445465</ele>
        <time>2021-11-21T17:10:28.836Z</time>
      </trkpt>
      <trkpt lat="47.434794" lon="8.065101">
        <ele>654.547527</ele>
        <time>2021-11-21T17:10:29.329Z</time>
      </trkpt>
      <trkpt lat="47.434850" lon="8.065142">
        <ele>654.502908</ele>
        <time>2021-11-21T17:10:32.217Z</time>
      </trkpt>
      <trkpt lat="47.435011" lon="8.065633">
        <ele>653.943717</ele>
        <time>2021-11-21T17:10:39.088Z</time>
      </trkpt>
      <trkpt lat="47.435134" lon="8.066208">
        <ele>653.325685</ele>
        <time>2021-11-21T17:10:43.944Z</time>
      </trkpt>
      <trkpt lat="47.435171" lon="8.066354">
        <ele>653.165906</ele>
        <time>2021-11-21T17:10:44.992Z</time>
      </trkpt>
      <trkpt lat="47.435246" lon="8.066744">
        <ele>652.750391</ele>
        <time>2021-11-21T17:10:48.219Z</time>
      </trkpt>
      <trkpt lat="47.435269" lon="8.066847">
        <ele>652.639233</ele>
        <time>2021-11-21T17:10:48.911Z</time>
      </trkpt>
      <trkpt lat="47.435328" lon="8.067121">
        <ele>652.344550</ele>
        <time>2021-11-21T17:10:51.080Z</time>
      </trkpt>
      <trkpt lat="47.435431" lon="8.067627">
        <ele>651.664745</ele>
        <time>2021-11-21T17:10:54.710Z</time>
      </trkpt>
      <trkpt lat="47.435503" lon="8.067966">
        <ele>650.256628</ele>
        <time>2021-11-21T17:10:56.957Z</time>
      </trkpt>
      <trkpt lat="47.435676" lon="8.068459">
        <ele>648.055623</ele>
        <time>2021-11-21T17:11:00.428Z</time>
      </trkpt>
      <trkpt lat="47.436622" lon="8.069777">
        <ele>640.323184</ele>
        <time>2021-11-21T17:11:12.188Z</time>
      </trkpt>
      <trkpt lat="47.436652" lon="8.069782">
        <ele>640.122673</ele>
        <time>2021-11-21T17:11:12.437Z</time>
      </trkpt>
      <trkpt lat="47.436686" lon="8.069773">
        <ele>639.893267</ele>
        <time>2021-11-21T17:11:14.344Z</time>
      </trkpt>
      <trkpt lat="47.437121" lon="8.068991">
        <ele>635.344805</ele>
        <time>2021-11-21T17:11:20.565Z</time>
      </trkpt>
      <trkpt lat="47.437380" lon="8.068624">
        <ele>632.962111</ele>
        <time>2021-11-21T17:11:23.846Z</time>
      </trkpt>
      <trkpt lat="47.437549" lon="8.068492">
        <ele>631.692665</ele>
        <time>2021-11-21T17:11:25.740Z</time>
      </trkpt>
      <trkpt lat="47.437876" lon="8.068472">
        <ele>629.518998</ele>
        <time>2021-11-21T17:11:28.696Z</time>
      </trkpt>
      <trkpt lat="47.438250" lon="8.068552">
        <ele>626.148544</ele>
        <time>2021-11-21T17:11:31.969Z</time>
      </trkpt>
      <trkpt lat="47.438419" lon="8.068754">
        <ele>624.178464</ele>
        <time>2021-11-21T17:11:33.830Z</time>
      </trkpt>
      <trkpt lat="47.438641" lon="8.069393">
        <ele>619.773751</ele>
        <time>2021-11-21T17:11:38.047Z</time>
      </trkpt>
      <trkpt lat="47.438715" lon="8.070016">
        <ele>615.895329</ele>
        <time>2021-11-21T17:11:41.770Z</time>
      </trkpt>
      <trkpt lat="47.438717" lon="8.070139">
        <ele>615.140929</ele>
        <time>2021-11-21T17:11:42.455Z</time>
      </trkpt>
      <trkpt lat="47.438717" lon="8.070261">
        <ele>614.392878</ele>
        <time>2021-11-21T17:11:43.203Z</time>
      </trkpt>
      <trkpt lat="47.438717" lon="8.070432">
        <ele>613.344381</ele>
        <time>2021-11-21T17:11:44.232Z</time>
      </trkpt>
      <trkpt lat="47.438733" lon="8.071591">
        <ele>606.937645</ele>
        <time>2021-11-21T17:11:51.051Z</time>
      </trkpt>
      <trkpt lat="47.438761" lon="8.072680">
        <ele>600.942002</ele>
        <time>2021-11-21T17:11:57.544Z</time>
      </trkpt>
      <trkpt lat="47.438769" lon="8.073159">
        <ele>598.332045</ele>
        <time>2021-11-21T17:12:00.546Z</time>
      </trkpt>
      <trkpt lat="47.438802" lon="8.076162">
        <ele>585.467876</ele>
        <time>2021-11-21T17:12:18.998Z</time>
      </trkpt>
      <trkpt lat="47.438808" lon="8.076440">
        <ele>584.434794</ele>
        <time>2021-11-21T17:12:20.722Z</time>
      </trkpt>
      <trkpt lat="47.438854" lon="8.077729">
        <ele>579.640492</ele>
        <time>2021-11-21T17:12:28.909Z</time>
      </trkpt>
      <trkpt lat="47.438862" lon="8.078789">
        <ele>575.672896</ele>
        <time>2021-11-21T17:12:35.604Z</time>
      </trkpt>
      <trkpt lat="47.438840" lon="8.079017">
        <ele>574.796785</ele>
        <time>2021-11-21T17:12:37.109Z</time>
      </trkpt>
      <trkpt lat="47.438811" lon="8.079350">
        <ele>573.519570</ele>
        <time>2021-11-21T17:12:39.243Z</time>
      </trkpt>
      <trkpt lat="47.438733" lon="8.079954">
        <ele>571.180399</ele>
        <time>2021-11-21T17:12:43.166Z</time>
      </trkpt>
      <trkpt lat="47.438632" lon="8.080671">
        <ele>568.394343</ele>
        <time>2021-11-21T17:12:47.717Z</time>
      </trkpt>
      <trkpt lat="47.438547" lon="8.081275">
        <ele>565.842650</ele>
        <time>2021-11-21T17:12:51.509Z</time>
      </trkpt>
      <trkpt lat="47.438436" lon="8.082004">
        <ele>562.264063</ele>
        <time>2021-11-21T17:12:56.030Z</time>
      </trkpt>
      <trkpt lat="47.438337" lon="8.082647">
        <ele>559.105923</ele>
        <time>2021-11-21T17:12:59.974Z</time>
      </trkpt>
      <trkpt lat="47.438326" lon="8.082717">
        <ele>558.761760</ele>
        <time>2021-11-21T17:13:00.396Z</time>
      </trkpt>
      <trkpt lat="47.438164" lon="8.083842">
        <ele>553.358522</ele>
        <time>2021-11-21T17:13:07.422Z</time>
      </trkpt>
      <trkpt lat="47.438112" lon="8.083945">
        <ele>552.819178</ele>
        <time>2021-11-21T17:13:08.186Z</time>
      </trkpt>
      <trkpt lat="47.438031" lon="8.083992">
        <ele>552.279333</ele>
        <time>2021-11-21T17:13:08.977Z</time>
      </trkpt>
      <trkpt lat="47.437975" lon="8.083964">
        <ele>551.912577</ele>
        <time>2021-11-21T17:13:09.524Z</time>
      </trkpt>
      <trkpt lat="47.437860" lon="8.083715">
        <ele>550.647340</ele>
        <time>2021-11-21T17:13:11.380Z</time>
      </trkpt>
      <trkpt lat="47.437557" lon="8.082140">
        <ele>543.775943</ele>
        <time>2021-11-21T17:13:21.547Z</time>
      </trkpt>
      <trkpt lat="47.437503" lon="8.081856">
        <ele>542.539041</ele>
        <time>2021-11-21T17:13:23.319Z</time>
      </trkpt>
      <trkpt lat="47.437387" lon="8.081264">
        <ele>539.959392</ele>
        <time>2021-11-21T17:13:27.301Z</time>
      </trkpt>
      <trkpt lat="47.437258" lon="8.080640">
        <ele>537.228417</ele>
        <time>2021-11-21T17:13:31.439Z</time>
      </trkpt>
      <trkpt lat="47.437232" lon="8.080595">
        <ele>536.980712</ele>
        <time>2021-11-21T17:13:31.796Z</time>
      </trkpt>
      <trkpt lat="47.437191" lon="8.080569">
        <ele>536.704657</ele>
        <time>2021-11-21T17:13:32.203Z</time>
      </trkpt>
      <trkpt lat="47.437125" lon="8.080553">
        <ele>536.290804</ele>
        <time>2021-11-21T17:13:32.819Z</time>
      </trkpt>
      <trkpt lat="47.437072" lon="8.080572">
        <ele>535.953345</ele>
        <time>2021-11-21T17:13:33.279Z</time>
      </trkpt>
      <trkpt lat="47.436847" lon="8.080902">
        <ele>533.992189</ele>
        <time>2021-11-21T17:13:36.201Z</time>
      </trkpt>
      <trkpt lat="47.436780" lon="8.081213">
        <ele>532.626077</ele>
        <time>2021-11-21T17:13:38.196Z</time>
      </trkpt>
      <trkpt lat="47.436742" lon="8.083751">
        <ele>519.640373</ele>
        <time>2021-11-21T17:13:53.455Z</time>
      </trkpt>
      <trkpt lat="47.436840" lon="8.084846">
        <ele>513.751005</ele>
        <time>2021-11-21T17:14:00.019Z</time>
      </trkpt>
      <trkpt lat="47.436921" lon="8.085388">
        <ele>510.760523</ele>
        <time>2021-11-21T17:14:03.321Z</time>
      </trkpt>
      <trkpt lat="47.437083" lon="8.086303">
        <ele>505.664838</ele>
        <time>2021-11-21T17:14:08.977Z</time>
      </trkpt>
      <trkpt lat="47.437206" lon="8.087000">
        <ele>502.061447</ele>
        <time>2021-11-21T17:14:13.306Z</time>
      </trkpt>
      <trkpt lat="47.437526" lon="8.088839">
        <ele>493.326482</ele>
        <time>2021-11-21T17:14:24.941Z</time>
      </trkpt>
      <trkpt lat="47.437566" lon="8.089464">
        <ele>490.428105</ele>
        <time>2021-11-21T17:14:28.785Z</time>
      </trkpt>
      <trkpt lat="47.437543" lon="8.090167">
        <ele>487.156852</ele>
        <time>2021-11-21T17:14:33.115Z</time>
      </trkpt>
      <trkpt lat="47.437512" lon="8.090475">
        <ele>485.709554</ele>
        <time>2021-11-21T17:14:34.998Z</time>
      </trkpt>
      <trkpt lat="47.437449" lon="8.091081">
        <ele>482.859884</ele>
        <time>2021-11-21T17:14:38.738Z</time>
      </trkpt>
      <trkpt lat="47.437327" lon="8.092095">
        <ele>478.161323</ele>
        <time>2021-11-21T17:14:44.952Z</time>
      </trkpt>
      <trkpt lat="47.436956" lon="8.093402">
        <ele>472.145380</ele>
        <time>2021-11-21T17:14:53.646Z</time>
      </trkpt>
      <trkpt lat="47.436880" lon="8.093951">
        <ele>469.766963</ele>
        <time>2021-11-21T17:14:57.153Z</time>
      </trkpt>
      <trkpt lat="47.436840" lon="8.094305">
        <ele>468.243661</ele>
        <time>2021-11-21T17:14:59.405Z</time>
      </trkpt>
      <trkpt lat="47.436605" lon="8.095337">
        <ele>464.460528</ele>
        <time>2021-11-21T17:15:06.284Z</time>
      </trkpt>
      <trkpt lat="47.436535" lon="8.095602">
        <ele>463.495159</ele>
        <time>2021-11-21T17:15:08.069Z</time>
      </trkpt>
      <trkpt lat="47.436422" lon="8.096087">
        <ele>461.754496</ele>
        <time>2021-11-21T17:15:11.379Z</time>
      </trkpt>
      <trkpt lat="47.436349" lon="8.096291">
        <ele>460.971352</ele>
        <time>2021-11-21T17:15:12.931Z</time>
      </trkpt>
      <trkpt lat="47.436266" lon="8.096607">
        <ele>459.821049</ele>
        <time>2021-11-21T17:15:15.066Z</time>
      </trkpt>
      <trkpt lat="47.436208" lon="8.096829">
        <ele>459.013486</ele>
        <time>2021-11-21T17:15:16.695Z</time>
      </trkpt>
      <trkpt lat="47.436163" lon="8.097026">
        <ele>458.385454</ele>
        <time>2021-11-21T17:15:17.965Z</time>
      </trkpt>
      <trkpt lat="47.436091" lon="8.097832">
        <ele>456.078921</ele>
        <time>2021-11-21T17:15:23.246Z</time>
      </trkpt>
      <trkpt lat="47.436131" lon="8.098445">
        <ele>454.331723</ele>
        <time>2021-11-21T17:15:27.317Z</time>
      </trkpt>
      <trkpt lat="47.436142" lon="8.098546">
        <ele>454.041488</ele>
        <time>2021-11-21T17:15:27.935Z</time>
      </trkpt>
      <trkpt lat="47.436150" lon="8.098616">
        <ele>453.840078</ele>
        <time>2021-11-21T17:15:28.375Z</time>
      </trkpt>
      <trkpt lat="47.436248" lon="8.099120">
        <ele>452.352290</ele>
        <time>2021-11-21T17:15:31.848Z</time>
      </trkpt>
      <trkpt lat="47.436315" lon="8.099419">
        <ele>451.458672</ele>
        <time>2021-11-21T17:15:34.152Z</time>
      </trkpt>
      <trkpt lat="47.436383" lon="8.099657">
        <ele>450.851977</ele>
        <time>2021-11-21T17:15:35.821Z</time>
      </trkpt>
      <trkpt lat="47.436476" lon="8.099978">
        <ele>450.106003</ele>
        <time>2021-11-21T17:15:38.348Z</time>
      </trkpt>
      <trkpt lat="47.436585" lon="8.100263">
        <ele>449.406605</ele>
        <time>2021-11-21T17:15:40.530Z</time>
      </trkpt>
      <trkpt lat="47.436647" lon="8.100422">
        <ele>449.014553</ele>
        <time>2021-11-21T17:15:41.878Z</time>
      </trkpt>
      <trkpt lat="47.436711" lon="8.100563">
        <ele>448.651818</ele>
        <time>2021-11-21T17:15:42.935Z</time>
      </trkpt>
      <trkpt lat="47.437205" lon="8.101657">
        <ele>445.841928</ele>
        <time>2021-11-21T17:15:52.193Z</time>
      </trkpt>
      <trkpt lat="47.437641" lon="8.102393">
        <ele>443.751216</ele>
        <time>2021-11-21T17:15:58.978Z</time>
      </trkpt>
      <trkpt lat="47.437770" lon="8.102600">
        <ele>443.149710</ele>
        <time>2021-11-21T17:16:00.875Z</time>
      </trkpt>
      <trkpt lat="47.437904" lon="8.102800">
        <ele>442.548108</ele>
        <time>2021-11-21T17:16:02.917Z</time>
      </trkpt>
      <trkpt lat="47.438112" lon="8.103073">
        <ele>441.669329</ele>
        <time>2021-11-21T17:16:05.690Z</time>
      </trkpt>
      <trkpt lat="47.438137" lon="8.103139">
        <ele>441.507673</ele>
        <time>2021-11-21T17:16:06.234Z</time>
      </trkpt>
      <trkpt lat="47.438152" lon="8.103203">
        <ele>441.362924</ele>
        <time>2021-11-21T17:16:06.707Z</time>
      </trkpt>
      <trkpt lat="47.438169" lon="8.103294">
        <ele>441.161173</ele>
        <time>2021-11-21T17:16:07.329Z</time>
      </trkpt>
      <trkpt lat="47.438182" lon="8.103370">
        <ele>440.993645</ele>
        <time>2021-11-21T17:16:07.865Z</time>
      </trkpt>
      <trkpt lat="47.438218" lon="8.103493">
        <ele>440.707235</ele>
        <time>2021-11-21T17:16:08.736Z</time>
      </trkpt>
      <trkpt lat="47.438319" lon="8.103594">
        <ele>440.321985</ele>
        <time>2021-11-21T17:16:10.053Z</time>
      </trkpt>
      <trkpt lat="47.438435" lon="8.103708">
        <ele>439.881899</ele>
        <time>2021-11-21T17:16:11.405Z</time>
      </trkpt>
      <trkpt lat="47.438510" lon="8.103795">
        <ele>439.606107</ele>
        <time>2021-11-21T17:16:12.315Z</time>
      </trkpt>
      <trkpt lat="47.438624" lon="8.103965">
        <ele>439.138880</ele>
        <time>2021-11-21T17:16:14.002Z</time>
      </trkpt>
      <trkpt lat="47.438636" lon="8.104004">
        <ele>439.055256</ele>
        <time>2021-11-21T17:16:14.281Z</time>
      </trkpt>
      <trkpt lat="47.438636" lon="8.104004">
        <ele>439.055256</ele>
        <time>2021-11-21T17:16:14.284Z</time>
      </trkpt>
      <trkpt lat="47.438698" lon="8.104222">
        <ele>438.593692</ele>
        <time>2021-11-21T17:16:15.842Z</time>
      </trkpt>
      <trkpt lat="47.438764" lon="8.104599">
        <ele>437.833639</ele>
        <time>2021-11-21T17:16:18.603Z</time>
      </trkpt>
      <trkpt lat="47.438760" lon="8.104786">
        <ele>437.468481</ele>
        <time>2021-11-21T17:16:19.867Z</time>
      </trkpt>
      <trkpt lat="47.438736" lon="8.105033">
        <ele>436.981451</ele>
        <time>2021-11-21T17:16:21.683Z</time>
      </trkpt>
      <trkpt lat="47.438700" lon="8.105458">
        <ele>436.145482</ele>
        <time>2021-11-21T17:16:24.745Z</time>
      </trkpt>
      <trkpt lat="47.438707" lon="8.105651">
        <ele>435.768254</ele>
        <time>2021-11-21T17:16:26.168Z</time>
      </trkpt>
      <trkpt lat="47.438729" lon="8.105870">
        <ele>435.336134</ele>
        <time>2021-11-21T17:16:27.727Z</time>
      </trkpt>
      <trkpt lat="47.438752" lon="8.106005">
        <ele>435.064419</ele>
        <time>2021-11-21T17:16:28.791Z</time>
      </trkpt>
      <trkpt lat="47.438818" lon="8.106296">
        <ele>434.479379</ele>
        <time>2021-11-21T17:16:30.892Z</time>
      </trkpt>
      <trkpt lat="47.438874" lon="8.106523">
        <ele>434.038037</ele>
        <time>2021-11-21T17:16:32.659Z</time>
      </trkpt>
      <trkpt lat="47.438899" lon="8.106626">
        <ele>433.838157</ele>
        <time>2021-11-21T17:16:33.458Z</time>
      </trkpt>
      <trkpt lat="47.438974" lon="8.106907">
        <ele>433.286385</ele>
        <time>2021-11-21T17:16:35.546Z</time>
      </trkpt>
      <trkpt lat="47.439207" lon="8.107635">
        <ele>431.815316</ele>
        <time>2021-11-21T17:16:41.267Z</time>
      </trkpt>
      <trkpt lat="47.439314" lon="8.107942">
        <ele>431.184503</ele>
        <time>2021-11-21T17:16:43.696Z</time>
      </trkpt>
      <trkpt lat="47.439446" lon="8.108296">
        <ele>430.446167</ele>
        <time>2021-11-21T17:16:46.564Z</time>
      </trkpt>
      <trkpt lat="47.439529" lon="8.108595">
        <ele>429.855833</ele>
        <time>2021-11-21T17:16:48.895Z</time>
      </trkpt>
      <trkpt lat="47.439627" lon="8.109005">
        <ele>428.896384</ele>
        <time>2021-11-21T17:16:51.861Z</time>
      </trkpt>
      <trkpt lat="47.439736" lon="8.109646">
        <ele>427.428410</ele>
        <time>2021-11-21T17:16:56.382Z</time>
      </trkpt>
      <trkpt lat="47.439783" lon="8.110028">
        <ele>426.566060</ele>
        <time>2021-11-21T17:16:58.980Z</time>
      </trkpt>
      <trkpt lat="47.439797" lon="8.110143">
        <ele>426.306540</ele>
        <time>2021-11-21T17:16:59.776Z</time>
      </trkpt>
      <trkpt lat="47.439868" lon="8.110864">
        <ele>424.688309</ele>
        <time>2021-11-21T17:17:04.727Z</time>
      </trkpt>
      <trkpt lat="47.439893" lon="8.111132">
        <ele>424.087445</ele>
        <time>2021-11-21T17:17:06.545Z</time>
      </trkpt>
      <trkpt lat="47.440053" lon="8.112608">
        <ele>421.041986</ele>
        <time>2021-11-21T17:17:16.766Z</time>
      </trkpt>
      <trkpt lat="47.440229" lon="8.113672">
        <ele>418.821079</ele>
        <time>2021-11-21T17:17:24.414Z</time>
      </trkpt>
      <trkpt lat="47.440342" lon="8.114157">
        <ele>418.119221</ele>
        <time>2021-11-21T17:17:28.133Z</time>
      </trkpt>
      <trkpt lat="47.440417" lon="8.114455">
        <ele>417.766348</ele>
        <time>2021-11-21T17:17:30.446Z</time>
      </trkpt>
      <trkpt lat="47.440589" lon="8.115040">
        <ele>417.058431</ele>
        <time>2021-11-21T17:17:35.277Z</time>
      </trkpt>
      <trkpt lat="47.441002" lon="8.116649">
        <ele>415.374527</ele>
        <time>2021-11-21T17:17:49.214Z</time>
      </trkpt>
      <trkpt lat="47.441028" lon="8.116844">
        <ele>415.270319</ele>
        <time>2021-11-21T17:17:50.968Z</time>
      </trkpt>
      <trkpt lat="47.441126" lon="8.117583">
        <ele>414.875477</ele>
        <time>2021-11-21T17:17:57.444Z</time>
      </trkpt>
      <trkpt lat="47.441143" lon="8.117969">
        <ele>414.672666</ele>
        <time>2021-11-21T17:18:00.723Z</time>
      </trkpt>
      <trkpt lat="47.441151" lon="8.118249">
        <ele>414.525729</ele>
        <time>2021-11-21T17:18:03.096Z</time>
      </trkpt>
      <trkpt lat="47.441160" lon="8.118632">
        <ele>414.324798</ele>
        <time>2021-11-21T17:18:06.551Z</time>
      </trkpt>
      <trkpt lat="47.441161" lon="8.118889">
        <ele>414.190049</ele>
        <time>2021-11-21T17:18:08.798Z</time>
      </trkpt>
      <trkpt lat="47.441148" lon="8.119325">
        <ele>413.944761</ele>
        <time>2021-11-21T17:18:12.697Z</time>
      </trkpt>
      <trkpt lat="47.441139" lon="8.120050">
        <ele>413.536293</ele>
        <time>2021-11-21T17:18:18.939Z</time>
      </trkpt>
      <trkpt lat="47.441147" lon="8.120369">
        <ele>413.356474</ele>
        <time>2021-11-21T17:18:21.610Z</time>
      </trkpt>
      <trkpt lat="47.441158" lon="8.120592">
        <ele>413.230522</ele>
        <time>2021-11-21T17:18:23.431Z</time>
      </trkpt>
      <trkpt lat="47.441185" lon="8.120992">
        <ele>413.004079</ele>
        <time>2021-11-21T17:18:26.598Z</time>
      </trkpt>
      <trkpt lat="47.441242" lon="8.121608">
        <ele>412.642148</ele>
        <time>2021-11-21T17:18:31.797Z</time>
      </trkpt>
      <trkpt lat="47.441260" lon="8.121851">
        <ele>412.451999</ele>
        <time>2021-11-21T17:18:34.260Z</time>
      </trkpt>
      <trkpt lat="47.441259" lon="8.122119">
        <ele>412.243531</ele>
        <time>2021-11-21T17:18:36.425Z</time>
      </trkpt>
      <trkpt lat="47.441253" lon="8.122860">
        <ele>411.667100</ele>
        <time>2021-11-21T17:18:43.470Z</time>
      </trkpt>
      <trkpt lat="47.441230" lon="8.123139">
        <ele>411.448473</ele>
        <time>2021-11-21T17:18:45.743Z</time>
      </trkpt>
      <trkpt lat="47.441181" lon="8.123600">
        <ele>411.085480</ele>
        <time>2021-11-21T17:18:49.360Z</time>
      </trkpt>
      <trkpt lat="47.441073" lon="8.124657">
        <ele>410.090248</ele>
        <time>2021-11-21T17:18:57.215Z</time>
      </trkpt>
      <trkpt lat="47.441063" lon="8.124846">
        <ele>409.876099</ele>
        <time>2021-11-21T17:18:58.843Z</time>
      </trkpt>
      <trkpt lat="47.441067" lon="8.125024">
        <ele>409.674917</ele>
        <time>2021-11-21T17:18:59.992Z</time>
      </trkpt>
      <trkpt lat="47.441081" lon="8.125303">
        <ele>409.358890</ele>
        <time>2021-11-21T17:19:02.248Z</time>
      </trkpt>
      <trkpt lat="47.441091" lon="8.125443">
        <ele>409.199865</ele>
        <time>2021-11-21T17:19:03.485Z</time>
      </trkpt>
      <trkpt lat="47.441104" lon="8.125606">
        <ele>409.014462</ele>
        <time>2021-11-21T17:19:04.558Z</time>
      </trkpt>
      <trkpt lat="47.441214" lon="8.126456">
        <ele>408.036877</ele>
        <time>2021-11-21T17:19:12.275Z</time>
      </trkpt>
      <trkpt lat="47.441238" lon="8.126576">
        <ele>407.895521</ele>
        <time>2021-11-21T17:19:13.070Z</time>
      </trkpt>
      <trkpt lat="47.441266" lon="8.126867">
        <ele>407.598971</ele>
        <time>2021-11-21T17:19:15.635Z</time>
      </trkpt>
      <trkpt lat="47.441277" lon="8.127183">
        <ele>407.503213</ele>
        <time>2021-11-21T17:19:17.824Z</time>
      </trkpt>
      <trkpt lat="47.441262" lon="8.127516">
        <ele>407.402213</ele>
        <time>2021-11-21T17:19:20.763Z</time>
      </trkpt>
      <trkpt lat="47.441146" lon="8.128500">
        <ele>407.099933</ele>
        <time>2021-11-21T17:19:29.725Z</time>
      </trkpt>
      <trkpt lat="47.440994" lon="8.129640">
        <ele>406.537773</ele>
        <time>2021-11-21T17:19:43.118Z</time>
      </trkpt>
      <trkpt lat="47.440963" lon="8.129769">
        <ele>406.348151</ele>
        <time>2021-11-21T17:19:45.140Z</time>
      </trkpt>
      <trkpt lat="47.440840" lon="8.130427">
        <ele>405.402580</ele>
        <time>2021-11-21T17:19:50.736Z</time>
      </trkpt>
      <trkpt lat="47.440840" lon="8.130492">
        <ele>405.312547</ele>
        <time>2021-11-21T17:19:51.761Z</time>
      </trkpt>
      <trkpt lat="47.440891" lon="8.130708">
        <ele>404.995657</ele>
        <time>2021-11-21T17:19:53.349Z</time>
      </trkpt>
      <trkpt lat="47.440943" lon="8.130809">
        <ele>404.819840</ele>
        <time>2021-11-21T17:19:54.277Z</time>
      </trkpt>
      <trkpt lat="47.440978" lon="8.130862">
        <ele>404.717241</ele>
        <time>2021-11-21T17:19:54.793Z</time>
      </trkpt>
      <trkpt lat="47.441000" lon="8.130897">
        <ele>404.651058</ele>
        <time>2021-11-21T17:19:55.115Z</time>
      </trkpt>
      <trkpt lat="47.441024" lon="8.130926">
        <ele>404.587582</ele>
        <time>2021-11-21T17:19:55.713Z</time>
      </trkpt>
      <trkpt lat="47.441088" lon="8.130997">
        <ele>404.423724</ele>
        <time>2021-11-21T17:19:56.464Z</time>
      </trkpt>
      <trkpt lat="47.441375" lon="8.131552">
        <ele>403.456046</ele>
        <time>2021-11-21T17:20:01.400Z</time>
      </trkpt>
      <trkpt lat="47.441442" lon="8.131718">
        <ele>403.188291</ele>
        <time>2021-11-21T17:20:02.674Z</time>
      </trkpt>
      <trkpt lat="47.441650" lon="8.132354">
        <ele>400.616645</ele>
        <time>2021-11-21T17:20:07.230Z</time>
      </trkpt>
      <trkpt lat="47.441777" lon="8.132790">
        <ele>398.812882</ele>
        <time>2021-11-21T17:20:10.189Z</time>
      </trkpt>
      <trkpt lat="47.442022" lon="8.133657">
        <ele>395.242604</ele>
        <time>2021-11-21T17:20:15.934Z</time>
      </trkpt>
      <trkpt lat="47.442150" lon="8.134033">
        <ele>393.643171</ele>
        <time>2021-11-21T17:20:18.513Z</time>
      </trkpt>
      <trkpt lat="47.442233" lon="8.134253">
        <ele>392.769544</ele>
        <time>2021-11-21T17:20:20.110Z</time>
      </trkpt>
      <trkpt lat="47.442302" lon="8.134411">
        <ele>392.234262</ele>
        <time>2021-11-21T17:20:21.262Z</time>
      </trkpt>
      <trkpt lat="47.442513" lon="8.134824">
        <ele>390.761150</ele>
        <time>2021-11-21T17:20:24.513Z</time>
      </trkpt>
      <trkpt lat="47.442543" lon="8.134882">
        <ele>390.553335</ele>
        <time>2021-11-21T17:20:24.977Z</time>
      </trkpt>
      <trkpt lat="47.442659" lon="8.135081">
        <ele>389.805630</ele>
        <time>2021-11-21T17:20:26.715Z</time>
      </trkpt>
      <trkpt lat="47.442771" lon="8.135257">
        <ele>389.117846</ele>
        <time>2021-11-21T17:20:28.240Z</time>
      </trkpt>
      <trkpt lat="47.443330" lon="8.135975">
        <ele>386.001860</ele>
        <time>2021-11-21T17:20:35.729Z</time>
      </trkpt>
      <trkpt lat="47.443600" lon="8.136309">
        <ele>385.121348</ele>
        <time>2021-11-21T17:20:39.553Z</time>
      </trkpt>
      <trkpt lat="47.443990" lon="8.137008">
        <ele>384.209565</ele>
        <time>2021-11-21T17:20:46.338Z</time>
      </trkpt>
      <trkpt lat="47.444358" lon="8.137486">
        <ele>383.480813</ele>
        <time>2021-11-21T17:20:52.163Z</time>
      </trkpt>
      <trkpt lat="47.444534" lon="8.137663">
        <ele>383.164139</ele>
        <time>2021-11-21T17:20:54.803Z</time>
      </trkpt>
      <trkpt lat="47.444695" lon="8.137798">
        <ele>382.888773</ele>
        <time>2021-11-21T17:20:57.128Z</time>
      </trkpt>
      <trkpt lat="47.444780" lon="8.137842">
        <ele>382.778445</ele>
        <time>2021-11-21T17:20:58.516Z</time>
      </trkpt>
      <trkpt lat="47.444873" lon="8.137885">
        <ele>382.811973</ele>
        <time>2021-11-21T17:20:59.704Z</time>
      </trkpt>
      <trkpt lat="47.445201" lon="8.137885">
        <ele>382.924834</ele>
        <time>2021-11-21T17:21:04.304Z</time>
      </trkpt>
      <trkpt lat="47.445264" lon="8.137860">
        <ele>382.947279</ele>
        <time>2021-11-21T17:21:05.034Z</time>
      </trkpt>
      <trkpt lat="47.445320" lon="8.137827">
        <ele>382.968021</ele>
        <time>2021-11-21T17:21:05.846Z</time>
      </trkpt>
      <trkpt lat="47.445372" lon="8.137789">
        <ele>382.987980</ele>
        <time>2021-11-21T17:21:06.714Z</time>
      </trkpt>
      <trkpt lat="47.445434" lon="8.137740">
        <ele>383.012169</ele>
        <time>2021-11-21T17:21:07.727Z</time>
      </trkpt>
      <trkpt lat="47.445479" lon="8.137706">
        <ele>383.029558</ele>
        <time>2021-11-21T17:21:08.864Z</time>
      </trkpt>
      <trkpt lat="47.445490" lon="8.137703">
        <ele>383.033407</ele>
        <time>2021-11-21T17:21:09.192Z</time>
      </trkpt>
      <trkpt lat="47.445854" lon="8.138048">
        <ele>383.182176</ele>
        <time>2021-11-21T17:21:17.895Z</time>
      </trkpt>
      <trkpt lat="47.446288" lon="8.139006">
        <ele>383.259321</ele>
        <time>2021-11-21T17:21:31.627Z</time>
      </trkpt>
      <trkpt lat="47.446353" lon="8.139246">
        <ele>383.119827</ele>
        <time>2021-11-21T17:21:34.435Z</time>
      </trkpt>
      <trkpt lat="47.446467" lon="8.139635">
        <ele>382.891078</ele>
        <time>2021-11-21T17:21:38.619Z</time>
      </trkpt>
      <trkpt lat="47.446649" lon="8.140082">
        <ele>382.609556</ele>
        <time>2021-11-21T17:21:42.967Z</time>
      </trkpt>
      <trkpt lat="47.446741" lon="8.140284">
        <ele>382.478153</ele>
        <time>2021-11-21T17:21:44.487Z</time>
      </trkpt>
      <trkpt lat="47.446786" lon="8.140421">
        <ele>382.395976</ele>
        <time>2021-11-21T17:21:47.686Z</time>
      </trkpt>
      <trkpt lat="47.446968" lon="8.141232">
        <ele>381.895928</ele>
        <time>2021-11-21T17:21:54.365Z</time>
      </trkpt>
      <trkpt lat="47.446964" lon="8.141309">
        <ele>381.783397</ele>
        <time>2021-11-21T17:21:54.805Z</time>
      </trkpt>
      <trkpt lat="47.447002" lon="8.141359">
        <ele>381.673797</ele>
        <time>2021-11-21T17:21:56.624Z</time>
      </trkpt>
      <trkpt lat="47.447019" lon="8.141408">
        <ele>381.593549</ele>
        <time>2021-11-21T17:21:58.357Z</time>
      </trkpt>
      <trkpt lat="47.447036" lon="8.141500">
        <ele>381.454578</ele>
        <time>2021-11-21T17:22:00.134Z</time>
      </trkpt>
      <trkpt lat="47.447146" lon="8.142030">
        <ele>380.646741</ele>
        <time>2021-11-21T17:22:04.161Z</time>
      </trkpt>
      <trkpt lat="47.447326" lon="8.142499">
        <ele>379.860959</ele>
        <time>2021-11-21T17:22:07.947Z</time>
      </trkpt>
      <trkpt lat="47.447487" lon="8.142754">
        <ele>379.352623</ele>
        <time>2021-11-21T17:22:10.314Z</time>
      </trkpt>
      <trkpt lat="47.447685" lon="8.143057">
        <ele>378.738669</ele>
        <time>2021-11-21T17:22:13.264Z</time>
      </trkpt>
      <trkpt lat="47.447749" lon="8.143138">
        <ele>378.557157</ele>
        <time>2021-11-21T17:22:14.042Z</time>
      </trkpt>
      <trkpt lat="47.447844" lon="8.143229">
        <ele>378.313268</ele>
        <time>2021-11-21T17:22:15.781Z</time>
      </trkpt>
      <trkpt lat="47.448758" lon="8.144072">
        <ele>376.122157</ele>
        <time>2021-11-21T17:22:28.125Z</time>
      </trkpt>
      <trkpt lat="47.448825" lon="8.144132">
        <ele>375.963877</ele>
        <time>2021-11-21T17:22:28.841Z</time>
      </trkpt>
      <trkpt lat="47.448865" lon="8.144173">
        <ele>375.865529</ele>
        <time>2021-11-21T17:22:29.447Z</time>
      </trkpt>
      <trkpt lat="47.449158" lon="8.144473">
        <ele>375.145381</ele>
        <time>2021-11-21T17:22:33.570Z</time>
      </trkpt>
      <trkpt lat="47.449371" lon="8.144692">
        <ele>374.621152</ele>
        <time>2021-11-21T17:22:36.491Z</time>
      </trkpt>
      <trkpt lat="47.450088" lon="8.145488">
        <ele>372.704879</ele>
        <time>2021-11-21T17:22:45.731Z</time>
      </trkpt>
      <trkpt lat="47.450183" lon="8.145603">
        <ele>372.440962</ele>
        <time>2021-11-21T17:22:47.123Z</time>
      </trkpt>
      <trkpt lat="47.450458" lon="8.145913">
        <ele>371.697628</ele>
        <time>2021-11-21T17:22:50.996Z</time>
      </trkpt>
      <trkpt lat="47.450543" lon="8.146003">
        <ele>371.472897</ele>
        <time>2021-11-21T17:22:52.222Z</time>
      </trkpt>
      <trkpt lat="47.450606" lon="8.146053">
        <ele>371.319196</ele>
        <time>2021-11-21T17:22:52.972Z</time>
      </trkpt>
      <trkpt lat="47.450734" lon="8.146121">
        <ele>371.026821</ele>
        <time>2021-11-21T17:22:54.486Z</time>
      </trkpt>
      <trkpt lat="47.451190" lon="8.146311">
        <ele>370.315323</ele>
        <time>2021-11-21T17:22:59.833Z</time>
      </trkpt>
      <trkpt lat="47.451243" lon="8.146335">
        <ele>370.260002</ele>
        <time>2021-11-21T17:23:00.443Z</time>
      </trkpt>
      <trkpt lat="47.451634" lon="8.146522">
        <ele>369.849866</ele>
        <time>2021-11-21T17:23:05.098Z</time>
      </trkpt>
      <trkpt lat="47.451691" lon="8.146552">
        <ele>369.789482</ele>
        <time>2021-11-21T17:23:05.798Z</time>
      </trkpt>
      <trkpt lat="47.451884" lon="8.146651">
        <ele>369.585600</ele>
        <time>2021-11-21T17:23:08.395Z</time>
      </trkpt>
      <trkpt lat="47.452108" lon="8.146759">
        <ele>369.350456</ele>
        <time>2021-11-21T17:23:11.216Z</time>
      </trkpt>
      <trkpt lat="47.452355" lon="8.146865">
        <ele>369.093769</ele>
        <time>2021-11-21T17:23:14.750Z</time>
      </trkpt>
      <trkpt lat="47.452471" lon="8.146900">
        <ele>368.975611</ele>
        <time>2021-11-21T17:23:16.367Z</time>
      </trkpt>
      <trkpt lat="47.453891" lon="8.147120">
        <ele>368.805447</ele>
        <time>2021-11-21T17:23:45.730Z</time>
      </trkpt>
      <trkpt lat="47.454769" lon="8.147346">
        <ele>368.578463</ele>
        <time>2021-11-21T17:24:04.252Z</time>
      </trkpt>
      <trkpt lat="47.454988" lon="8.147514">
        <ele>368.402529</ele>
        <time>2021-11-21T17:24:08.933Z</time>
      </trkpt>
      <trkpt lat="47.455324" lon="8.147772">
        <ele>368.132549</ele>
        <time>2021-11-21T17:24:15.812Z</time>
      </trkpt>
      <trkpt lat="47.455490" lon="8.147964">
        <ele>367.982267</ele>
        <time>2021-11-21T17:24:19.465Z</time>
      </trkpt>
      <trkpt lat="47.455738" lon="8.148275">
        <ele>367.750393</ele>
        <time>2021-11-21T17:24:25.047Z</time>
      </trkpt>
      <trkpt lat="47.455947" lon="8.148517">
        <ele>367.561105</ele>
        <time>2021-11-21T17:24:29.508Z</time>
      </trkpt>
      <trkpt lat="47.457506" lon="8.150399">
        <ele>364.492576</ele>
        <time>2021-11-21T17:25:02.170Z</time>
      </trkpt>
      <trkpt lat="47.457836" lon="8.150781">
        <ele>363.945816</ele>
        <time>2021-11-21T17:25:09.117Z</time>
      </trkpt>
      <trkpt lat="47.458407" lon="8.151402">
        <ele>363.021076</ele>
        <time>2021-11-21T17:25:21.133Z</time>
      </trkpt>
      <trkpt lat="47.458656" lon="8.151660">
        <ele>362.624407</ele>
        <time>2021-11-21T17:25:26.309Z</time>
      </trkpt>
      <trkpt lat="47.459084" lon="8.152051">
        <ele>362.109559</ele>
        <time>2021-11-21T17:25:34.851Z</time>
      </trkpt>
      <trkpt lat="47.459515" lon="8.152425">
        <ele>361.686785</ele>
        <time>2021-11-21T17:25:43.592Z</time>
      </trkpt>
      <trkpt lat="47.459675" lon="8.152551">
        <ele>361.533425</ele>
        <time>2021-11-21T17:25:46.749Z</time>
      </trkpt>
      <trkpt lat="47.459982" lon="8.152791">
        <ele>361.239637</ele>
        <time>2021-11-21T17:25:52.873Z</time>
      </trkpt>
      <trkpt lat="47.460121" lon="8.152908">
        <ele>361.104326</ele>
        <time>2021-11-21T17:25:55.714Z</time>
      </trkpt>
      <trkpt lat="47.460799" lon="8.153695">
        <ele>360.844097</ele>
        <time>2021-11-21T17:26:12.109Z</time>
      </trkpt>
      <trkpt lat="47.460950" lon="8.153828">
        <ele>360.842608</ele>
        <time>2021-11-21T17:26:15.474Z</time>
      </trkpt>
      <trkpt lat="47.461918" lon="8.154537">
        <ele>360.816739</ele>
        <time>2021-11-21T17:26:38.489Z</time>
      </trkpt>
      <trkpt lat="47.462115" lon="8.154655">
        <ele>360.608084</ele>
        <time>2021-11-21T17:26:43.087Z</time>
      </trkpt>
      <trkpt lat="47.462631" lon="8.155072">
        <ele>360.030838</ele>
        <time>2021-11-21T17:26:54.692Z</time>
      </trkpt>
      <trkpt lat="47.462726" lon="8.155178">
        <ele>359.914014</ele>
        <time>2021-11-21T17:26:56.852Z</time>
      </trkpt>
      <trkpt lat="47.462758" lon="8.155215">
        <ele>359.874140</ele>
        <time>2021-11-21T17:26:57.591Z</time>
      </trkpt>
      <trkpt lat="47.462875" lon="8.155357">
        <ele>359.725561</ele>
        <time>2021-11-21T17:26:59.390Z</time>
      </trkpt>
      <trkpt lat="47.463046" lon="8.155599">
        <ele>359.493226</ele>
        <time>2021-11-21T17:27:02.151Z</time>
      </trkpt>
      <trkpt lat="47.463208" lon="8.155947">
        <ele>359.212796</ele>
        <time>2021-11-21T17:27:05.327Z</time>
      </trkpt>
      <trkpt lat="47.463331" lon="8.156255">
        <ele>358.804723</ele>
        <time>2021-11-21T17:27:07.845Z</time>
      </trkpt>
      <trkpt lat="47.463358" lon="8.156322">
        <ele>358.657404</ele>
        <time>2021-11-21T17:27:08.395Z</time>
      </trkpt>
      <trkpt lat="47.463374" lon="8.156375">
        <ele>358.547776</ele>
        <time>2021-11-21T17:27:08.820Z</time>
      </trkpt>
      <trkpt lat="47.463406" lon="8.156485">
        <ele>358.321601</ele>
        <time>2021-11-21T17:27:09.672Z</time>
      </trkpt>
      <trkpt lat="47.463437" lon="8.156620">
        <ele>358.052319</ele>
        <time>2021-11-21T17:27:10.595Z</time>
      </trkpt>
      <trkpt lat="47.463451" lon="8.156786">
        <ele>357.736364</ele>
        <time>2021-11-21T17:27:11.766Z</time>
      </trkpt>
      <trkpt lat="47.463453" lon="8.156994">
        <ele>357.343474</ele>
        <time>2021-11-21T17:27:13.218Z</time>
      </trkpt>
      <trkpt lat="47.463449" lon="8.157173">
        <ele>357.005212</ele>
        <time>2021-11-21T17:27:14.375Z</time>
      </trkpt>
      <trkpt lat="47.463437" lon="8.157404">
        <ele>356.567635</ele>
        <time>2021-11-21T17:27:15.976Z</time>
      </trkpt>
      <trkpt lat="47.463435" lon="8.157494">
        <ele>356.397560</ele>
        <time>2021-11-21T17:27:16.602Z</time>
      </trkpt>
      <trkpt lat="47.463431" lon="8.157928">
        <ele>355.577786</ele>
        <time>2021-11-21T17:27:19.564Z</time>
      </trkpt>
      <trkpt lat="47.463441" lon="8.158126">
        <ele>355.202781</ele>
        <time>2021-11-21T17:27:20.936Z</time>
      </trkpt>
      <trkpt lat="47.463459" lon="8.158318">
        <ele>354.836680</ele>
        <time>2021-11-21T17:27:22.271Z</time>
      </trkpt>
      <trkpt lat="47.463494" lon="8.158650">
        <ele>354.202053</ele>
        <time>2021-11-21T17:27:24.768Z</time>
      </trkpt>
      <trkpt lat="47.463494" lon="8.158650">
        <ele>354.202053</ele>
        <time>2021-11-21T17:27:24.774Z</time>
      </trkpt>
      <trkpt lat="47.463576" lon="8.159259">
        <ele>353.848089</ele>
        <time>2021-11-21T17:27:29.381Z</time>
      </trkpt>
      <trkpt lat="47.463575" lon="8.159344">
        <ele>353.817221</ele>
        <time>2021-11-21T17:27:30.018Z</time>
      </trkpt>
      <trkpt lat="47.463535" lon="8.159478">
        <ele>353.764033</ele>
        <time>2021-11-21T17:27:31.254Z</time>
      </trkpt>
      <trkpt lat="47.463727" lon="8.159750">
        <ele>353.621246</ele>
        <time>2021-11-21T17:27:34.425Z</time>
      </trkpt>
      <trkpt lat="47.464091" lon="8.160172">
        <ele>353.372852</ele>
        <time>2021-11-21T17:27:40.891Z</time>
      </trkpt>
      <trkpt lat="47.464241" lon="8.160297">
        <ele>353.280383</ele>
        <time>2021-11-21T17:27:43.743Z</time>
      </trkpt>
      <trkpt lat="47.464401" lon="8.160419">
        <ele>353.183704</ele>
        <time>2021-11-21T17:27:46.888Z</time>
      </trkpt>
      <trkpt lat="47.464571" lon="8.160519">
        <ele>353.085444</ele>
        <time>2021-11-21T17:27:50.490Z</time>
      </trkpt>
      <trkpt lat="47.464837" lon="8.160646">
        <ele>353.361010</ele>
        <time>2021-11-21T17:27:56.041Z</time>
      </trkpt>
      <trkpt lat="47.464997" lon="8.160739">
        <ele>353.546193</ele>
        <time>2021-11-21T17:27:59.623Z</time>
      </trkpt>
      <trkpt lat="47.465263" lon="8.160874">
        <ele>353.849127</ele>
        <time>2021-11-21T17:28:05.162Z</time>
      </trkpt>
      <trkpt lat="47.465513" lon="8.161012">
        <ele>354.136570</ele>
        <time>2021-11-21T17:28:10.489Z</time>
      </trkpt>
      <trkpt lat="47.465742" lon="8.161135">
        <ele>354.399011</ele>
        <time>2021-11-21T17:28:15.449Z</time>
      </trkpt>
      <trkpt lat="47.466049" lon="8.161288">
        <ele>354.747979</ele>
        <time>2021-11-21T17:28:21.514Z</time>
      </trkpt>
      <trkpt lat="47.466606" lon="8.161586">
        <ele>355.311886</ele>
        <time>2021-11-21T17:28:32.066Z</time>
      </trkpt>
      <trkpt lat="47.466809" lon="8.161700">
        <ele>355.499117</ele>
        <time>2021-11-21T17:28:35.861Z</time>
      </trkpt>
      <trkpt lat="47.466897" lon="8.161739">
        <ele>355.578329</ele>
        <time>2021-11-21T17:28:37.683Z</time>
      </trkpt>
      <trkpt lat="47.467007" lon="8.161797">
        <ele>355.679024</ele>
        <time>2021-11-21T17:28:39.807Z</time>
      </trkpt>
      <trkpt lat="47.467139" lon="8.161863">
        <ele>355.799170</ele>
        <time>2021-11-21T17:28:42.307Z</time>
      </trkpt>
      <trkpt lat="47.467266" lon="8.161918">
        <ele>355.913275</ele>
        <time>2021-11-21T17:28:44.925Z</time>
      </trkpt>
      <trkpt lat="47.467403" lon="8.161980">
        <ele>356.036811</ele>
        <time>2021-11-21T17:28:47.579Z</time>
      </trkpt>
      <trkpt lat="47.468105" lon="8.162227">
        <ele>356.591428</ele>
        <time>2021-11-21T17:29:00.898Z</time>
      </trkpt>
      <trkpt lat="47.468199" lon="8.162263">
        <ele>356.614715</ele>
        <time>2021-11-21T17:29:02.502Z</time>
      </trkpt>
      <trkpt lat="47.468278" lon="8.162300">
        <ele>356.634588</ele>
        <time>2021-11-21T17:29:04.074Z</time>
      </trkpt>
      <trkpt lat="47.468573" lon="8.162469">
        <ele>356.710456</ele>
        <time>2021-11-21T17:29:09.495Z</time>
      </trkpt>
      <trkpt lat="47.468812" lon="8.162640">
        <ele>356.774127</ele>
        <time>2021-11-21T17:29:13.964Z</time>
      </trkpt>
      <trkpt lat="47.468949" lon="8.162736">
        <ele>356.810483</ele>
        <time>2021-11-21T17:29:15.974Z</time>
      </trkpt>
      <trkpt lat="47.469024" lon="8.162801">
        <ele>356.831329</ele>
        <time>2021-11-21T17:29:17.371Z</time>
      </trkpt>
      <trkpt lat="47.469218" lon="8.163000">
        <ele>356.887946</ele>
        <time>2021-11-21T17:29:20.668Z</time>
      </trkpt>
      <trkpt lat="47.469385" lon="8.163184">
        <ele>356.937885</ele>
        <time>2021-11-21T17:29:24.167Z</time>
      </trkpt>
      <trkpt lat="47.469504" lon="8.163311">
        <ele>356.973076</ele>
        <time>2021-11-21T17:29:26.090Z</time>
      </trkpt>
      <trkpt lat="47.470057" lon="8.163889">
        <ele>356.276561</ele>
        <time>2021-11-21T17:29:35.483Z</time>
      </trkpt>
      <trkpt lat="47.470101" lon="8.163935">
        <ele>356.209475</ele>
        <time>2021-11-21T17:29:36.033Z</time>
      </trkpt>
      <trkpt lat="47.470281" lon="8.164129">
        <ele>355.932175</ele>
        <time>2021-11-21T17:29:38.956Z</time>
      </trkpt>
      <trkpt lat="47.470384" lon="8.164260">
        <ele>355.763044</ele>
        <time>2021-11-21T17:29:40.412Z</time>
      </trkpt>
      <trkpt lat="47.470426" lon="8.164313">
        <ele>355.694306</ele>
        <time>2021-11-21T17:29:41.091Z</time>
      </trkpt>
      <trkpt lat="47.470550" lon="8.164436">
        <ele>355.508412</ele>
        <time>2021-11-21T17:29:42.927Z</time>
      </trkpt>
      <trkpt lat="47.471054" lon="8.164977">
        <ele>354.708080</ele>
        <time>2021-11-21T17:29:49.745Z</time>
      </trkpt>
      <trkpt lat="47.471193" lon="8.165194">
        <ele>354.195719</ele>
        <time>2021-11-21T17:29:51.942Z</time>
      </trkpt>
      <trkpt lat="47.471273" lon="8.165343">
        <ele>353.869605</ele>
        <time>2021-11-21T17:29:53.283Z</time>
      </trkpt>
      <trkpt lat="47.471314" lon="8.165430">
        <ele>353.687841</ele>
        <time>2021-11-21T17:29:54.093Z</time>
      </trkpt>
      <trkpt lat="47.471485" lon="8.165795">
        <ele>352.926736</ele>
        <time>2021-11-21T17:29:57.246Z</time>
      </trkpt>
      <trkpt lat="47.471637" lon="8.166140">
        <ele>352.220960</ele>
        <time>2021-11-21T17:30:00.138Z</time>
      </trkpt>
      <trkpt lat="47.471739" lon="8.166341">
        <ele>351.790211</ele>
        <time>2021-11-21T17:30:01.933Z</time>
      </trkpt>
      <trkpt lat="47.471800" lon="8.166447">
        <ele>351.551628</ele>
        <time>2021-11-21T17:30:02.875Z</time>
      </trkpt>
      <trkpt lat="47.472023" lon="8.166799">
        <ele>350.724828</ele>
        <time>2021-11-21T17:30:06.247Z</time>
      </trkpt>
      <trkpt lat="47.472230" lon="8.167059">
        <ele>350.078828</ele>
        <time>2021-11-21T17:30:09.117Z</time>
      </trkpt>
      <trkpt lat="47.472348" lon="8.167193">
        <ele>349.801467</ele>
        <time>2021-11-21T17:30:10.620Z</time>
      </trkpt>
      <trkpt lat="47.472433" lon="8.167289">
        <ele>349.602076</ele>
        <time>2021-11-21T17:30:11.784Z</time>
      </trkpt>
      <trkpt lat="47.472552" lon="8.167429">
        <ele>349.318591</ele>
        <time>2021-11-21T17:30:13.387Z</time>
      </trkpt>
      <trkpt lat="47.472685" lon="8.167581">
        <ele>349.005230</ele>
        <time>2021-11-21T17:30:15.198Z</time>
      </trkpt>
      <trkpt lat="47.472797" lon="8.167699">
        <ele>348.748858</ele>
        <time>2021-11-21T17:30:16.729Z</time>
      </trkpt>
      <trkpt lat="47.472952" lon="8.167862">
        <ele>348.394280</ele>
        <time>2021-11-21T17:30:18.800Z</time>
      </trkpt>
      <trkpt lat="47.473013" lon="8.167869">
        <ele>348.280202</ele>
        <time>2021-11-21T17:30:19.843Z</time>
      </trkpt>
      <trkpt lat="47.473053" lon="8.167881">
        <ele>348.204102</ele>
        <time>2021-11-21T17:30:20.532Z</time>
      </trkpt>
      <trkpt lat="47.473133" lon="8.168000">
        <ele>347.992577</ele>
        <time>2021-11-21T17:30:22.316Z</time>
      </trkpt>
      <trkpt lat="47.473676" lon="8.168976">
        <ele>346.638682</ele>
        <time>2021-11-21T17:30:36.799Z</time>
      </trkpt>
      <trkpt lat="47.473803" lon="8.169285">
        <ele>346.428611</ele>
        <time>2021-11-21T17:30:41.091Z</time>
      </trkpt>
      <trkpt lat="47.474047" lon="8.169957">
        <ele>345.985500</ele>
        <time>2021-11-21T17:30:50.351Z</time>
      </trkpt>
      <trkpt lat="47.474153" lon="8.170275">
        <ele>345.779539</ele>
        <time>2021-11-21T17:30:54.691Z</time>
      </trkpt>
      <trkpt lat="47.474221" lon="8.170494">
        <ele>345.639546</ele>
        <time>2021-11-21T17:30:57.571Z</time>
      </trkpt>
      <trkpt lat="47.474539" lon="8.171563">
        <ele>344.990016</ele>
        <time>2021-11-21T17:31:11.662Z</time>
      </trkpt>
      <trkpt lat="47.474901" lon="8.173178">
        <ele>344.086595</ele>
        <time>2021-11-21T17:31:31.949Z</time>
      </trkpt>
      <trkpt lat="47.475162" lon="8.173896">
        <ele>343.749302</ele>
        <time>2021-11-21T17:31:41.954Z</time>
      </trkpt>
      <trkpt lat="47.475271" lon="8.174227">
        <ele>343.634738</ele>
        <time>2021-11-21T17:31:46.494Z</time>
      </trkpt>
      <trkpt lat="47.475282" lon="8.174260">
        <ele>343.623290</ele>
        <time>2021-11-21T17:31:46.901Z</time>
      </trkpt>
      <trkpt lat="47.475523" lon="8.175441">
        <ele>343.239441</ele>
        <time>2021-11-21T17:32:02.587Z</time>
      </trkpt>
      <trkpt lat="47.475525" lon="8.175458">
        <ele>343.234072</ele>
        <time>2021-11-21T17:32:02.776Z</time>
      </trkpt>
      <trkpt lat="47.475739" lon="8.177191">
        <ele>342.934007</ele>
        <time>2021-11-21T17:32:26.109Z</time>
      </trkpt>
      <trkpt lat="47.475956" lon="8.178133">
        <ele>342.831596</ele>
        <time>2021-11-21T17:32:39.299Z</time>
      </trkpt>
      <trkpt lat="47.476282" lon="8.179102">
        <ele>342.654483</ele>
        <time>2021-11-21T17:32:53.943Z</time>
      </trkpt>
      <trkpt lat="47.476781" lon="8.180127">
        <ele>342.387887</ele>
        <time>2021-11-21T17:33:09.969Z</time>
      </trkpt>
      <trkpt lat="47.476918" lon="8.180357">
        <ele>342.323186</ele>
        <time>2021-11-21T17:33:14.094Z</time>
      </trkpt>
      <trkpt lat="47.477082" lon="8.180599">
        <ele>342.250862</ele>
        <time>2021-11-21T17:33:18.229Z</time>
      </trkpt>
      <trkpt lat="47.478429" lon="8.182558">
        <ele>342.072322</ele>
        <time>2021-11-21T17:33:54.489Z</time>
      </trkpt>
      <trkpt lat="47.479213" lon="8.184106">
        <ele>343.767356</ele>
        <time>2021-11-21T17:34:28.276Z</time>
      </trkpt>
      <trkpt lat="47.479295" lon="8.184300">
        <ele>343.968687</ele>
        <time>2021-11-21T17:34:32.646Z</time>
      </trkpt>
      <trkpt lat="47.479468" lon="8.184722">
        <ele>344.402965</ele>
        <time>2021-11-21T17:34:41.973Z</time>
      </trkpt>
      <trkpt lat="47.479933" lon="8.185831">
        <ele>345.708275</ele>
        <time>2021-11-21T17:35:05.051Z</time>
      </trkpt>
      <trkpt lat="47.479942" lon="8.185960">
        <ele>345.838127</ele>
        <time>2021-11-21T17:35:08.044Z</time>
      </trkpt>
      <trkpt lat="47.480028" lon="8.186146">
        <ele>346.063778</ele>
        <time>2021-11-21T17:35:10.708Z</time>
      </trkpt>
      <trkpt lat="47.480145" lon="8.186350">
        <ele>346.331674</ele>
        <time>2021-11-21T17:35:14.922Z</time>
      </trkpt>
      <trkpt lat="47.480217" lon="8.186474">
        <ele>346.495362</ele>
        <time>2021-11-21T17:35:16.962Z</time>
      </trkpt>
      <trkpt lat="47.480420" lon="8.186745">
        <ele>346.900427</ele>
        <time>2021-11-21T17:35:22.710Z</time>
      </trkpt>
      <trkpt lat="47.480560" lon="8.186929">
        <ele>347.158983</ele>
        <time>2021-11-21T17:35:25.733Z</time>
      </trkpt>
      <trkpt lat="47.480690" lon="8.187084">
        <ele>347.359485</ele>
        <time>2021-11-21T17:35:29.382Z</time>
      </trkpt>
      <trkpt lat="47.480780" lon="8.187172">
        <ele>347.489038</ele>
        <time>2021-11-21T17:35:30.824Z</time>
      </trkpt>
      <trkpt lat="47.480852" lon="8.187252">
        <ele>347.597171</ele>
        <time>2021-11-21T17:35:32.472Z</time>
      </trkpt>
      <trkpt lat="47.481089" lon="8.187488">
        <ele>347.940246</ele>
        <time>2021-11-21T17:35:37.808Z</time>
      </trkpt>
      <trkpt lat="47.481193" lon="8.187591">
        <ele>348.090540</ele>
        <time>2021-11-21T17:35:40.237Z</time>
      </trkpt>
      <trkpt lat="47.481292" lon="8.187686">
        <ele>348.232247</ele>
        <time>2021-11-21T17:35:42.677Z</time>
      </trkpt>
      <trkpt lat="47.481382" lon="8.187787">
        <ele>348.367902</ele>
        <time>2021-11-21T17:35:44.272Z</time>
      </trkpt>
      <trkpt lat="47.481424" lon="8.187833">
        <ele>348.430656</ele>
        <time>2021-11-21T17:35:45.330Z</time>
      </trkpt>
      <trkpt lat="47.481651" lon="8.188249">
        <ele>348.864612</ele>
        <time>2021-11-21T17:35:52.844Z</time>
      </trkpt>
      <trkpt lat="47.481685" lon="8.188343">
        <ele>348.951145</ele>
        <time>2021-11-21T17:35:54.534Z</time>
      </trkpt>
      <trkpt lat="47.481788" lon="8.188778">
        <ele>349.413584</ele>
        <time>2021-11-21T17:36:00.852Z</time>
      </trkpt>
      <trkpt lat="47.481812" lon="8.188865">
        <ele>349.567347</ele>
        <time>2021-11-21T17:36:02.407Z</time>
      </trkpt>
      <trkpt lat="47.481839" lon="8.188968">
        <ele>349.748123</ele>
        <time>2021-11-21T17:36:04.273Z</time>
      </trkpt>
      <trkpt lat="47.481979" lon="8.189239">
        <ele>350.306286</ele>
        <time>2021-11-21T17:36:08.706Z</time>
      </trkpt>
      <trkpt lat="47.482019" lon="8.189306">
        <ele>350.452571</ele>
        <time>2021-11-21T17:36:10.484Z</time>
      </trkpt>
      <trkpt lat="47.482064" lon="8.189374">
        <ele>350.608303</ele>
        <time>2021-11-21T17:36:12.325Z</time>
      </trkpt>
      <trkpt lat="47.482198" lon="8.189576">
        <ele>351.071465</ele>
        <time>2021-11-21T17:36:16.607Z</time>
      </trkpt>
      <trkpt lat="47.482387" lon="8.189878">
        <ele>351.744971</ele>
        <time>2021-11-21T17:36:23.041Z</time>
      </trkpt>
      <trkpt lat="47.482486" lon="8.190057">
        <ele>352.123451</ele>
        <time>2021-11-21T17:36:27.488Z</time>
      </trkpt>
      <trkpt lat="47.482572" lon="8.190217">
        <ele>352.457969</ele>
        <time>2021-11-21T17:36:30.997Z</time>
      </trkpt>
      <trkpt lat="47.482607" lon="8.190286">
        <ele>352.599139</ele>
        <time>2021-11-21T17:36:32.276Z</time>
      </trkpt>
      <trkpt lat="47.482743" lon="8.190529">
        <ele>353.115407</ele>
        <time>2021-11-21T17:36:38.173Z</time>
      </trkpt>
      <trkpt lat="47.482845" lon="8.190599">
        <ele>353.387642</ele>
        <time>2021-11-21T17:36:41.047Z</time>
      </trkpt>
      <trkpt lat="47.482867" lon="8.190600">
        <ele>353.440934</ele>
        <time>2021-11-21T17:36:41.433Z</time>
      </trkpt>
      <trkpt lat="47.482872" lon="8.190636">
        <ele>353.501072</ele>
        <time>2021-11-21T17:36:42.263Z</time>
      </trkpt>
      <trkpt lat="47.482949" lon="8.190712">
        <ele>353.825606</ele>
        <time>2021-11-21T17:36:44.971Z</time>
      </trkpt>
      <trkpt lat="47.482973" lon="8.190705">
        <ele>353.929918</ele>
        <time>2021-11-21T17:36:45.622Z</time>
      </trkpt>
      <trkpt lat="47.482993" lon="8.190689">
        <ele>354.026871</ele>
        <time>2021-11-21T17:36:46.525Z</time>
      </trkpt>
      <trkpt lat="47.483025" lon="8.190604">
        <ele>354.307272</ele>
        <time>2021-11-21T17:36:48.232Z</time>
      </trkpt>
      <trkpt lat="47.483023" lon="8.190571">
        <ele>354.402755</ele>
        <time>2021-11-21T17:36:48.997Z</time>
      </trkpt>
      <trkpt lat="47.483016" lon="8.190541">
        <ele>354.494218</ele>
        <time>2021-11-21T17:36:49.434Z</time>
      </trkpt>
      <trkpt lat="47.482967" lon="8.190482">
        <ele>354.763607</ele>
        <time>2021-11-21T17:36:51.026Z</time>
      </trkpt>
      <trkpt lat="47.482945" lon="8.190478">
        <ele>354.858127</ele>
        <time>2021-11-21T17:36:51.444Z</time>
      </trkpt>
      <trkpt lat="47.482944" lon="8.190385">
        <ele>355.126174</ele>
        <time>2021-11-21T17:36:53.853Z</time>
      </trkpt>
      <trkpt lat="47.482941" lon="8.190185">
        <ele>355.702687</ele>
        <time>2021-11-21T17:36:57.637Z</time>
      </trkpt>
      <trkpt lat="47.482930" lon="8.189498">
        <ele>357.683078</ele>
        <time>2021-11-21T17:37:11.102Z</time>
      </trkpt>
      <trkpt lat="47.482931" lon="8.189437">
        <ele>357.858923</ele>
        <time>2021-11-21T17:37:12.442Z</time>
      </trkpt>
      <trkpt lat="47.482934" lon="8.189340">
        <ele>358.138755</ele>
        <time>2021-11-21T17:37:14.846Z</time>
      </trkpt>
      <trkpt lat="47.482943" lon="8.188839">
        <ele>359.583075</ele>
        <time>2021-11-21T17:37:26.342Z</time>
      </trkpt>
      <trkpt lat="47.482956" lon="8.187807">
        <ele>363.070316</ele>
        <time>2021-11-21T17:37:51.481Z</time>
      </trkpt>
      <trkpt lat="47.482953" lon="8.187593">
        <ele>363.931457</ele>
        <time>2021-11-21T17:37:57.735Z</time>
      </trkpt>
      <trkpt lat="47.482951" lon="8.187188">
        <ele>365.560880</ele>
        <time>2021-11-21T17:38:08.890Z</time>
      </trkpt>
      <trkpt lat="47.482934" lon="8.186840">
        <ele>366.964593</ele>
        <time>2021-11-21T17:38:18.257Z</time>
      </trkpt>
      <trkpt lat="47.482902" lon="8.186578">
        <ele>368.035737</ele>
        <time>2021-11-21T17:38:26.056Z</time>
      </trkpt>
      <trkpt lat="47.482854" lon="8.186196">
        <ele>369.598925</ele>
        <time>2021-11-21T17:38:35.671Z</time>
      </trkpt>
      <trkpt lat="47.482841" lon="8.186124">
        <ele>369.898754</ele>
        <time>2021-11-21T17:38:38.393Z</time>
      </trkpt>
      <trkpt lat="47.482827" lon="8.186042">
        <ele>370.239018</ele>
        <time>2021-11-21T17:38:40.813Z</time>
      </trkpt>
      <trkpt lat="47.482775" lon="8.185779">
        <ele>371.341466</ele>
        <time>2021-11-21T17:38:47.231Z</time>
      </trkpt>
      <trkpt lat="47.482766" lon="8.185743">
        <ele>371.495892</ele>
        <time>2021-11-21T17:38:48.337Z</time>
      </trkpt>
      <trkpt lat="47.482705" lon="8.185476">
        <ele>372.634506</ele>
        <time>2021-11-21T17:38:55.837Z</time>
      </trkpt>
      <trkpt lat="47.482596" lon="8.185042">
        <ele>374.510536</ele>
        <time>2021-11-21T17:39:06.933Z</time>
      </trkpt>
      <trkpt lat="47.482617" lon="8.185031">
        <ele>374.644100</ele>
        <time>2021-11-21T17:39:07.890Z</time>
      </trkpt>
      <trkpt lat="47.482657" lon="8.184949">
        <ele>375.053867</ele>
        <time>2021-11-21T17:39:09.600Z</time>
      </trkpt>
      <trkpt lat="47.482658" lon="8.184915">
        <ele>375.191762</ele>
        <time>2021-11-21T17:39:10.553Z</time>
      </trkpt>
      <trkpt lat="47.482698" lon="8.184890">
        <ele>375.452101</ele>
        <time>2021-11-21T17:39:11.791Z</time>
      </trkpt>
      <trkpt lat="47.482741" lon="8.184879">
        <ele>375.713735</ele>
        <time>2021-11-21T17:39:13.206Z</time>
      </trkpt>
      <trkpt lat="47.482780" lon="8.184888">
        <ele>375.950389</ele>
        <time>2021-11-21T17:39:14.103Z</time>
      </trkpt>
      <trkpt lat="47.483230" lon="8.185723">
        <ele>380.277752</ele>
        <time>2021-11-21T17:39:44.568Z</time>
      </trkpt>
      <trkpt lat="47.483305" lon="8.185862">
        <ele>380.998449</ele>
        <time>2021-11-21T17:39:49.397Z</time>
      </trkpt>
      <trkpt lat="47.483545" lon="8.186425">
        <ele>383.508876</ele>
        <time>2021-11-21T17:40:08.209Z</time>
      </trkpt>
      <trkpt lat="47.483714" lon="8.186627">
        <ele>384.552992</ele>
        <time>2021-11-21T17:40:15.629Z</time>
      </trkpt>
      <trkpt lat="47.483816" lon="8.186677">
        <ele>385.069414</ele>
        <time>2021-11-21T17:40:19.763Z</time>
      </trkpt>
      <trkpt lat="47.483906" lon="8.186674">
        <ele>385.502074</ele>
        <time>2021-11-21T17:40:22.991Z</time>
      </trkpt>
      <trkpt lat="47.484108" lon="8.186629">
        <ele>386.483849</ele>
        <time>2021-11-21T17:40:29.619Z</time>
      </trkpt>
      <trkpt lat="47.484330" lon="8.186531">
        <ele>387.597271</ele>
        <time>2021-11-21T17:40:37.991Z</time>
      </trkpt>
      <trkpt lat="47.484495" lon="8.186468">
        <ele>388.416253</ele>
        <time>2021-11-21T17:40:43.487Z</time>
      </trkpt>
      <trkpt lat="47.484801" lon="8.186390">
        <ele>389.908584</ele>
        <time>2021-11-21T17:40:53.574Z</time>
      </trkpt>
      <trkpt lat="47.484895" lon="8.186379">
        <ele>390.361769</ele>
        <time>2021-11-21T17:40:57.000Z</time>
      </trkpt>
      <trkpt lat="47.485127" lon="8.186353">
        <ele>391.412254</ele>
        <time>2021-11-21T17:41:04.088Z</time>
      </trkpt>
      <trkpt lat="47.485927" lon="8.186401">
        <ele>392.038319</ele>
        <time>2021-11-21T17:41:23.585Z</time>
      </trkpt>
      <trkpt lat="47.486547" lon="8.186524">
        <ele>392.527457</ele>
        <time>2021-11-21T17:41:31.363Z</time>
      </trkpt>
      <trkpt lat="47.486653" lon="8.186563">
        <ele>392.612866</ele>
        <time>2021-11-21T17:41:32.615Z</time>
      </trkpt>
      <trkpt lat="47.486930" lon="8.186675">
        <ele>392.761445</ele>
        <time>2021-11-21T17:41:36.072Z</time>
      </trkpt>
      <trkpt lat="47.488342" lon="8.187194">
        <ele>391.188586</ele>
        <time>2021-11-21T17:41:53.532Z</time>
      </trkpt>
      <trkpt lat="47.488450" lon="8.187222">
        <ele>391.070052</ele>
        <time>2021-11-21T17:41:54.942Z</time>
      </trkpt>
      <trkpt lat="47.488692" lon="8.187285">
        <ele>390.845601</ele>
        <time>2021-11-21T17:41:57.992Z</time>
      </trkpt>
      <trkpt lat="47.488896" lon="8.187332">
        <ele>390.784702</ele>
        <time>2021-11-21T17:42:00.606Z</time>
      </trkpt>
      <trkpt lat="47.489072" lon="8.187373">
        <ele>390.732148</ele>
        <time>2021-11-21T17:42:02.773Z</time>
      </trkpt>
      <trkpt lat="47.489682" lon="8.187447">
        <ele>390.551613</ele>
        <time>2021-11-21T17:42:10.557Z</time>
      </trkpt>
      <trkpt lat="47.490084" lon="8.187497">
        <ele>390.432617</ele>
        <time>2021-11-21T17:42:16.350Z</time>
      </trkpt>
      <trkpt lat="47.490752" lon="8.187494">
        <ele>390.810394</ele>
        <time>2021-11-21T17:42:27.942Z</time>
      </trkpt>
      <trkpt lat="47.490871" lon="8.187485">
        <ele>390.988062</ele>
        <time>2021-11-21T17:42:30.196Z</time>
      </trkpt>
      <trkpt lat="47.491855" lon="8.187455">
        <ele>392.455579</ele>
        <time>2021-11-21T17:42:51.309Z</time>
      </trkpt>
      <trkpt lat="47.491946" lon="8.187452">
        <ele>392.591300</ele>
        <time>2021-11-21T17:42:53.334Z</time>
      </trkpt>
      <trkpt lat="47.492366" lon="8.187431">
        <ele>393.101084</ele>
        <time>2021-11-21T17:43:03.368Z</time>
      </trkpt>
      <trkpt lat="47.492518" lon="8.187437">
        <ele>393.198925</ele>
        <time>2021-11-21T17:43:07.284Z</time>
      </trkpt>
      <trkpt lat="47.492645" lon="8.187454">
        <ele>393.280977</ele>
        <time>2021-11-21T17:43:10.465Z</time>
      </trkpt>
      <trkpt lat="47.492740" lon="8.187474">
        <ele>393.342721</ele>
        <time>2021-11-21T17:43:12.698Z</time>
      </trkpt>
      <trkpt lat="47.492807" lon="8.187501">
        <ele>393.387403</ele>
        <time>2021-11-21T17:43:14.454Z</time>
      </trkpt>
      <trkpt lat="47.492888" lon="8.187533">
        <ele>393.441348</ele>
        <time>2021-11-21T17:43:16.453Z</time>
      </trkpt>
      <trkpt lat="47.493158" lon="8.187708">
        <ele>393.631012</ele>
        <time>2021-11-21T17:43:22.141Z</time>
      </trkpt>
      <trkpt lat="47.493200" lon="8.187747">
        <ele>393.662916</ele>
        <time>2021-11-21T17:43:23.200Z</time>
      </trkpt>
      <trkpt lat="47.493257" lon="8.187795">
        <ele>393.705115</ele>
        <time>2021-11-21T17:43:24.580Z</time>
      </trkpt>
      <trkpt lat="47.493328" lon="8.187887">
        <ele>393.765836</ele>
        <time>2021-11-21T17:43:25.787Z</time>
      </trkpt>
      <trkpt lat="47.493564" lon="8.188192">
        <ele>393.967441</ele>
        <time>2021-11-21T17:43:30.183Z</time>
      </trkpt>
      <trkpt lat="47.493761" lon="8.188582">
        <ele>394.118153</ele>
        <time>2021-11-21T17:43:34.140Z</time>
      </trkpt>
      <trkpt lat="47.493907" lon="8.188904">
        <ele>393.191819</ele>
        <time>2021-11-21T17:43:37.063Z</time>
      </trkpt>
      <trkpt lat="47.493941" lon="8.188998">
        <ele>392.937122</ele>
        <time>2021-11-21T17:43:37.767Z</time>
      </trkpt>
      <trkpt lat="47.494056" lon="8.188984">
        <ele>392.529172</ele>
        <time>2021-11-21T17:43:38.904Z</time>
      </trkpt>
      <trkpt lat="47.494332" lon="8.188863">
        <ele>391.511478</ele>
        <time>2021-11-21T17:43:41.883Z</time>
      </trkpt>
      <trkpt lat="47.494505" lon="8.188702">
        <ele>390.788978</ele>
        <time>2021-11-21T17:43:44.025Z</time>
      </trkpt>
      <trkpt lat="47.494597" lon="8.188575">
        <ele>390.344197</ele>
        <time>2021-11-21T17:43:45.215Z</time>
      </trkpt>
      <trkpt lat="47.494679" lon="8.188658">
        <ele>389.992977</ele>
        <time>2021-11-21T17:43:46.148Z</time>
      </trkpt>
      <trkpt lat="47.494815" lon="8.188799">
        <ele>389.405922</ele>
        <time>2021-11-21T17:43:47.852Z</time>
      </trkpt>
      <trkpt lat="47.494863" lon="8.188872">
        <ele>389.162598</ele>
        <time>2021-11-21T17:43:48.465Z</time>
      </trkpt>
      <trkpt lat="47.494913" lon="8.188947">
        <ele>388.910913</ele>
        <time>2021-11-21T17:43:49.112Z</time>
      </trkpt>
      <trkpt lat="47.494988" lon="8.189062">
        <ele>388.529111</ele>
        <time>2021-11-21T17:43:50.165Z</time>
      </trkpt>
      <trkpt lat="47.495046" lon="8.189116">
        <ele>388.286857</ele>
        <time>2021-11-21T17:43:50.854Z</time>
      </trkpt>
      <trkpt lat="47.495145" lon="8.189166">
        <ele>387.917030</ele>
        <time>2021-11-21T17:43:51.788Z</time>
      </trkpt>
      <trkpt lat="47.495322" lon="8.189227">
        <ele>387.127045</ele>
        <time>2021-11-21T17:43:53.479Z</time>
      </trkpt>
      <trkpt lat="47.495476" lon="8.189410">
        <ele>386.236791</ele>
        <time>2021-11-21T17:43:55.291Z</time>
      </trkpt>
      <trkpt lat="47.495598" lon="8.189610">
        <ele>385.416132</ele>
        <time>2021-11-21T17:43:57.055Z</time>
      </trkpt>
      <trkpt lat="47.495897" lon="8.190097">
        <ele>383.411991</ele>
        <time>2021-11-21T17:44:01.244Z</time>
      </trkpt>
      <trkpt lat="47.495939" lon="8.190175">
        <ele>383.108217</ele>
        <time>2021-11-21T17:44:01.845Z</time>
      </trkpt>
      <trkpt lat="47.496024" lon="8.190340">
        <ele>382.476279</ele>
        <time>2021-11-21T17:44:03.211Z</time>
      </trkpt>
      <trkpt lat="47.496239" lon="8.190790">
        <ele>380.797697</ele>
        <time>2021-11-21T17:44:06.825Z</time>
      </trkpt>
      <trkpt lat="47.496376" lon="8.191087">
        <ele>379.702869</ele>
        <time>2021-11-21T17:44:09.297Z</time>
      </trkpt>
      <trkpt lat="47.496589" lon="8.191608">
        <ele>379.597400</ele>
        <time>2021-11-21T17:44:13.546Z</time>
      </trkpt>
      <trkpt lat="47.496742" lon="8.191983">
        <ele>379.521528</ele>
        <time>2021-11-21T17:44:16.754Z</time>
      </trkpt>
      <trkpt lat="47.497025" lon="8.192667">
        <ele>379.382615</ele>
        <time>2021-11-21T17:44:23.609Z</time>
      </trkpt>
      <trkpt lat="47.497613" lon="8.193902">
        <ele>381.988000</ele>
        <time>2021-11-21T17:44:51.466Z</time>
      </trkpt>
      <trkpt lat="47.498027" lon="8.194688">
        <ele>385.909552</ele>
        <time>2021-11-21T17:45:19.901Z</time>
      </trkpt>
      <trkpt lat="47.498263" lon="8.195082">
        <ele>387.981398</ele>
        <time>2021-11-21T17:45:35.571Z</time>
      </trkpt>
      <trkpt lat="47.498334" lon="8.195192">
        <ele>388.579996</ele>
        <time>2021-11-21T17:45:41.614Z</time>
      </trkpt>
      <trkpt lat="47.498888" lon="8.196086">
        <ele>392.508803</ele>
        <time>2021-11-21T17:46:14.897Z</time>
      </trkpt>
      <trkpt lat="47.499078" lon="8.196466">
        <ele>393.936935</ele>
        <time>2021-11-21T17:46:27.237Z</time>
      </trkpt>
      <trkpt lat="47.499204" lon="8.196808">
        <ele>395.113719</ele>
        <time>2021-11-21T17:46:36.175Z</time>
      </trkpt>
      <trkpt lat="47.499315" lon="8.197062">
        <ele>396.027561</ele>
        <time>2021-11-21T17:46:41.685Z</time>
      </trkpt>
      <trkpt lat="47.499715" lon="8.198087">
        <ele>397.783315</ele>
        <time>2021-11-21T17:46:55.644Z</time>
      </trkpt>
      <trkpt lat="47.499995" lon="8.198983">
        <ele>397.821682</ele>
        <time>2021-11-21T17:47:04.921Z</time>
      </trkpt>
      <trkpt lat="47.500087" lon="8.199186">
        <ele>397.831182</ele>
        <time>2021-11-21T17:47:07.430Z</time>
      </trkpt>
      <trkpt lat="47.500603" lon="8.200224">
        <ele>396.950690</ele>
        <time>2021-11-21T17:47:19.528Z</time>
      </trkpt>
      <trkpt lat="47.500775" lon="8.200751">
        <ele>395.810695</ele>
        <time>2021-11-21T17:47:24.148Z</time>
      </trkpt>
      <trkpt lat="47.500893" lon="8.201244">
        <ele>394.791951</ele>
        <time>2021-11-21T17:47:28.025Z</time>
      </trkpt>
      <trkpt lat="47.501006" lon="8.201778">
        <ele>393.702006</ele>
        <time>2021-11-21T17:47:31.856Z</time>
      </trkpt>
      <trkpt lat="47.501173" lon="8.202379">
        <ele>392.007150</ele>
        <time>2021-11-21T17:47:35.893Z</time>
      </trkpt>
      <trkpt lat="47.501309" lon="8.202669">
        <ele>390.095761</ele>
        <time>2021-11-21T17:47:38.002Z</time>
      </trkpt>
      <trkpt lat="47.501613" lon="8.203066">
        <ele>386.846726</ele>
        <time>2021-11-21T17:47:41.539Z</time>
      </trkpt>
      <trkpt lat="47.501822" lon="8.203175">
        <ele>385.070788</ele>
        <time>2021-11-21T17:47:43.467Z</time>
      </trkpt>
      <trkpt lat="47.502295" lon="8.203209">
        <ele>381.275503</ele>
        <time>2021-11-21T17:47:47.591Z</time>
      </trkpt>
      <trkpt lat="47.502537" lon="8.203211">
        <ele>379.335983</ele>
        <time>2021-11-21T17:47:49.727Z</time>
      </trkpt>
      <trkpt lat="47.502665" lon="8.203221">
        <ele>378.308710</ele>
        <time>2021-11-21T17:47:50.848Z</time>
      </trkpt>
      <trkpt lat="47.502756" lon="8.203224">
        <ele>377.884657</ele>
        <time>2021-11-21T17:47:51.645Z</time>
      </trkpt>
      <trkpt lat="47.503303" lon="8.203265">
        <ele>375.458034</ele>
        <time>2021-11-21T17:47:56.554Z</time>
      </trkpt>
      <trkpt lat="47.503897" lon="8.203361">
        <ele>372.810640</ele>
        <time>2021-11-21T17:48:02.172Z</time>
      </trkpt>
      <trkpt lat="47.504468" lon="8.203676">
        <ele>370.390537</ele>
        <time>2021-11-21T17:48:09.390Z</time>
      </trkpt>
      <trkpt lat="47.504633" lon="8.203821">
        <ele>370.843877</ele>
        <time>2021-11-21T17:48:13.152Z</time>
      </trkpt>
      <trkpt lat="47.505068" lon="8.204223">
        <ele>372.055419</ele>
        <time>2021-11-21T17:48:24.926Z</time>
      </trkpt>
      <trkpt lat="47.505194" lon="8.204340">
        <ele>372.406821</ele>
        <time>2021-11-21T17:48:29.181Z</time>
      </trkpt>
      <trkpt lat="47.505408" lon="8.204499">
        <ele>372.972520</ele>
        <time>2021-11-21T17:48:35.493Z</time>
      </trkpt>
      <trkpt lat="47.505679" lon="8.204583">
        <ele>373.626661</ele>
        <time>2021-11-21T17:48:43.372Z</time>
      </trkpt>
      <trkpt lat="47.505840" lon="8.204601">
        <ele>374.008118</ele>
        <time>2021-11-21T17:48:48.663Z</time>
      </trkpt>
      <trkpt lat="47.506098" lon="8.204621">
        <ele>374.621942</ele>
        <time>2021-11-21T17:48:56.314Z</time>
      </trkpt>
      <trkpt lat="47.506134" lon="8.204624">
        <ele>374.711002</ele>
        <time>2021-11-21T17:48:57.591Z</time>
      </trkpt>
      <trkpt lat="47.506352" lon="8.204636">
        <ele>375.249826</ele>
        <time>2021-11-21T17:49:04.352Z</time>
      </trkpt>
      <trkpt lat="47.506628" lon="8.204650">
        <ele>375.931937</ele>
        <time>2021-11-21T17:49:13.008Z</time>
      </trkpt>
      <trkpt lat="47.506898" lon="8.204672">
        <ele>376.599837</ele>
        <time>2021-11-21T17:49:20.630Z</time>
      </trkpt>
      <trkpt lat="47.506966" lon="8.204678">
        <ele>376.768093</ele>
        <time>2021-11-21T17:49:22.494Z</time>
      </trkpt>
      <trkpt lat="47.507147" lon="8.204690">
        <ele>377.215605</ele>
        <time>2021-11-21T17:49:27.200Z</time>
      </trkpt>
      <trkpt lat="47.507368" lon="8.204685">
        <ele>377.761531</ele>
        <time>2021-11-21T17:49:32.692Z</time>
      </trkpt>
      <trkpt lat="47.507622" lon="8.204661">
        <ele>378.390179</ele>
        <time>2021-11-21T17:49:37.994Z</time>
      </trkpt>
      <trkpt lat="47.507870" lon="8.204624">
        <ele>378.963962</ele>
        <time>2021-11-21T17:49:42.380Z</time>
      </trkpt>
      <trkpt lat="47.508075" lon="8.204619">
        <ele>378.439596</ele>
        <time>2021-11-21T17:49:45.071Z</time>
      </trkpt>
      <trkpt lat="47.508195" lon="8.204634">
        <ele>378.131599</ele>
        <time>2021-11-21T17:49:46.613Z</time>
      </trkpt>
      <trkpt lat="47.508323" lon="8.204658">
        <ele>377.801619</ele>
        <time>2021-11-21T17:49:48.107Z</time>
      </trkpt>
      <trkpt lat="47.508511" lon="8.204738">
        <ele>377.301333</ele>
        <time>2021-11-21T17:49:50.203Z</time>
      </trkpt>
      <trkpt lat="47.508606" lon="8.204790">
        <ele>377.042292</ele>
        <time>2021-11-21T17:49:51.397Z</time>
      </trkpt>
      <trkpt lat="47.508689" lon="8.204837">
        <ele>376.815018</ele>
        <time>2021-11-21T17:49:52.322Z</time>
      </trkpt>
      <trkpt lat="47.509032" lon="8.205060">
        <ele>375.856918</ele>
        <time>2021-11-21T17:49:56.056Z</time>
      </trkpt>
      <trkpt lat="47.509149" lon="8.205132">
        <ele>375.532864</ele>
        <time>2021-11-21T17:49:57.253Z</time>
      </trkpt>
      <trkpt lat="47.509289" lon="8.205248">
        <ele>375.122545</ele>
        <time>2021-11-21T17:49:58.877Z</time>
      </trkpt>
      <trkpt lat="47.509425" lon="8.205362">
        <ele>374.722836</ele>
        <time>2021-11-21T17:50:00.355Z</time>
      </trkpt>
      <trkpt lat="47.509576" lon="8.205502">
        <ele>374.208668</ele>
        <time>2021-11-21T17:50:02.059Z</time>
      </trkpt>
      <trkpt lat="47.509781" lon="8.205702">
        <ele>373.269487</ele>
        <time>2021-11-21T17:50:04.365Z</time>
      </trkpt>
      <trkpt lat="47.509835" lon="8.205758">
        <ele>373.017275</ele>
        <time>2021-11-21T17:50:05.013Z</time>
      </trkpt>
      <trkpt lat="47.509957" lon="8.205884">
        <ele>372.448232</ele>
        <time>2021-11-21T17:50:06.440Z</time>
      </trkpt>
      <trkpt lat="47.510110" lon="8.206036">
        <ele>371.743375</ele>
        <time>2021-11-21T17:50:08.185Z</time>
      </trkpt>
      <trkpt lat="47.510310" lon="8.206228">
        <ele>370.831518</ele>
        <time>2021-11-21T17:50:10.473Z</time>
      </trkpt>
      <trkpt lat="47.510696" lon="8.206660">
        <ele>368.980464</ele>
        <time>2021-11-21T17:50:15.245Z</time>
      </trkpt>
      <trkpt lat="47.510746" lon="8.206745">
        <ele>368.689221</ele>
        <time>2021-11-21T17:50:15.999Z</time>
      </trkpt>
      <trkpt lat="47.510799" lon="8.206834">
        <ele>368.382641</ele>
        <time>2021-11-21T17:50:16.860Z</time>
      </trkpt>
      <trkpt lat="47.510868" lon="8.206975">
        <ele>367.932744</ele>
        <time>2021-11-21T17:50:18.035Z</time>
      </trkpt>
      <trkpt lat="47.511087" lon="8.207326">
        <ele>367.287637</ele>
        <time>2021-11-21T17:50:21.543Z</time>
      </trkpt>
      <trkpt lat="47.511287" lon="8.207539">
        <ele>367.034115</ele>
        <time>2021-11-21T17:50:24.291Z</time>
      </trkpt>
      <trkpt lat="47.511545" lon="8.207730">
        <ele>366.737285</ele>
        <time>2021-11-21T17:50:27.830Z</time>
      </trkpt>
      <trkpt lat="47.511830" lon="8.207951">
        <ele>366.406221</ele>
        <time>2021-11-21T17:50:32.123Z</time>
      </trkpt>
      <trkpt lat="47.512289" lon="8.208244">
        <ele>365.891866</ele>
        <time>2021-11-21T17:50:39.146Z</time>
      </trkpt>
      <trkpt lat="47.512464" lon="8.208323">
        <ele>365.703601</ele>
        <time>2021-11-21T17:50:41.657Z</time>
      </trkpt>
      <trkpt lat="47.513508" lon="8.208805">
        <ele>365.068623</ele>
        <time>2021-11-21T17:50:56.187Z</time>
      </trkpt>
      <trkpt lat="47.513709" lon="8.208886">
        <ele>364.951999</ele>
        <time>2021-11-21T17:50:58.938Z</time>
      </trkpt>
      <trkpt lat="47.513775" lon="8.209324">
        <ele>364.782307</ele>
        <time>2021-11-21T17:51:02.772Z</time>
      </trkpt>
      <trkpt lat="47.513828" lon="8.209683">
        <ele>364.642196</ele>
        <time>2021-11-21T17:51:05.941Z</time>
      </trkpt>
      <trkpt lat="47.513875" lon="8.210161">
        <ele>364.397587</ele>
        <time>2021-11-21T17:51:10.071Z</time>
      </trkpt>
      <trkpt lat="47.513886" lon="8.210522">
        <ele>364.214591</ele>
        <time>2021-11-21T17:51:13.107Z</time>
      </trkpt>
      <trkpt lat="47.513892" lon="8.210732">
        <ele>364.108152</ele>
        <time>2021-11-21T17:51:14.851Z</time>
      </trkpt>
      <trkpt lat="47.513892" lon="8.211277">
        <ele>363.832166</ele>
        <time>2021-11-21T17:51:19.289Z</time>
      </trkpt>
      <trkpt lat="47.513868" lon="8.212369">
        <ele>363.288124</ele>
        <time>2021-11-21T17:51:28.917Z</time>
      </trkpt>
      <trkpt lat="47.514119" lon="8.212384">
        <ele>363.189821</ele>
        <time>2021-11-21T17:51:33.780Z</time>
      </trkpt>
      <trkpt lat="47.514469" lon="8.212440">
        <ele>363.052058</ele>
        <time>2021-11-21T17:51:40.577Z</time>
      </trkpt>
      <trkpt lat="47.514567" lon="8.212469">
        <ele>363.012949</ele>
        <time>2021-11-21T17:51:42.396Z</time>
      </trkpt>
      <trkpt lat="47.514988" lon="8.212851">
        <ele>362.819724</ele>
        <time>2021-11-21T17:51:52.045Z</time>
      </trkpt>
      <trkpt lat="47.515044" lon="8.212902">
        <ele>362.793996</ele>
        <time>2021-11-21T17:51:53.366Z</time>
      </trkpt>
      <trkpt lat="47.515199" lon="8.213043">
        <ele>362.722806</ele>
        <time>2021-11-21T17:51:56.801Z</time>
      </trkpt>
      <trkpt lat="47.515439" lon="8.213200">
        <ele>362.620129</ele>
        <time>2021-11-21T17:52:01.666Z</time>
      </trkpt>
      <trkpt lat="47.516357" lon="8.213867">
        <ele>361.910291</ele>
        <time>2021-11-21T17:52:20.041Z</time>
      </trkpt>
      <trkpt lat="47.516450" lon="8.213978">
        <ele>361.824879</ele>
        <time>2021-11-21T17:52:22.174Z</time>
      </trkpt>
      <trkpt lat="47.516592" lon="8.214194">
        <ele>361.679314</ele>
        <time>2021-11-21T17:52:25.937Z</time>
      </trkpt>
      <trkpt lat="47.516853" lon="8.214613">
        <ele>361.404054</ele>
        <time>2021-11-21T17:52:32.845Z</time>
      </trkpt>
      <trkpt lat="47.516927" lon="8.214681">
        <ele>361.341781</ele>
        <time>2021-11-21T17:52:34.287Z</time>
      </trkpt>
      <trkpt lat="47.517061" lon="8.214737">
        <ele>361.226769</ele>
        <time>2021-11-21T17:52:36.765Z</time>
      </trkpt>
      <trkpt lat="47.517598" lon="8.214691">
        <ele>360.752171</ele>
        <time>2021-11-21T17:52:45.972Z</time>
      </trkpt>
      <trkpt lat="47.517727" lon="8.214690">
        <ele>360.638350</ele>
        <time>2021-11-21T17:52:48.162Z</time>
      </trkpt>
      <trkpt lat="47.517865" lon="8.214707">
        <ele>360.516169</ele>
        <time>2021-11-21T17:52:50.542Z</time>
      </trkpt>
      <trkpt lat="47.517918" lon="8.214716">
        <ele>360.469100</ele>
        <time>2021-11-21T17:52:51.470Z</time>
      </trkpt>
      <trkpt lat="47.518033" lon="8.214737">
        <ele>360.366864</ele>
        <time>2021-11-21T17:52:53.341Z</time>
      </trkpt>
      <trkpt lat="47.518146" lon="8.214775">
        <ele>360.264623</ele>
        <time>2021-11-21T17:52:55.460Z</time>
      </trkpt>
      <trkpt lat="47.518581" lon="8.214863">
        <ele>359.877248</ele>
        <time>2021-11-21T17:53:03.511Z</time>
      </trkpt>
      <trkpt lat="47.518727" lon="8.214908">
        <ele>359.745668</ele>
        <time>2021-11-21T17:53:06.296Z</time>
      </trkpt>
      <trkpt lat="47.518955" lon="8.215007">
        <ele>359.601765</ele>
        <time>2021-11-21T17:53:10.821Z</time>
      </trkpt>
      <trkpt lat="47.519148" lon="8.215131">
        <ele>359.482001</ele>
        <time>2021-11-21T17:53:14.761Z</time>
      </trkpt>
      <trkpt lat="47.519391" lon="8.215293">
        <ele>359.330297</ele>
        <time>2021-11-21T17:53:19.716Z</time>
      </trkpt>
      <trkpt lat="47.519670" lon="8.215440">
        <ele>359.161718</ele>
        <time>2021-11-21T17:53:25.097Z</time>
      </trkpt>
      <trkpt lat="47.519944" lon="8.215530">
        <ele>359.001950</ele>
        <time>2021-11-21T17:53:30.240Z</time>
      </trkpt>
      <trkpt lat="47.520124" lon="8.215569">
        <ele>358.898392</ele>
        <time>2021-11-21T17:53:33.573Z</time>
      </trkpt>
      <trkpt lat="47.520146" lon="8.215572">
        <ele>358.885815</ele>
        <time>2021-11-21T17:53:34.021Z</time>
      </trkpt>
      <trkpt lat="47.520315" lon="8.215590">
        <ele>358.789361</ele>
        <time>2021-11-21T17:53:36.975Z</time>
      </trkpt>
      <trkpt lat="47.520540" lon="8.215681">
        <ele>358.643441</ele>
        <time>2021-11-21T17:53:41.337Z</time>
      </trkpt>
      <trkpt lat="47.520786" lon="8.215911">
        <ele>358.424486</ele>
        <time>2021-11-21T17:53:46.546Z</time>
      </trkpt>
      <trkpt lat="47.521086" lon="8.216135">
        <ele>358.171628</ele>
        <time>2021-11-21T17:53:52.408Z</time>
      </trkpt>
      <trkpt lat="47.521196" lon="8.216177">
        <ele>358.086134</ele>
        <time>2021-11-21T17:53:54.450Z</time>
      </trkpt>
      <trkpt lat="47.521239" lon="8.216193">
        <ele>358.052767</ele>
        <time>2021-11-21T17:53:55.124Z</time>
      </trkpt>
      <trkpt lat="47.521527" lon="8.216269">
        <ele>357.832604</ele>
        <time>2021-11-21T17:54:00.440Z</time>
      </trkpt>
      <trkpt lat="47.521586" lon="8.216258">
        <ele>357.787850</ele>
        <time>2021-11-21T17:54:01.379Z</time>
      </trkpt>
      <trkpt lat="47.521761" lon="8.216165">
        <ele>357.647921</ele>
        <time>2021-11-21T17:54:04.694Z</time>
      </trkpt>
      <trkpt lat="47.521839" lon="8.216142">
        <ele>357.588066</ele>
        <time>2021-11-21T17:54:06.210Z</time>
      </trkpt>
      <trkpt lat="47.522226" lon="8.216299">
        <ele>357.387891</ele>
        <time>2021-11-21T17:54:13.534Z</time>
      </trkpt>
      <trkpt lat="47.522326" lon="8.216356">
        <ele>357.449614</ele>
        <time>2021-11-21T17:54:15.313Z</time>
      </trkpt>
      <trkpt lat="47.522426" lon="8.216233">
        <ele>357.524496</ele>
        <time>2021-11-21T17:54:17.151Z</time>
      </trkpt>
      <trkpt lat="47.522589" lon="8.216064">
        <ele>357.639114</ele>
        <time>2021-11-21T17:54:19.832Z</time>
      </trkpt>
      <trkpt lat="47.522953" lon="8.215700">
        <ele>357.892118</ele>
        <time>2021-11-21T17:54:27.087Z</time>
      </trkpt>
      <trkpt lat="47.523040" lon="8.215616">
        <ele>357.951944</ele>
        <time>2021-11-21T17:54:29.165Z</time>
      </trkpt>
      <trkpt lat="47.523184" lon="8.215512">
        <ele>358.044231</ele>
        <time>2021-11-21T17:54:32.124Z</time>
      </trkpt>
      <trkpt lat="47.523252" lon="8.215477">
        <ele>358.085699</ele>
        <time>2021-11-21T17:54:33.447Z</time>
      </trkpt>
      <trkpt lat="47.523295" lon="8.215459">
        <ele>358.111439</ele>
        <time>2021-11-21T17:54:34.379Z</time>
      </trkpt>
      <trkpt lat="47.523322" lon="8.215449">
        <ele>358.127470</ele>
        <time>2021-11-21T17:54:34.948Z</time>
      </trkpt>
      <trkpt lat="47.523463" lon="8.215416">
        <ele>358.209698</ele>
        <time>2021-11-21T17:54:38.019Z</time>
      </trkpt>
      <trkpt lat="47.523628" lon="8.215398">
        <ele>358.305000</ele>
        <time>2021-11-21T17:54:41.088Z</time>
      </trkpt>
      <trkpt lat="47.523967" lon="8.215368">
        <ele>359.114323</ele>
        <time>2021-11-21T17:54:48.426Z</time>
      </trkpt>
      <trkpt lat="47.524496" lon="8.215283">
        <ele>360.977898</ele>
        <time>2021-11-21T17:55:00.928Z</time>
      </trkpt>
      <trkpt lat="47.524916" lon="8.215230">
        <ele>362.454181</ele>
        <time>2021-11-21T17:55:12.804Z</time>
      </trkpt>
      <trkpt lat="47.525397" lon="8.215170">
        <ele>364.144739</ele>
        <time>2021-11-21T17:55:28.709Z</time>
      </trkpt>
      <trkpt lat="47.525630" lon="8.215165">
        <ele>365.324289</ele>
        <time>2021-11-21T17:55:36.646Z</time>
      </trkpt>
      <trkpt lat="47.525749" lon="8.215166">
        <ele>366.278761</ele>
        <time>2021-11-21T17:55:42.695Z</time>
      </trkpt>
      <trkpt lat="47.525837" lon="8.215146">
        <ele>366.992841</ele>
        <time>2021-11-21T17:55:46.641Z</time>
      </trkpt>
      <trkpt lat="47.525912" lon="8.215115">
        <ele>367.617380</ele>
        <time>2021-11-21T17:55:49.441Z</time>
      </trkpt>
      <trkpt lat="47.525955" lon="8.215079">
        <ele>368.013565</ele>
        <time>2021-11-21T17:55:51.255Z</time>
      </trkpt>
      <trkpt lat="47.526002" lon="8.215031">
        <ele>368.471484</ele>
        <time>2021-11-21T17:55:54.834Z</time>
      </trkpt>
      <trkpt lat="47.526053" lon="8.214977">
        <ele>368.974335</ele>
        <time>2021-11-21T17:55:57.726Z</time>
      </trkpt>
      <trkpt lat="47.526124" lon="8.214905">
        <ele>369.664517</ele>
        <time>2021-11-21T17:56:01.530Z</time>
      </trkpt>
      <trkpt lat="47.526245" lon="8.214785">
        <ele>370.832531</ele>
        <time>2021-11-21T17:56:07.788Z</time>
      </trkpt>
      <trkpt lat="47.526233" lon="8.214701">
        <ele>371.297541</ele>
        <time>2021-11-21T17:56:13.382Z</time>
      </trkpt>
      <trkpt lat="47.526337" lon="8.214415">
        <ele>373.056827</ele>
        <time>2021-11-21T17:56:28.088Z</time>
      </trkpt>
      <trkpt lat="47.526427" lon="8.214267">
        <ele>374.135519</ele>
        <time>2021-11-21T17:56:38.422Z</time>
      </trkpt>
      <trkpt lat="47.526668" lon="8.213870">
        <ele>377.026785</ele>
        <time>2021-11-21T17:57:03.897Z</time>
      </trkpt>
      <trkpt lat="47.526721" lon="8.213721">
        <ele>377.938875</ele>
        <time>2021-11-21T17:57:12.750Z</time>
      </trkpt>
      <trkpt lat="47.526750" lon="8.213563">
        <ele>378.825637</ele>
        <time>2021-11-21T17:57:20.561Z</time>
      </trkpt>
      <trkpt lat="47.526871" lon="8.213279">
        <ele>380.700715</ele>
        <time>2021-11-21T17:57:38.139Z</time>
      </trkpt>
      <trkpt lat="47.526966" lon="8.213055">
        <ele>382.185798</ele>
        <time>2021-11-21T17:57:50.417Z</time>
      </trkpt>
      <trkpt lat="47.526996" lon="8.212989">
        <ele>382.632475</ele>
        <time>2021-11-21T17:57:55.359Z</time>
      </trkpt>
      <trkpt lat="47.527086" lon="8.212822">
        <ele>383.832070</ele>
        <time>2021-11-21T17:58:03.743Z</time>
      </trkpt>
      <trkpt lat="47.527174" lon="8.212657">
        <ele>385.012529</ele>
        <time>2021-11-21T17:58:10.549Z</time>
      </trkpt>
      <trkpt lat="47.527492" lon="8.212260">
        <ele>388.470649</ele>
        <time>2021-11-21T17:58:30.659Z</time>
      </trkpt>
      <trkpt lat="47.527568" lon="8.212167">
        <ele>389.290351</ele>
        <time>2021-11-21T17:58:34.660Z</time>
      </trkpt>
      <trkpt lat="47.527628" lon="8.212063">
        <ele>390.058327</ele>
        <time>2021-11-21T17:58:40.693Z</time>
      </trkpt>
      <trkpt lat="47.527792" lon="8.211675">
        <ele>392.628230</ele>
        <time>2021-11-21T17:58:55.266Z</time>
      </trkpt>
      <trkpt lat="47.527904" lon="8.211051">
        <ele>394.822239</ele>
        <time>2021-11-21T17:59:12.648Z</time>
      </trkpt>
      <trkpt lat="47.528109" lon="8.210725">
        <ele>395.691309</ele>
        <time>2021-11-21T17:59:22.246Z</time>
      </trkpt>
      <trkpt lat="47.528294" lon="8.210278">
        <ele>396.714123</ele>
        <time>2021-11-21T17:59:32.497Z</time>
      </trkpt>
      <trkpt lat="47.528477" lon="8.209843">
        <ele>397.713982</ele>
        <time>2021-11-21T17:59:40.160Z</time>
      </trkpt>
      <trkpt lat="47.528988" lon="8.208838">
        <ele>399.050073</ele>
        <time>2021-11-21T17:59:52.889Z</time>
      </trkpt>
      <trkpt lat="47.529201" lon="8.208382">
        <ele>398.804645</ele>
        <time>2021-11-21T17:59:57.318Z</time>
      </trkpt>
      <trkpt lat="47.529351" lon="8.208087">
        <ele>398.641187</ele>
        <time>2021-11-21T18:00:00.030Z</time>
      </trkpt>
      <trkpt lat="47.529530" lon="8.207845">
        <ele>398.482308</ele>
        <time>2021-11-21T18:00:02.563Z</time>
      </trkpt>
      <trkpt lat="47.529704" lon="8.207736">
        <ele>398.358462</ele>
        <time>2021-11-21T18:00:04.754Z</time>
      </trkpt>
      <trkpt lat="47.530081" lon="8.207671">
        <ele>398.109656</ele>
        <time>2021-11-21T18:00:10.063Z</time>
      </trkpt>
      <trkpt lat="47.530570" lon="8.207684">
        <ele>400.123304</ele>
        <time>2021-11-21T18:00:20.011Z</time>
      </trkpt>
      <trkpt lat="47.530748" lon="8.207682">
        <ele>400.949931</ele>
        <time>2021-11-21T18:00:24.353Z</time>
      </trkpt>
      <trkpt lat="47.530948" lon="8.207681">
        <ele>401.878705</ele>
        <time>2021-11-21T18:00:31.029Z</time>
      </trkpt>
      <trkpt lat="47.531043" lon="8.207684">
        <ele>402.319970</ele>
        <time>2021-11-21T18:00:33.938Z</time>
      </trkpt>
      <trkpt lat="47.531300" lon="8.207688">
        <ele>403.513503</ele>
        <time>2021-11-21T18:00:43.446Z</time>
      </trkpt>
      <trkpt lat="47.532270" lon="8.207712">
        <ele>409.118270</ele>
        <time>2021-11-21T18:01:28.928Z</time>
      </trkpt>
      <trkpt lat="47.532597" lon="8.207774">
        <ele>411.709126</ele>
        <time>2021-11-21T18:01:45.337Z</time>
      </trkpt>
      <trkpt lat="47.532835" lon="8.207933">
        <ele>413.761033</ele>
        <time>2021-11-21T18:01:57.068Z</time>
      </trkpt>
      <trkpt lat="47.533120" lon="8.208342">
        <ele>416.879767</ele>
        <time>2021-11-21T18:02:14.270Z</time>
      </trkpt>
      <trkpt lat="47.533191" lon="8.208445">
        <ele>417.660819</ele>
        <time>2021-11-21T18:02:20.467Z</time>
      </trkpt>
      <trkpt lat="47.533279" lon="8.208606">
        <ele>418.759950</ele>
        <time>2021-11-21T18:02:25.814Z</time>
      </trkpt>
      <trkpt lat="47.533949" lon="8.209720">
        <ele>427.031035</ele>
        <time>2021-11-21T18:03:12.613Z</time>
      </trkpt>
      <trkpt lat="47.534400" lon="8.210289">
        <ele>431.957465</ele>
        <time>2021-11-21T18:03:41.295Z</time>
      </trkpt>
      <trkpt lat="47.534948" lon="8.210478">
        <ele>436.809540</ele>
        <time>2021-11-21T18:04:08.743Z</time>
      </trkpt>
      <trkpt lat="47.535970" lon="8.210248">
        <ele>446.742787</ele>
        <time>2021-11-21T18:05:05.812Z</time>
      </trkpt>
      <trkpt lat="47.536563" lon="8.209636">
        <ele>453.667538</ele>
        <time>2021-11-21T18:05:43.961Z</time>
      </trkpt>
      <trkpt lat="47.536687" lon="8.209592">
        <ele>454.864681</ele>
        <time>2021-11-21T18:05:51.570Z</time>
      </trkpt>
      <trkpt lat="47.536874" lon="8.209678">
        <ele>456.703052</ele>
        <time>2021-11-21T18:06:00.624Z</time>
      </trkpt>
      <trkpt lat="47.536921" lon="8.209778">
        <ele>457.475376</ele>
        <time>2021-11-21T18:06:06.222Z</time>
      </trkpt>
      <trkpt lat="47.536956" lon="8.209884">
        <ele>458.223308</ele>
        <time>2021-11-21T18:06:10.414Z</time>
      </trkpt>
      <trkpt lat="47.537043" lon="8.210202">
        <ele>460.398158</ele>
        <time>2021-11-21T18:06:21.287Z</time>
      </trkpt>
      <trkpt lat="47.537143" lon="8.210508">
        <ele>462.553016</ele>
        <time>2021-11-21T18:06:32.321Z</time>
      </trkpt>
      <trkpt lat="47.537267" lon="8.210668">
        <ele>464.096995</ele>
        <time>2021-11-21T18:06:41.612Z</time>
      </trkpt>
      <trkpt lat="47.537388" lon="8.210688">
        <ele>465.240084</ele>
        <time>2021-11-21T18:06:47.438Z</time>
      </trkpt>
      <trkpt lat="47.537432" lon="8.210679">
        <ele>465.657109</ele>
        <time>2021-11-21T18:06:49.308Z</time>
      </trkpt>
      <trkpt lat="47.537481" lon="8.210648">
        <ele>466.157362</ele>
        <time>2021-11-21T18:06:51.966Z</time>
      </trkpt>
      <trkpt lat="47.537542" lon="8.210584">
        <ele>466.859187</ele>
        <time>2021-11-21T18:06:55.504Z</time>
      </trkpt>
      <trkpt lat="47.537582" lon="8.210504">
        <ele>467.490186</ele>
        <time>2021-11-21T18:07:00.583Z</time>
      </trkpt>
      <trkpt lat="47.537624" lon="8.210296">
        <ele>468.866281</ele>
        <time>2021-11-21T18:07:07.769Z</time>
      </trkpt>
      <trkpt lat="47.537525" lon="8.209530">
        <ele>474.250460</ele>
        <time>2021-11-21T18:07:37.017Z</time>
      </trkpt>
      <trkpt lat="47.537541" lon="8.209218">
        <ele>476.446101</ele>
        <time>2021-11-21T18:07:48.873Z</time>
      </trkpt>
      <trkpt lat="47.537630" lon="8.208383">
        <ele>482.377946</ele>
        <time>2021-11-21T18:08:25.076Z</time>
      </trkpt>
      <trkpt lat="47.537696" lon="8.207798">
        <ele>486.539864</ele>
        <time>2021-11-21T18:08:46.465Z</time>
      </trkpt>
      <trkpt lat="47.537822" lon="8.206799">
        <ele>492.229743</ele>
        <time>2021-11-21T18:09:22.281Z</time>
      </trkpt>
      <trkpt lat="47.537847" lon="8.206596">
        <ele>493.282637</ele>
        <time>2021-11-21T18:09:29.097Z</time>
      </trkpt>
      <trkpt lat="47.538192" lon="8.203678">
        <ele>507.945004</ele>
        <time>2021-11-21T18:10:50.721Z</time>
      </trkpt>
      <trkpt lat="47.538311" lon="8.203259">
        <ele>510.100572</ele>
        <time>2021-11-21T18:11:03.500Z</time>
      </trkpt>
      <trkpt lat="47.538542" lon="8.203042">
        <ele>512.021939</ele>
        <time>2021-11-21T18:11:15.199Z</time>
      </trkpt>
      <trkpt lat="47.539057" lon="8.202818">
        <ele>515.911853</ele>
        <time>2021-11-21T18:11:40.680Z</time>
      </trkpt>
      <trkpt lat="47.539686" lon="8.202173">
        <ele>521.832682</ele>
        <time>2021-11-21T18:12:17.729Z</time>
      </trkpt>
      <trkpt lat="47.540161" lon="8.202010">
        <ele>525.606324</ele>
        <time>2021-11-21T18:12:39.473Z</time>
      </trkpt>
      <trkpt lat="47.540245" lon="8.201988">
        <ele>526.266530</ele>
        <time>2021-11-21T18:12:44.669Z</time>
      </trkpt>
      <trkpt lat="47.540267" lon="8.201983">
        <ele>526.438792</ele>
        <time>2021-11-21T18:12:45.967Z</time>
      </trkpt>
      <trkpt lat="47.540495" lon="8.201931">
        <ele>528.224202</ele>
        <time>2021-11-21T18:12:59.595Z</time>
      </trkpt>
      <trkpt lat="47.540724" lon="8.201834">
        <ele>529.759546</ele>
        <time>2021-11-21T18:13:15.351Z</time>
      </trkpt>
      <trkpt lat="47.540817" lon="8.201780">
        <ele>530.377037</ele>
        <time>2021-11-21T18:13:21.005Z</time>
      </trkpt>
      <trkpt lat="47.540912" lon="8.201699">
        <ele>531.054636</ele>
        <time>2021-11-21T18:13:29.153Z</time>
      </trkpt>
      <trkpt lat="47.541150" lon="8.201242">
        <ele>533.463287</ele>
        <time>2021-11-21T18:13:53.877Z</time>
      </trkpt>
      <trkpt lat="47.541246" lon="8.200575">
        <ele>536.309276</ele>
        <time>2021-11-21T18:14:21.814Z</time>
      </trkpt>
      <trkpt lat="47.541339" lon="8.199690">
        <ele>540.088061</ele>
        <time>2021-11-21T18:14:56.597Z</time>
      </trkpt>
      <trkpt lat="47.541371" lon="8.199351">
        <ele>541.666847</ele>
        <time>2021-11-21T18:15:04.939Z</time>
      </trkpt>
      <trkpt lat="47.541400" lon="8.197782">
        <ele>548.906272</ele>
        <time>2021-11-21T18:15:47.860Z</time>
      </trkpt>
      <trkpt lat="47.541424" lon="8.196416">
        <ele>556.530851</ele>
        <time>2021-11-21T18:16:33.576Z</time>
      </trkpt>
      <trkpt lat="47.541449" lon="8.194943">
        <ele>566.079789</ele>
        <time>2021-11-21T18:17:27.594Z</time>
      </trkpt>
      <trkpt lat="47.541450" lon="8.194441">
        <ele>569.346133</ele>
        <time>2021-11-21T18:17:46.905Z</time>
      </trkpt>
      <trkpt lat="47.541411" lon="8.193836">
        <ele>573.710651</ele>
        <time>2021-11-21T18:18:10.537Z</time>
      </trkpt>
      <trkpt lat="47.541049" lon="8.191467">
        <ele>590.269038</ele>
        <time>2021-11-21T18:19:46.409Z</time>
      </trkpt>
      <trkpt lat="47.541065" lon="8.191152">
        <ele>591.822555</ele>
        <time>2021-11-21T18:19:55.532Z</time>
      </trkpt>
      <trkpt lat="47.541095" lon="8.191058">
        <ele>592.333897</ele>
        <time>2021-11-21T18:20:01.346Z</time>
      </trkpt>
      <trkpt lat="47.541136" lon="8.190956">
        <ele>592.917715</ele>
        <time>2021-11-21T18:20:07.118Z</time>
      </trkpt>
      <trkpt lat="47.541254" lon="8.190715">
        <ele>594.381856</ele>
        <time>2021-11-21T18:20:19.683Z</time>
      </trkpt>
      <trkpt lat="47.541303" lon="8.190582">
        <ele>595.127004</ele>
        <time>2021-11-21T18:20:28.465Z</time>
      </trkpt>
      <trkpt lat="47.541314" lon="8.190468">
        <ele>595.693341</ele>
        <time>2021-11-21T18:20:32.983Z</time>
      </trkpt>
      <trkpt lat="47.541134" lon="8.187007">
        <ele>605.596684</ele>
        <time>2021-11-21T18:21:46.368Z</time>
      </trkpt>
      <trkpt lat="47.541144" lon="8.185829">
        <ele>602.784736</ele>
        <time>2021-11-21T18:21:54.639Z</time>
      </trkpt>
      <trkpt lat="47.541253" lon="8.184529">
        <ele>597.207174</ele>
        <time>2021-11-21T18:22:02.565Z</time>
      </trkpt>
      <trkpt lat="47.541337" lon="8.183941">
        <ele>594.386307</ele>
        <time>2021-11-21T18:22:06.025Z</time>
      </trkpt>
      <trkpt lat="47.541372" lon="8.183706">
        <ele>592.328292</ele>
        <time>2021-11-21T18:22:07.394Z</time>
      </trkpt>
      <trkpt lat="47.541456" lon="8.183299">
        <ele>588.688656</ele>
        <time>2021-11-21T18:22:09.841Z</time>
      </trkpt>
      <trkpt lat="47.541555" lon="8.182888">
        <ele>584.956802</ele>
        <time>2021-11-21T18:22:12.329Z</time>
      </trkpt>
      <trkpt lat="47.541775" lon="8.182085">
        <ele>577.545695</ele>
        <time>2021-11-21T18:22:17.214Z</time>
      </trkpt>
      <trkpt lat="47.542275" lon="8.180404">
        <ele>562.689504</ele>
        <time>2021-11-21T18:22:27.601Z</time>
      </trkpt>
      <trkpt lat="47.542393" lon="8.180200">
        <ele>560.582612</ele>
        <time>2021-11-21T18:22:29.144Z</time>
      </trkpt>
      <trkpt lat="47.542427" lon="8.180153">
        <ele>560.042339</ele>
        <time>2021-11-21T18:22:30.190Z</time>
      </trkpt>
      <trkpt lat="47.542849" lon="8.179744">
        <ele>554.183562</ele>
        <time>2021-11-21T18:22:42.900Z</time>
      </trkpt>
      <trkpt lat="47.543118" lon="8.179531">
        <ele>550.820372</ele>
        <time>2021-11-21T18:22:50.208Z</time>
      </trkpt>
      <trkpt lat="47.543176" lon="8.179544">
        <ele>550.348763</ele>
        <time>2021-11-21T18:22:50.938Z</time>
      </trkpt>
      <trkpt lat="47.543293" lon="8.179736">
        <ele>548.944995</ele>
        <time>2021-11-21T18:22:52.406Z</time>
      </trkpt>
      <trkpt lat="47.543305" lon="8.179775">
        <ele>548.712389</ele>
        <time>2021-11-21T18:22:52.641Z</time>
      </trkpt>
      <trkpt lat="47.543357" lon="8.179586">
        <ele>547.604750</ele>
        <time>2021-11-21T18:22:53.934Z</time>
      </trkpt>
      <trkpt lat="47.543396" lon="8.179405">
        <ele>546.573626</ele>
        <time>2021-11-21T18:22:55.030Z</time>
      </trkpt>
      <trkpt lat="47.543458" lon="8.179101">
        <ele>544.850149</ele>
        <time>2021-11-21T18:22:56.881Z</time>
      </trkpt>
      <trkpt lat="47.543472" lon="8.179027">
        <ele>544.433074</ele>
        <time>2021-11-21T18:22:59.889Z</time>
      </trkpt>
      <trkpt lat="47.543492" lon="8.178872">
        <ele>543.576653</ele>
        <time>2021-11-21T18:23:00.794Z</time>
      </trkpt>
      <trkpt lat="47.543536" lon="8.178087">
        <ele>539.301771</ele>
        <time>2021-11-21T18:23:05.542Z</time>
      </trkpt>
      <trkpt lat="47.543620" lon="8.176594">
        <ele>531.969466</ele>
        <time>2021-11-21T18:23:14.810Z</time>
      </trkpt>
      <trkpt lat="47.543596" lon="8.176496">
        <ele>531.484439</ele>
        <time>2021-11-21T18:23:15.470Z</time>
      </trkpt>
      <trkpt lat="47.543542" lon="8.176433">
        <ele>531.010693</ele>
        <time>2021-11-21T18:23:16.039Z</time>
      </trkpt>
      <trkpt lat="47.543498" lon="8.176425">
        <ele>530.705154</ele>
        <time>2021-11-21T18:23:16.450Z</time>
      </trkpt>
      <trkpt lat="47.543322" lon="8.176586">
        <ele>529.279467</ele>
        <time>2021-11-21T18:23:18.475Z</time>
      </trkpt>
      <trkpt lat="47.543074" lon="8.177090">
        <ele>526.377704</ele>
        <time>2021-11-21T18:23:22.214Z</time>
      </trkpt>
      <trkpt lat="47.542588" lon="8.177199">
        <ele>522.595129</ele>
        <time>2021-11-21T18:23:26.575Z</time>
      </trkpt>
      <trkpt lat="47.542522" lon="8.177193">
        <ele>522.008879</ele>
        <time>2021-11-21T18:23:27.196Z</time>
      </trkpt>
      <trkpt lat="47.542435" lon="8.177076">
        <ele>520.967114</ele>
        <time>2021-11-21T18:23:28.207Z</time>
      </trkpt>
      <trkpt lat="47.542415" lon="8.176968">
        <ele>520.296867</ele>
        <time>2021-11-21T18:23:28.846Z</time>
      </trkpt>
      <trkpt lat="47.542461" lon="8.176828">
        <ele>519.365002</ele>
        <time>2021-11-21T18:23:29.777Z</time>
      </trkpt>
      <trkpt lat="47.542728" lon="8.176498">
        <ele>516.282109</ele>
        <time>2021-11-21T18:23:32.811Z</time>
      </trkpt>
      <trkpt lat="47.542789" lon="8.176356">
        <ele>515.274774</ele>
        <time>2021-11-21T18:23:33.826Z</time>
      </trkpt>
      <trkpt lat="47.542818" lon="8.176268">
        <ele>514.688701</ele>
        <time>2021-11-21T18:23:34.378Z</time>
      </trkpt>
      <trkpt lat="47.542897" lon="8.175386">
        <ele>509.363825</ele>
        <time>2021-11-21T18:23:39.605Z</time>
      </trkpt>
      <trkpt lat="47.542928" lon="8.174898">
        <ele>506.936156</ele>
        <time>2021-11-21T18:23:42.453Z</time>
      </trkpt>
      <trkpt lat="47.542958" lon="8.174430">
        <ele>504.837279</ele>
        <time>2021-11-21T18:23:45.190Z</time>
      </trkpt>
      <trkpt lat="47.543005" lon="8.173666">
        <ele>501.412120</ele>
        <time>2021-11-21T18:23:49.853Z</time>
      </trkpt>
      <trkpt lat="47.542942" lon="8.173427">
        <ele>500.266589</ele>
        <time>2021-11-21T18:23:51.435Z</time>
      </trkpt>
      <trkpt lat="47.542804" lon="8.173437">
        <ele>499.352766</ele>
        <time>2021-11-21T18:23:52.800Z</time>
      </trkpt>
      <trkpt lat="47.542515" lon="8.174031">
        <ele>496.147311</ele>
        <time>2021-11-21T18:23:57.892Z</time>
      </trkpt>
      <trkpt lat="47.542421" lon="8.174181">
        <ele>495.365094</ele>
        <time>2021-11-21T18:23:59.148Z</time>
      </trkpt>
      <trkpt lat="47.542299" lon="8.174319">
        <ele>494.496046</ele>
        <time>2021-11-21T18:24:01.039Z</time>
      </trkpt>
      <trkpt lat="47.541677" lon="8.174964">
        <ele>490.197487</ele>
        <time>2021-11-21T18:24:08.232Z</time>
      </trkpt>
      <trkpt lat="47.541506" lon="8.174915">
        <ele>489.211412</ele>
        <time>2021-11-21T18:24:09.736Z</time>
      </trkpt>
      <trkpt lat="47.541486" lon="8.174716">
        <ele>488.442475</ele>
        <time>2021-11-21T18:24:11.046Z</time>
      </trkpt>
      <trkpt lat="47.541498" lon="8.174644">
        <ele>488.159037</ele>
        <time>2021-11-21T18:24:11.917Z</time>
      </trkpt>
      <trkpt lat="47.541583" lon="8.174150">
        <ele>486.109975</ele>
        <time>2021-11-21T18:24:14.945Z</time>
      </trkpt>
      <trkpt lat="47.541630" lon="8.173624">
        <ele>482.532579</ele>
        <time>2021-11-21T18:24:18.090Z</time>
      </trkpt>
      <trkpt lat="47.541680" lon="8.173272">
        <ele>480.107311</ele>
        <time>2021-11-21T18:24:20.140Z</time>
      </trkpt>
      <trkpt lat="47.541911" lon="8.172517">
        <ele>474.518425</ele>
        <time>2021-11-21T18:24:24.953Z</time>
      </trkpt>
      <trkpt lat="47.542048" lon="8.172212">
        <ele>472.048387</ele>
        <time>2021-11-21T18:24:27.019Z</time>
      </trkpt>
      <trkpt lat="47.542269" lon="8.171821">
        <ele>468.610093</ele>
        <time>2021-11-21T18:24:29.953Z</time>
      </trkpt>
      <trkpt lat="47.542400" lon="8.171599">
        <ele>467.068795</ele>
        <time>2021-11-21T18:24:31.723Z</time>
      </trkpt>
      <trkpt lat="47.542454" lon="8.171478">
        <ele>466.339642</ele>
        <time>2021-11-21T18:24:32.544Z</time>
      </trkpt>
      <trkpt lat="47.542881" lon="8.169924">
        <ele>457.905622</ele>
        <time>2021-11-21T18:24:42.721Z</time>
      </trkpt>
      <trkpt lat="47.543071" lon="8.169745">
        <ele>456.228876</ele>
        <time>2021-11-21T18:24:44.826Z</time>
      </trkpt>
      <trkpt lat="47.544202" lon="8.169104">
        <ele>448.494754</ele>
        <time>2021-11-21T18:24:56.012Z</time>
      </trkpt>
      <trkpt lat="47.544678" lon="8.168690">
        <ele>445.063083</ele>
        <time>2021-11-21T18:25:00.972Z</time>
      </trkpt>
      <trkpt lat="47.544873" lon="8.168362">
        <ele>443.203027</ele>
        <time>2021-11-21T18:25:03.624Z</time>
      </trkpt>
      <trkpt lat="47.545042" lon="8.167672">
        <ele>439.983900</ele>
        <time>2021-11-21T18:25:08.169Z</time>
      </trkpt>
      <trkpt lat="47.545100" lon="8.167448">
        <ele>438.931727</ele>
        <time>2021-11-21T18:25:09.605Z</time>
      </trkpt>
      <trkpt lat="47.545201" lon="8.167129">
        <ele>437.386466</ele>
        <time>2021-11-21T18:25:11.788Z</time>
      </trkpt>
      <trkpt lat="47.545260" lon="8.166987">
        <ele>436.655190</ele>
        <time>2021-11-21T18:25:12.778Z</time>
      </trkpt>
      <trkpt lat="47.545348" lon="8.166786">
        <ele>435.604503</ele>
        <time>2021-11-21T18:25:14.296Z</time>
      </trkpt>
      <trkpt lat="47.545453" lon="8.166595">
        <ele>434.524205</ele>
        <time>2021-11-21T18:25:15.771Z</time>
      </trkpt>
      <trkpt lat="47.545577" lon="8.166399">
        <ele>433.346104</ele>
        <time>2021-11-21T18:25:17.435Z</time>
      </trkpt>
      <trkpt lat="47.545768" lon="8.166102">
        <ele>431.681830</ele>
        <time>2021-11-21T18:25:19.922Z</time>
      </trkpt>
      <trkpt lat="47.546032" lon="8.165642">
        <ele>429.661414</ele>
        <time>2021-11-21T18:25:23.676Z</time>
      </trkpt>
      <trkpt lat="47.546204" lon="8.165321">
        <ele>428.290001</ele>
        <time>2021-11-21T18:25:26.330Z</time>
      </trkpt>
      <trkpt lat="47.546387" lon="8.165022">
        <ele>426.939444</ele>
        <time>2021-11-21T18:25:28.998Z</time>
      </trkpt>
      <trkpt lat="47.546441" lon="8.164907">
        <ele>426.470681</ele>
        <time>2021-11-21T18:25:29.885Z</time>
      </trkpt>
      <trkpt lat="47.546613" lon="8.164573">
        <ele>425.064944</ele>
        <time>2021-11-21T18:25:32.632Z</time>
      </trkpt>
      <trkpt lat="47.546850" lon="8.164022">
        <ele>422.941702</ele>
        <time>2021-11-21T18:25:36.844Z</time>
      </trkpt>
      <trkpt lat="47.546862" lon="8.163567">
        <ele>421.717586</ele>
        <time>2021-11-21T18:25:39.801Z</time>
      </trkpt>
      <trkpt lat="47.546835" lon="8.163363">
        <ele>421.158726</ele>
        <time>2021-11-21T18:25:41.128Z</time>
      </trkpt>
      <trkpt lat="47.546797" lon="8.163081">
        <ele>420.385662</ele>
        <time>2021-11-21T18:25:43.061Z</time>
      </trkpt>
      <trkpt lat="47.546790" lon="8.163024">
        <ele>420.229912</ele>
        <time>2021-11-21T18:25:43.434Z</time>
      </trkpt>
      <trkpt lat="47.546769" lon="8.162896">
        <ele>419.875788</ele>
        <time>2021-11-21T18:25:44.266Z</time>
      </trkpt>
      <trkpt lat="47.546748" lon="8.162622">
        <ele>419.134456</ele>
        <time>2021-11-21T18:25:46.121Z</time>
      </trkpt>
      <trkpt lat="47.546819" lon="8.162125">
        <ele>417.768765</ele>
        <time>2021-11-21T18:25:49.491Z</time>
      </trkpt>
      <trkpt lat="47.546981" lon="8.161773">
        <ele>416.623449</ele>
        <time>2021-11-21T18:25:52.313Z</time>
      </trkpt>
      <trkpt lat="47.547108" lon="8.161617">
        <ele>416.002325</ele>
        <time>2021-11-21T18:25:53.954Z</time>
      </trkpt>
      <trkpt lat="47.547207" lon="8.161521">
        <ele>415.775687</ele>
        <time>2021-11-21T18:25:55.085Z</time>
      </trkpt>
      <trkpt lat="47.547349" lon="8.161424">
        <ele>415.476174</ele>
        <time>2021-11-21T18:25:56.785Z</time>
      </trkpt>
      <trkpt lat="47.547470" lon="8.161331">
        <ele>415.215071</ele>
        <time>2021-11-21T18:25:58.147Z</time>
      </trkpt>
      <trkpt lat="47.547496" lon="8.161301">
        <ele>415.151948</ele>
        <time>2021-11-21T18:25:58.489Z</time>
      </trkpt>
      <trkpt lat="47.547517" lon="8.161278">
        <ele>415.101925</ele>
        <time>2021-11-21T18:25:58.749Z</time>
      </trkpt>
      <trkpt lat="47.547553" lon="8.161213">
        <ele>414.993218</ele>
        <time>2021-11-21T18:25:59.445Z</time>
      </trkpt>
      <trkpt lat="47.547597" lon="8.161255">
        <ele>414.892960</ele>
        <time>2021-11-21T18:26:00.024Z</time>
      </trkpt>
      <trkpt lat="47.547713" lon="8.161271">
        <ele>414.669807</ele>
        <time>2021-11-21T18:26:01.266Z</time>
      </trkpt>
      <trkpt lat="47.547763" lon="8.161258">
        <ele>414.572570</ele>
        <time>2021-11-21T18:26:01.788Z</time>
      </trkpt>
      <trkpt lat="47.547978" lon="8.161155">
        <ele>414.139754</ele>
        <time>2021-11-21T18:26:04.434Z</time>
      </trkpt>
      <trkpt lat="47.548189" lon="8.161074">
        <ele>413.722247</ele>
        <time>2021-11-21T18:26:07.110Z</time>
      </trkpt>
      <trkpt lat="47.548340" lon="8.161015">
        <ele>413.423124</ele>
        <time>2021-11-21T18:26:08.941Z</time>
      </trkpt>
      <trkpt lat="47.548497" lon="8.160960">
        <ele>413.114106</ele>
        <time>2021-11-21T18:26:10.875Z</time>
      </trkpt>
      <trkpt lat="47.548672" lon="8.160912">
        <ele>412.773207</ele>
        <time>2021-11-21T18:26:12.937Z</time>
      </trkpt>
      <trkpt lat="47.549490" lon="8.160957">
        <ele>411.654014</ele>
        <time>2021-11-21T18:26:23.431Z</time>
      </trkpt>
      <trkpt lat="47.549617" lon="8.160942">
        <ele>411.489038</ele>
        <time>2021-11-21T18:26:25.889Z</time>
      </trkpt>
      <trkpt lat="47.549732" lon="8.160920">
        <ele>411.338886</ele>
        <time>2021-11-21T18:26:27.211Z</time>
      </trkpt>
      <trkpt lat="47.549905" lon="8.160854">
        <ele>411.107558</ele>
        <time>2021-11-21T18:26:29.603Z</time>
      </trkpt>
      <trkpt lat="47.549984" lon="8.160805">
        <ele>410.996657</ele>
        <time>2021-11-21T18:26:31.126Z</time>
      </trkpt>
      <trkpt lat="47.550099" lon="8.160724">
        <ele>410.831770</ele>
        <time>2021-11-21T18:26:32.449Z</time>
      </trkpt>
      <trkpt lat="47.550666" lon="8.160174">
        <ele>409.434736</ele>
        <time>2021-11-21T18:26:39.634Z</time>
      </trkpt>
      <trkpt lat="47.551164" lon="8.159529">
        <ele>407.129511</ele>
        <time>2021-11-21T18:26:46.164Z</time>
      </trkpt>
      <trkpt lat="47.551332" lon="8.159279">
        <ele>406.299687</ele>
        <time>2021-11-21T18:26:48.441Z</time>
      </trkpt>
      <trkpt lat="47.551447" lon="8.159096">
        <ele>405.711539</ele>
        <time>2021-11-21T18:26:50.130Z</time>
      </trkpt>
      <trkpt lat="47.551526" lon="8.158964">
        <ele>405.296562</ele>
        <time>2021-11-21T18:26:51.314Z</time>
      </trkpt>
      <trkpt lat="47.551653" lon="8.158711">
        <ele>404.554910</ele>
        <time>2021-11-21T18:26:53.442Z</time>
      </trkpt>
      <trkpt lat="47.551779" lon="8.158427">
        <ele>403.809143</ele>
        <time>2021-11-21T18:26:55.688Z</time>
      </trkpt>
      <trkpt lat="47.552174" lon="8.157599">
        <ele>401.963249</ele>
        <time>2021-11-21T18:27:02.526Z</time>
      </trkpt>
      <trkpt lat="47.552319" lon="8.157405">
        <ele>401.436275</ele>
        <time>2021-11-21T18:27:04.537Z</time>
      </trkpt>
      <trkpt lat="47.552683" lon="8.157162">
        <ele>400.359389</ele>
        <time>2021-11-21T18:27:08.861Z</time>
      </trkpt>
      <trkpt lat="47.552741" lon="8.157139">
        <ele>400.197437</ele>
        <time>2021-11-21T18:27:09.494Z</time>
      </trkpt>
      <trkpt lat="47.552966" lon="8.157085">
        <ele>399.582626</ele>
        <time>2021-11-21T18:27:12.061Z</time>
      </trkpt>
      <trkpt lat="47.553415" lon="8.156908">
        <ele>398.554876</ele>
        <time>2021-11-21T18:27:17.428Z</time>
      </trkpt>
      <trkpt lat="47.554024" lon="8.156353">
        <ele>397.161938</ele>
        <time>2021-11-21T18:27:25.640Z</time>
      </trkpt>
      <trkpt lat="47.555146" lon="8.156028">
        <ele>394.354086</ele>
        <time>2021-11-21T18:27:37.779Z</time>
      </trkpt>
      <trkpt lat="47.555483" lon="8.155879">
        <ele>393.102698</ele>
        <time>2021-11-21T18:27:41.412Z</time>
      </trkpt>
      <trkpt lat="47.555852" lon="8.155715">
        <ele>391.731898</ele>
        <time>2021-11-21T18:27:45.188Z</time>
      </trkpt>
      <trkpt lat="47.556361" lon="8.155432">
        <ele>389.797429</ele>
        <time>2021-11-21T18:27:50.504Z</time>
      </trkpt>
      <trkpt lat="47.556702" lon="8.155008">
        <ele>388.136585</ele>
        <time>2021-11-21T18:27:54.697Z</time>
      </trkpt>
      <trkpt lat="47.556982" lon="8.154756">
        <ele>386.883342</ele>
        <time>2021-11-21T18:27:57.870Z</time>
      </trkpt>
      <trkpt lat="47.557020" lon="8.154736">
        <ele>386.729074</ele>
        <time>2021-11-21T18:27:58.219Z</time>
      </trkpt>
      <trkpt lat="47.557234" lon="8.154662">
        <ele>385.888415</ele>
        <time>2021-11-21T18:28:00.433Z</time>
      </trkpt>
      <trkpt lat="47.557607" lon="8.154562">
        <ele>384.438327</ele>
        <time>2021-11-21T18:28:04.201Z</time>
      </trkpt>
      <trkpt lat="47.557909" lon="8.154469">
        <ele>383.258334</ele>
        <time>2021-11-21T18:28:07.317Z</time>
      </trkpt>
      <trkpt lat="47.557974" lon="8.154446">
        <ele>383.002684</ele>
        <time>2021-11-21T18:28:08.011Z</time>
      </trkpt>
      <trkpt lat="47.558498" lon="8.154242">
        <ele>381.503409</ele>
        <time>2021-11-21T18:28:13.531Z</time>
      </trkpt>
      <trkpt lat="47.558848" lon="8.154194">
        <ele>380.699305</ele>
        <time>2021-11-21T18:28:17.291Z</time>
      </trkpt>
      <trkpt lat="47.558924" lon="8.154185">
        <ele>380.524888</ele>
        <time>2021-11-21T18:28:18.073Z</time>
      </trkpt>
      <trkpt lat="47.558979" lon="8.154180">
        <ele>380.398830</ele>
        <time>2021-11-21T18:28:18.630Z</time>
      </trkpt>
      <trkpt lat="47.559032" lon="8.154178">
        <ele>380.277544</ele>
        <time>2021-11-21T18:28:19.189Z</time>
      </trkpt>
      <trkpt lat="47.559156" lon="8.154177">
        <ele>379.993869</ele>
        <time>2021-11-21T18:28:20.604Z</time>
      </trkpt>
      <trkpt lat="47.559284" lon="8.154179">
        <ele>379.701032</ele>
        <time>2021-11-21T18:28:21.930Z</time>
      </trkpt>
      <trkpt lat="47.559455" lon="8.154165">
        <ele>379.309244</ele>
        <time>2021-11-21T18:28:23.851Z</time>
      </trkpt>
      <trkpt lat="47.559591" lon="8.154124">
        <ele>378.991749</ele>
        <time>2021-11-21T18:28:25.454Z</time>
      </trkpt>
      <trkpt lat="47.559651" lon="8.154104">
        <ele>378.851059</ele>
        <time>2021-11-21T18:28:26.090Z</time>
      </trkpt>
      <trkpt lat="47.559698" lon="8.154088">
        <ele>378.740738</ele>
        <time>2021-11-21T18:28:26.626Z</time>
      </trkpt>
      <trkpt lat="47.559841" lon="8.154003">
        <ele>378.388266</ele>
        <time>2021-11-21T18:28:28.671Z</time>
      </trkpt>
      <trkpt lat="47.559905" lon="8.153956">
        <ele>378.228461</ele>
        <time>2021-11-21T18:28:29.542Z</time>
      </trkpt>
      <trkpt lat="47.559938" lon="8.153925">
        <ele>378.158318</ele>
        <time>2021-11-21T18:28:29.956Z</time>
      </trkpt>
      <trkpt lat="47.559990" lon="8.153866">
        <ele>378.040745</ele>
        <time>2021-11-21T18:28:30.642Z</time>
      </trkpt>
      <trkpt lat="47.560053" lon="8.153772">
        <ele>377.880247</ele>
        <time>2021-11-21T18:28:31.724Z</time>
      </trkpt>
      <trkpt lat="47.560153" lon="8.153582">
        <ele>377.588341</ele>
        <time>2021-11-21T18:28:33.746Z</time>
      </trkpt>
      <trkpt lat="47.560212" lon="8.153476">
        <ele>377.421881</ele>
        <time>2021-11-21T18:28:34.713Z</time>
      </trkpt>
      <trkpt lat="47.560330" lon="8.153256">
        <ele>377.081430</ele>
        <time>2021-11-21T18:28:40.935Z</time>
      </trkpt>
      <trkpt lat="47.560379" lon="8.153152">
        <ele>376.927769</ele>
        <time>2021-11-21T18:28:43.714Z</time>
      </trkpt>
      <trkpt lat="47.560422" lon="8.153030">
        <ele>376.761028</ele>
        <time>2021-11-21T18:28:46.504Z</time>
      </trkpt>
      <trkpt lat="47.560456" lon="8.152909">
        <ele>376.602243</ele>
        <time>2021-11-21T18:28:49.296Z</time>
      </trkpt>
      <trkpt lat="47.560547" lon="8.152508">
        <ele>376.089721</ele>
        <time>2021-11-21T18:28:58.242Z</time>
      </trkpt>
      <trkpt lat="47.560622" lon="8.152294">
        <ele>375.797594</ele>
        <time>2021-11-21T18:29:03.500Z</time>
      </trkpt>
      <trkpt lat="47.560668" lon="8.152171">
        <ele>375.627233</ele>
        <time>2021-11-21T18:29:06.537Z</time>
      </trkpt>
      <trkpt lat="47.560710" lon="8.152072">
        <ele>375.485569</ele>
        <time>2021-11-21T18:29:08.860Z</time>
      </trkpt>
      <trkpt lat="47.560747" lon="8.151985">
        <ele>375.360989</ele>
        <time>2021-11-21T18:29:10.983Z</time>
      </trkpt>
      <trkpt lat="47.560859" lon="8.151728">
        <ele>374.994389</ele>
        <time>2021-11-21T18:29:17.805Z</time>
      </trkpt>
      <trkpt lat="47.560916" lon="8.151600">
        <ele>374.842210</ele>
        <time>2021-11-21T18:29:20.904Z</time>
      </trkpt>
      <trkpt lat="47.561003" lon="8.151403">
        <ele>374.608583</ele>
        <time>2021-11-21T18:29:26.172Z</time>
      </trkpt>
      <trkpt lat="47.561109" lon="8.151163">
        <ele>374.323953</ele>
        <time>2021-11-21T18:29:32.273Z</time>
      </trkpt>
      <trkpt lat="47.561257" lon="8.150909">
        <ele>373.990948</ele>
        <time>2021-11-21T18:29:39.907Z</time>
      </trkpt>
      <trkpt lat="47.561352" lon="8.150768">
        <ele>373.793232</ele>
        <time>2021-11-21T18:29:44.107Z</time>
      </trkpt>
      <trkpt lat="47.561471" lon="8.150574">
        <ele>373.533077</ele>
        <time>2021-11-21T18:29:49.882Z</time>
      </trkpt>
      <trkpt lat="47.561512" lon="8.150470">
        <ele>373.413557</ele>
        <time>2021-11-21T18:29:52.580Z</time>
      </trkpt>
      <trkpt lat="47.561555" lon="8.150316">
        <ele>373.248177</ele>
        <time>2021-11-21T18:29:56.051Z</time>
      </trkpt>
      <trkpt lat="47.561767" lon="8.149503">
        <ele>372.383301</ele>
        <time>2021-11-21T18:30:15.641Z</time>
      </trkpt>
      <trkpt lat="47.561788" lon="8.149429">
        <ele>372.339537</ele>
        <time>2021-11-21T18:30:17.333Z</time>
      </trkpt>
      <trkpt lat="47.561915" lon="8.148980">
        <ele>372.127260</ele>
        <time>2021-11-21T18:30:28.761Z</time>
      </trkpt>
      <trkpt lat="47.561943" lon="8.148889">
        <ele>372.083652</ele>
        <time>2021-11-21T18:30:30.938Z</time>
      </trkpt>
      <trkpt lat="47.561980" lon="8.148763">
        <ele>372.023737</ele>
        <time>2021-11-21T18:30:34.253Z</time>
      </trkpt>
      <trkpt lat="47.561998" lon="8.148673">
        <ele>371.982808</ele>
        <time>2021-11-21T18:30:36.572Z</time>
      </trkpt>
      <trkpt lat="47.562009" lon="8.148597">
        <ele>371.948917</ele>
        <time>2021-11-21T18:30:37.414Z</time>
      </trkpt>
      <trkpt lat="47.562009" lon="8.148365">
        <ele>371.847760</ele>
        <time>2021-11-21T18:30:39.336Z</time>
      </trkpt>
      <trkpt lat="47.561978" lon="8.148254">
        <ele>371.795381</ele>
        <time>2021-11-21T18:30:40.444Z</time>
      </trkpt>
      <trkpt lat="47.561913" lon="8.148081">
        <ele>371.709045</ele>
        <time>2021-11-21T18:30:42.449Z</time>
      </trkpt>
      <trkpt lat="47.561833" lon="8.147845">
        <ele>371.593889</ele>
        <time>2021-11-21T18:30:44.793Z</time>
      </trkpt>
      <trkpt lat="47.561822" lon="8.147813">
        <ele>371.578231</ele>
        <time>2021-11-21T18:30:45.210Z</time>
      </trkpt>
      <trkpt lat="47.561781" lon="8.147568">
        <ele>371.468169</ele>
        <time>2021-11-21T18:30:47.722Z</time>
      </trkpt>
      <trkpt lat="47.561778" lon="8.147534">
        <ele>371.453219</ele>
        <time>2021-11-21T18:30:48.027Z</time>
      </trkpt>
      <trkpt lat="47.561759" lon="8.147209">
        <ele>371.310981</ele>
        <time>2021-11-21T18:30:50.843Z</time>
      </trkpt>
      <trkpt lat="47.561783" lon="8.146574">
        <ele>370.818950</ele>
        <time>2021-11-21T18:30:56.376Z</time>
      </trkpt>
      <trkpt lat="47.561789" lon="8.146405">
        <ele>370.652935</ele>
        <time>2021-11-21T18:30:57.752Z</time>
      </trkpt>
      <trkpt lat="47.561811" lon="8.145912">
        <ele>370.168254</ele>
        <time>2021-11-21T18:31:01.847Z</time>
      </trkpt>
      <trkpt lat="47.561827" lon="8.145709">
        <ele>369.967761</ele>
        <time>2021-11-21T18:31:03.513Z</time>
      </trkpt>
      <trkpt lat="47.561842" lon="8.145448">
        <ele>369.710797</ele>
        <time>2021-11-21T18:31:05.540Z</time>
      </trkpt>
      <trkpt lat="47.561847" lon="8.145230">
        <ele>369.496820</ele>
        <time>2021-11-21T18:31:07.160Z</time>
      </trkpt>
      <trkpt lat="47.561843" lon="8.145077">
        <ele>369.346617</ele>
        <time>2021-11-21T18:31:08.302Z</time>
      </trkpt>
      <trkpt lat="47.561830" lon="8.144934">
        <ele>369.205069</ele>
        <time>2021-11-21T18:31:09.359Z</time>
      </trkpt>
      <trkpt lat="47.561764" lon="8.144413">
        <ele>368.685049</ele>
        <time>2021-11-21T18:31:13.221Z</time>
      </trkpt>
      <trkpt lat="47.561737" lon="8.144240">
        <ele>368.504830</ele>
        <time>2021-11-21T18:31:14.482Z</time>
      </trkpt>
      <trkpt lat="47.561693" lon="8.143892">
        <ele>368.131278</ele>
        <time>2021-11-21T18:31:17.109Z</time>
      </trkpt>
      <trkpt lat="47.561629" lon="8.143405">
        <ele>367.607808</ele>
        <time>2021-11-21T18:31:20.787Z</time>
      </trkpt>
      <trkpt lat="47.561569" lon="8.142863">
        <ele>367.028319</ele>
        <time>2021-11-21T18:31:24.858Z</time>
      </trkpt>
      <trkpt lat="47.561548" lon="8.142491">
        <ele>366.634463</ele>
        <time>2021-11-21T18:31:27.738Z</time>
      </trkpt>
      <trkpt lat="47.561542" lon="8.142165">
        <ele>366.290383</ele>
        <time>2021-11-21T18:31:30.233Z</time>
      </trkpt>
      <trkpt lat="47.561548" lon="8.141908">
        <ele>366.019068</ele>
        <time>2021-11-21T18:31:32.477Z</time>
      </trkpt>
      <trkpt lat="47.561563" lon="8.141574">
        <ele>365.823674</ele>
        <time>2021-11-21T18:31:35.277Z</time>
      </trkpt>
      <trkpt lat="47.561574" lon="8.141379">
        <ele>365.906605</ele>
        <time>2021-11-21T18:31:37.138Z</time>
      </trkpt>
      <trkpt lat="47.561660" lon="8.140164">
        <ele>366.424358</ele>
        <time>2021-11-21T18:31:49.611Z</time>
      </trkpt>
      <trkpt lat="47.561507" lon="8.138771">
        <ele>366.997334</ele>
        <time>2021-11-21T18:32:10.755Z</time>
      </trkpt>
      <trkpt lat="47.561504" lon="8.138613">
        <ele>367.049588</ele>
        <time>2021-11-21T18:32:12.941Z</time>
      </trkpt>
      <trkpt lat="47.561520" lon="8.138020">
        <ele>367.245787</ele>
        <time>2021-11-21T18:32:21.650Z</time>
      </trkpt>
      <trkpt lat="47.561531" lon="8.137825">
        <ele>367.310478</ele>
        <time>2021-11-21T18:32:24.484Z</time>
      </trkpt>
      <trkpt lat="47.561548" lon="8.137622">
        <ele>367.378104</ele>
        <time>2021-11-21T18:32:26.605Z</time>
      </trkpt>
      <trkpt lat="47.561574" lon="8.137322">
        <ele>367.478096</ele>
        <time>2021-11-21T18:32:29.721Z</time>
      </trkpt>
      <trkpt lat="47.561604" lon="8.136996">
        <ele>367.586867</ele>
        <time>2021-11-21T18:32:32.979Z</time>
      </trkpt>
      <trkpt lat="47.561651" lon="8.136422">
        <ele>367.778020</ele>
        <time>2021-11-21T18:32:38.360Z</time>
      </trkpt>
      <trkpt lat="47.561673" lon="8.136111">
        <ele>366.999450</ele>
        <time>2021-11-21T18:32:41.186Z</time>
      </trkpt>
      <trkpt lat="47.561695" lon="8.135815">
        <ele>366.155275</ele>
        <time>2021-11-21T18:32:43.291Z</time>
      </trkpt>
      <trkpt lat="47.561699" lon="8.135702">
        <ele>365.834502</ele>
        <time>2021-11-21T18:32:44.093Z</time>
      </trkpt>
      <trkpt lat="47.561711" lon="8.135438">
        <ele>365.084419</ele>
        <time>2021-11-21T18:32:45.810Z</time>
      </trkpt>
      <trkpt lat="47.561720" lon="8.135210">
        <ele>364.436981</ele>
        <time>2021-11-21T18:32:47.288Z</time>
      </trkpt>
      <trkpt lat="47.561725" lon="8.133913">
        <ele>360.760189</ele>
        <time>2021-11-21T18:32:55.357Z</time>
      </trkpt>
      <trkpt lat="47.561698" lon="8.133720">
        <ele>360.197789</ele>
        <time>2021-11-21T18:32:56.617Z</time>
      </trkpt>
      <trkpt lat="47.561664" lon="8.133579">
        <ele>359.724600</ele>
        <time>2021-11-21T18:32:57.557Z</time>
      </trkpt>
      <trkpt lat="47.561623" lon="8.133432">
        <ele>359.221927</ele>
        <time>2021-11-21T18:32:58.493Z</time>
      </trkpt>
      <trkpt lat="47.561195" lon="8.132668">
        <ele>356.083898</ele>
        <time>2021-11-21T18:33:04.876Z</time>
      </trkpt>
      <trkpt lat="47.561161" lon="8.132610">
        <ele>355.841098</ele>
        <time>2021-11-21T18:33:05.311Z</time>
      </trkpt>
      <trkpt lat="47.561056" lon="8.132422">
        <ele>355.069865</ele>
        <time>2021-11-21T18:33:06.998Z</time>
      </trkpt>
      <trkpt lat="47.561185" lon="8.132211">
        <ele>354.170071</ele>
        <time>2021-11-21T18:33:08.741Z</time>
      </trkpt>
      <trkpt lat="47.561796" lon="8.130897">
        <ele>350.659741</ele>
        <time>2021-11-21T18:33:19.729Z</time>
      </trkpt>
      <trkpt lat="47.562119" lon="8.130197">
        <ele>349.510922</ele>
        <time>2021-11-21T18:33:26.407Z</time>
      </trkpt>
      <trkpt lat="47.562169" lon="8.130101">
        <ele>349.346635</ele>
        <time>2021-11-21T18:33:27.408Z</time>
      </trkpt>
      <trkpt lat="47.562200" lon="8.130042">
        <ele>349.245334</ele>
        <time>2021-11-21T18:33:28.037Z</time>
      </trkpt>
      <trkpt lat="47.562419" lon="8.129559">
        <ele>348.457012</ele>
        <time>2021-11-21T18:33:32.650Z</time>
      </trkpt>
      <trkpt lat="47.562583" lon="8.129216">
        <ele>347.990350</ele>
        <time>2021-11-21T18:33:35.914Z</time>
      </trkpt>
      <trkpt lat="47.562839" lon="8.128684">
        <ele>347.397611</ele>
        <time>2021-11-21T18:33:40.932Z</time>
      </trkpt>
      <trkpt lat="47.562984" lon="8.128403">
        <ele>347.076716</ele>
        <time>2021-11-21T18:33:43.733Z</time>
      </trkpt>
      <trkpt lat="47.563096" lon="8.128178">
        <ele>346.823084</ele>
        <time>2021-11-21T18:33:46.187Z</time>
      </trkpt>
      <trkpt lat="47.563232" lon="8.127932">
        <ele>346.534598</ele>
        <time>2021-11-21T18:33:48.649Z</time>
      </trkpt>
      <trkpt lat="47.563398" lon="8.127697">
        <ele>346.225981</ele>
        <time>2021-11-21T18:33:51.263Z</time>
      </trkpt>
      <trkpt lat="47.563589" lon="8.127466">
        <ele>345.894560</ele>
        <time>2021-11-21T18:33:55.246Z</time>
      </trkpt>
      <trkpt lat="47.563627" lon="8.127420">
        <ele>345.828599</ele>
        <time>2021-11-21T18:33:55.684Z</time>
      </trkpt>
      <trkpt lat="47.563751" lon="8.127247">
        <ele>345.507600</ele>
        <time>2021-11-21T18:33:57.507Z</time>
      </trkpt>
      <trkpt lat="47.563829" lon="8.127101">
        <ele>345.252821</ele>
        <time>2021-11-21T18:34:00.152Z</time>
      </trkpt>
      <trkpt lat="47.563898" lon="8.126936">
        <ele>344.987239</ele>
        <time>2021-11-21T18:34:03.796Z</time>
      </trkpt>
      <trkpt lat="47.563932" lon="8.126822">
        <ele>344.816713</ele>
        <time>2021-11-21T18:34:06.354Z</time>
      </trkpt>
      <trkpt lat="47.563935" lon="8.126813">
        <ele>344.802979</ele>
        <time>2021-11-21T18:34:06.540Z</time>
      </trkpt>
      <trkpt lat="47.563988" lon="8.126616">
        <ele>344.512820</ele>
        <time>2021-11-21T18:34:12.755Z</time>
      </trkpt>
      <trkpt lat="47.564016" lon="8.126515">
        <ele>344.363429</ele>
        <time>2021-11-21T18:34:14.660Z</time>
      </trkpt>
      <trkpt lat="47.564050" lon="8.126343">
        <ele>344.118218</ele>
        <time>2021-11-21T18:34:18.415Z</time>
      </trkpt>
      <trkpt lat="47.564078" lon="8.126253">
        <ele>343.982627</ele>
        <time>2021-11-21T18:34:20.903Z</time>
      </trkpt>
      <trkpt lat="47.564142" lon="8.126069">
        <ele>343.699410</ele>
        <time>2021-11-21T18:34:25.418Z</time>
      </trkpt>
      <trkpt lat="47.564204" lon="8.125933">
        <ele>343.474857</ele>
        <time>2021-11-21T18:34:26.521Z</time>
      </trkpt>
      <trkpt lat="47.564281" lon="8.125780">
        <ele>343.213720</ele>
        <time>2021-11-21T18:34:28.103Z</time>
      </trkpt>
      <trkpt lat="47.564404" lon="8.125557">
        <ele>342.819664</ele>
        <time>2021-11-21T18:34:30.150Z</time>
      </trkpt>
      <trkpt lat="47.564445" lon="8.125480">
        <ele>342.685468</ele>
        <time>2021-11-21T18:34:30.794Z</time>
      </trkpt>
      <trkpt lat="47.564862" lon="8.124663">
        <ele>341.104098</ele>
        <time>2021-11-21T18:34:38.160Z</time>
      </trkpt>
      <trkpt lat="47.565033" lon="8.124341">
        <ele>340.424862</ele>
        <time>2021-11-21T18:34:41.098Z</time>
      </trkpt>
      <trkpt lat="47.565098" lon="8.124202">
        <ele>340.144530</ele>
        <time>2021-11-21T18:34:42.219Z</time>
      </trkpt>
      <trkpt lat="47.565268" lon="8.123888">
        <ele>339.477205</ele>
        <time>2021-11-21T18:34:44.999Z</time>
      </trkpt>
      <trkpt lat="47.565326" lon="8.123776">
        <ele>339.243179</ele>
        <time>2021-11-21T18:34:45.918Z</time>
      </trkpt>
      <trkpt lat="47.565434" lon="8.123568">
        <ele>338.808130</ele>
        <time>2021-11-21T18:34:47.820Z</time>
      </trkpt>
      <trkpt lat="47.565629" lon="8.123189">
        <ele>338.018096</ele>
        <time>2021-11-21T18:34:51.324Z</time>
      </trkpt>
      <trkpt lat="47.565954" lon="8.122541">
        <ele>337.252197</ele>
        <time>2021-11-21T18:34:57.664Z</time>
      </trkpt>
      <trkpt lat="47.566102" lon="8.122133">
        <ele>336.908832</ele>
        <time>2021-11-21T18:35:01.533Z</time>
      </trkpt>
      <trkpt lat="47.566119" lon="8.122027">
        <ele>336.828070</ele>
        <time>2021-11-21T18:35:02.377Z</time>
      </trkpt>
      <trkpt lat="47.566151" lon="8.121930">
        <ele>336.748035</ele>
        <time>2021-11-21T18:35:03.472Z</time>
      </trkpt>
      <trkpt lat="47.566318" lon="8.120964">
        <ele>336.008860</ele>
        <time>2021-11-21T18:35:11.676Z</time>
      </trkpt>
      <trkpt lat="47.566366" lon="8.120637">
        <ele>335.760803</ele>
        <time>2021-11-21T18:35:14.499Z</time>
      </trkpt>
      <trkpt lat="47.566398" lon="8.120421">
        <ele>335.582891</ele>
        <time>2021-11-21T18:35:16.608Z</time>
      </trkpt>
      <trkpt lat="47.566431" lon="8.120180">
        <ele>335.382709</ele>
        <time>2021-11-21T18:35:18.608Z</time>
      </trkpt>
      <trkpt lat="47.566474" lon="8.119870">
        <ele>335.125081</ele>
        <time>2021-11-21T18:35:21.469Z</time>
      </trkpt>
      <trkpt lat="47.566566" lon="8.119245">
        <ele>334.604343</ele>
        <time>2021-11-21T18:35:26.791Z</time>
      </trkpt>
      <trkpt lat="47.566580" lon="8.119152">
        <ele>334.526776</ele>
        <time>2021-11-21T18:35:27.461Z</time>
      </trkpt>
      <trkpt lat="47.566644" lon="8.118715">
        <ele>334.162761</ele>
        <time>2021-11-21T18:35:31.074Z</time>
      </trkpt>
      <trkpt lat="47.566733" lon="8.118099">
        <ele>333.649950</ele>
        <time>2021-11-21T18:35:35.737Z</time>
      </trkpt>
      <trkpt lat="47.566811" lon="8.117556">
        <ele>333.313570</ele>
        <time>2021-11-21T18:35:39.910Z</time>
      </trkpt>
      <trkpt lat="47.566944" lon="8.116530">
        <ele>332.727742</ele>
        <time>2021-11-21T18:35:48.953Z</time>
      </trkpt>
      <trkpt lat="47.566983" lon="8.116203">
        <ele>332.541541</ele>
        <time>2021-11-21T18:35:51.895Z</time>
      </trkpt>
      <trkpt lat="47.567009" lon="8.116010">
        <ele>332.431185</ele>
        <time>2021-11-21T18:35:54.570Z</time>
      </trkpt>
      <trkpt lat="47.567157" lon="8.115310">
        <ele>332.018282</ele>
        <time>2021-11-21T18:36:00.829Z</time>
      </trkpt>
      <trkpt lat="47.567411" lon="8.114753">
        <ele>331.630469</ele>
        <time>2021-11-21T18:36:06.490Z</time>
      </trkpt>
      <trkpt lat="47.567654" lon="8.114290">
        <ele>331.292096</ele>
        <time>2021-11-21T18:36:11.809Z</time>
      </trkpt>
      <trkpt lat="47.567881" lon="8.113862">
        <ele>330.978055</ele>
        <time>2021-11-21T18:36:16.810Z</time>
      </trkpt>
      <trkpt lat="47.568167" lon="8.113323">
        <ele>330.582502</ele>
        <time>2021-11-21T18:36:22.758Z</time>
      </trkpt>
      <trkpt lat="47.568835" lon="8.112063">
        <ele>327.525833</ele>
        <time>2021-11-21T18:36:34.094Z</time>
      </trkpt>
      <trkpt lat="47.569083" lon="8.111567">
        <ele>326.305551</ele>
        <time>2021-11-21T18:36:38.282Z</time>
      </trkpt>
      <trkpt lat="47.569107" lon="8.111522">
        <ele>326.192168</ele>
        <time>2021-11-21T18:36:38.610Z</time>
      </trkpt>
      <trkpt lat="47.569423" lon="8.110628">
        <ele>324.409673</ele>
        <time>2021-11-21T18:36:45.425Z</time>
      </trkpt>
      <trkpt lat="47.569495" lon="8.110499">
        <ele>324.144435</ele>
        <time>2021-11-21T18:36:46.422Z</time>
      </trkpt>
      <trkpt lat="47.569574" lon="8.110385">
        <ele>323.885533</ele>
        <time>2021-11-21T18:36:47.487Z</time>
      </trkpt>
      <trkpt lat="47.569664" lon="8.110262">
        <ele>323.598072</ele>
        <time>2021-11-21T18:36:49.836Z</time>
      </trkpt>
      <trkpt lat="47.569787" lon="8.110094">
        <ele>323.205316</ele>
        <time>2021-11-21T18:36:51.392Z</time>
      </trkpt>
      <trkpt lat="47.569974" lon="8.109825">
        <ele>322.593410</ele>
        <time>2021-11-21T18:36:54.283Z</time>
      </trkpt>
      <trkpt lat="47.570263" lon="8.109376">
        <ele>321.610299</ele>
        <time>2021-11-21T18:36:58.863Z</time>
      </trkpt>
      <trkpt lat="47.570283" lon="8.109343">
        <ele>321.540023</ele>
        <time>2021-11-21T18:36:59.163Z</time>
      </trkpt>
      <trkpt lat="47.570582" lon="8.108889">
        <ele>321.557954</ele>
        <time>2021-11-21T18:37:04.748Z</time>
      </trkpt>
      <trkpt lat="47.570830" lon="8.108502">
        <ele>322.411652</ele>
        <time>2021-11-21T18:37:15.073Z</time>
      </trkpt>
      <trkpt lat="47.571253" lon="8.107823">
        <ele>323.889837</ele>
        <time>2021-11-21T18:37:34.435Z</time>
      </trkpt>
      <trkpt lat="47.571440" lon="8.107260">
        <ele>324.893524</ele>
        <time>2021-11-21T18:37:47.273Z</time>
      </trkpt>
      <trkpt lat="47.571458" lon="8.107087">
        <ele>325.173495</ele>
        <time>2021-11-21T18:37:51.397Z</time>
      </trkpt>
      <trkpt lat="47.571460" lon="8.106995">
        <ele>325.304546</ele>
        <time>2021-11-21T18:37:53.030Z</time>
      </trkpt>
      <trkpt lat="47.571460" lon="8.106980">
        <ele>325.298069</ele>
        <time>2021-11-21T18:37:53.194Z</time>
      </trkpt>
      <trkpt lat="47.571461" lon="8.106820">
        <ele>325.228973</ele>
        <time>2021-11-21T18:37:54.624Z</time>
      </trkpt>
      <trkpt lat="47.571440" lon="8.106588">
        <ele>325.127890</ele>
        <time>2021-11-21T18:37:57.452Z</time>
      </trkpt>
      <trkpt lat="47.571298" lon="8.105561">
        <ele>324.675180</ele>
        <time>2021-11-21T18:38:05.765Z</time>
      </trkpt>
      <trkpt lat="47.571251" lon="8.105188">
        <ele>324.511321</ele>
        <time>2021-11-21T18:38:08.672Z</time>
      </trkpt>
      <trkpt lat="47.571234" lon="8.105037">
        <ele>324.445212</ele>
        <time>2021-11-21T18:38:10.310Z</time>
      </trkpt>
      <trkpt lat="47.571214" lon="8.104836">
        <ele>324.357475</ele>
        <time>2021-11-21T18:38:11.962Z</time>
      </trkpt>
      <trkpt lat="47.571252" lon="8.104668">
        <ele>324.280958</ele>
        <time>2021-11-21T18:38:13.457Z</time>
      </trkpt>
      <trkpt lat="47.571285" lon="8.104547">
        <ele>324.224598</ele>
        <time>2021-11-21T18:38:14.378Z</time>
      </trkpt>
      <trkpt lat="47.571319" lon="8.104520">
        <ele>324.199910</ele>
        <time>2021-11-21T18:38:14.796Z</time>
      </trkpt>
      <trkpt lat="47.571345" lon="8.104476">
        <ele>324.174651</ele>
        <time>2021-11-21T18:38:15.184Z</time>
      </trkpt>
      <trkpt lat="47.571359" lon="8.104422">
        <ele>324.152363</ele>
        <time>2021-11-21T18:38:15.557Z</time>
      </trkpt>
      <trkpt lat="47.571359" lon="8.104365">
        <ele>324.137128</ele>
        <time>2021-11-21T18:38:15.993Z</time>
      </trkpt>
      <trkpt lat="47.571346" lon="8.104311">
        <ele>324.121804</ele>
        <time>2021-11-21T18:38:16.377Z</time>
      </trkpt>
      <trkpt lat="47.571354" lon="8.104222">
        <ele>324.097806</ele>
        <time>2021-11-21T18:38:17.407Z</time>
      </trkpt>
      <trkpt lat="47.571310" lon="8.104135">
        <ele>324.068744</ele>
        <time>2021-11-21T18:38:18.148Z</time>
      </trkpt>
      <trkpt lat="47.571041" lon="8.104109">
        <ele>323.961950</ele>
        <time>2021-11-21T18:38:21.020Z</time>
      </trkpt>
      <trkpt lat="47.570788" lon="8.103933">
        <ele>323.851231</ele>
        <time>2021-11-21T18:38:23.998Z</time>
      </trkpt>
      <trkpt lat="47.570667" lon="8.103884">
        <ele>323.801538</ele>
        <time>2021-11-21T18:38:25.701Z</time>
      </trkpt>
      <trkpt lat="47.570391" lon="8.103841">
        <ele>323.691595</ele>
        <time>2021-11-21T18:38:34.554Z</time>
      </trkpt>
      <trkpt lat="47.570159" lon="8.103813">
        <ele>323.599381</ele>
        <time>2021-11-21T18:38:38.642Z</time>
      </trkpt>
      <trkpt lat="47.569557" lon="8.103677">
        <ele>324.013000</ele>
        <time>2021-11-21T18:38:54.982Z</time>
      </trkpt>
      <trkpt lat="47.567683" lon="8.103272">
        <ele>328.972933</ele>
        <time>2021-11-21T18:39:43.248Z</time>
      </trkpt>
      <trkpt lat="47.566684" lon="8.102974">
        <ele>331.642403</ele>
        <time>2021-11-21T18:40:09.396Z</time>
      </trkpt>
      <trkpt lat="47.565727" lon="8.102512">
        <ele>333.900814</ele>
        <time>2021-11-21T18:40:34.668Z</time>
      </trkpt>
      <trkpt lat="47.564165" lon="8.101615">
        <ele>337.370984</ele>
        <time>2021-11-21T18:41:09.857Z</time>
      </trkpt>
      <trkpt lat="47.563202" lon="8.101042">
        <ele>340.002444</ele>
        <time>2021-11-21T18:41:35.671Z</time>
      </trkpt>
      <trkpt lat="47.563202" lon="8.101042">
        <ele>340.002444</ele>
        <time>2021-11-21T18:41:35.760Z</time>
      </trkpt>
      <trkpt lat="47.563202" lon="8.101042">
        <ele>340.002444</ele>
        <time>2021-11-21T18:41:35.767Z</time>
      </trkpt>
      <trkpt lat="47.563031" lon="8.100935">
        <ele>340.473136</ele>
        <time>2021-11-21T18:41:42.650Z</time>
      </trkpt>
      <trkpt lat="47.562207" lon="8.100413">
        <ele>343.066980</ele>
        <time>2021-11-21T18:42:13.091Z</time>
      </trkpt>
      <trkpt lat="47.561466" lon="8.099697">
        <ele>345.696173</ele>
        <time>2021-11-21T18:42:43.991Z</time>
      </trkpt>
      <trkpt lat="47.560787" lon="8.098864">
        <ele>345.039235</ele>
        <time>2021-11-21T18:43:03.661Z</time>
      </trkpt>
      <trkpt lat="47.560171" lon="8.097877">
        <ele>343.513086</ele>
        <time>2021-11-21T18:43:17.241Z</time>
      </trkpt>
      <trkpt lat="47.559606" lon="8.096837">
        <ele>339.342572</ele>
        <time>2021-11-21T18:43:29.253Z</time>
      </trkpt>
      <trkpt lat="47.558983" lon="8.095482">
        <ele>333.393000</ele>
        <time>2021-11-21T18:43:43.781Z</time>
      </trkpt>
      <trkpt lat="47.558857" lon="8.095293">
        <ele>332.660098</ele>
        <time>2021-11-21T18:43:46.273Z</time>
      </trkpt>
      <trkpt lat="47.558776" lon="8.095210">
        <ele>332.257523</ele>
        <time>2021-11-21T18:43:47.522Z</time>
      </trkpt>
      <trkpt lat="47.558531" lon="8.094661">
        <ele>330.441812</ele>
        <time>2021-11-21T18:43:51.803Z</time>
      </trkpt>
      <trkpt lat="47.557677" lon="8.092776">
        <ele>324.056138</ele>
        <time>2021-11-21T18:44:07.228Z</time>
      </trkpt>
      <trkpt lat="47.556850" lon="8.091457">
        <ele>318.777473</ele>
        <time>2021-11-21T18:44:18.852Z</time>
      </trkpt>
      <trkpt lat="47.556692" lon="8.091113">
        <ele>317.565545</ele>
        <time>2021-11-21T18:44:21.456Z</time>
      </trkpt>
      <trkpt lat="47.556527" lon="8.090721">
        <ele>316.225482</ele>
        <time>2021-11-21T18:44:24.336Z</time>
      </trkpt>
      <trkpt lat="47.556259" lon="8.090058">
        <ele>313.983804</ele>
        <time>2021-11-21T18:44:29.249Z</time>
      </trkpt>
      <trkpt lat="47.556193" lon="8.089926">
        <ele>313.507290</ele>
        <time>2021-11-21T18:44:30.380Z</time>
      </trkpt>
      <trkpt lat="47.556110" lon="8.089809">
        <ele>313.014913</ele>
        <time>2021-11-21T18:44:31.458Z</time>
      </trkpt>
      <trkpt lat="47.556137" lon="8.089730">
        <ele>312.758055</ele>
        <time>2021-11-21T18:44:32.011Z</time>
      </trkpt>
      <trkpt lat="47.556151" lon="8.089459">
        <ele>311.969690</ele>
        <time>2021-11-21T18:44:33.854Z</time>
      </trkpt>
      <trkpt lat="47.556111" lon="8.089266">
        <ele>311.384067</ele>
        <time>2021-11-21T18:44:35.143Z</time>
      </trkpt>
      <trkpt lat="47.556065" lon="8.089084">
        <ele>310.820348</ele>
        <time>2021-11-21T18:44:36.453Z</time>
      </trkpt>
      <trkpt lat="47.555997" lon="8.088801">
        <ele>310.698188</ele>
        <time>2021-11-21T18:44:38.762Z</time>
      </trkpt>
      <trkpt lat="47.555991" lon="8.088778">
        <ele>310.711190</ele>
        <time>2021-11-21T18:44:39.000Z</time>
      </trkpt>
      <trkpt lat="47.555939" lon="8.088552">
        <ele>310.837094</ele>
        <time>2021-11-21T18:44:40.830Z</time>
      </trkpt>
      <trkpt lat="47.555887" lon="8.088299">
        <ele>310.976549</ele>
        <time>2021-11-21T18:44:43.341Z</time>
      </trkpt>
      <trkpt lat="47.555829" lon="8.087941">
        <ele>311.170684</ele>
        <time>2021-11-21T18:44:47.157Z</time>
      </trkpt>
      <trkpt lat="47.555809" lon="8.087783">
        <ele>311.255449</ele>
        <time>2021-11-21T18:44:48.769Z</time>
      </trkpt>
      <trkpt lat="47.555780" lon="8.087557">
        <ele>311.376753</ele>
        <time>2021-11-21T18:44:50.945Z</time>
      </trkpt>
      <trkpt lat="47.555737" lon="8.087083">
        <ele>311.628939</ele>
        <time>2021-11-21T18:44:58.572Z</time>
      </trkpt>
      <trkpt lat="47.555733" lon="8.086819">
        <ele>311.768180</ele>
        <time>2021-11-21T18:45:03.594Z</time>
      </trkpt>
      <trkpt lat="47.555764" lon="8.085769">
        <ele>313.904620</ele>
        <time>2021-11-21T18:45:25.430Z</time>
      </trkpt>
      <trkpt lat="47.555899" lon="8.084472">
        <ele>317.873776</ele>
        <time>2021-11-21T18:45:54.841Z</time>
      </trkpt>
      <trkpt lat="47.555956" lon="8.084115">
        <ele>318.983327</ele>
        <time>2021-11-21T18:46:03.595Z</time>
      </trkpt>
      <trkpt lat="47.556083" lon="8.083354">
        <ele>321.528435</ele>
        <time>2021-11-21T18:46:21.793Z</time>
      </trkpt>
      <trkpt lat="47.556470" lon="8.081563">
        <ele>327.975004</ele>
        <time>2021-11-21T18:47:08.523Z</time>
      </trkpt>
      <trkpt lat="47.556853" lon="8.080477">
        <ele>330.809999</ele>
        <time>2021-11-21T18:47:34.595Z</time>
      </trkpt>
      <trkpt lat="47.557099" lon="8.079786">
        <ele>332.265134</ele>
        <time>2021-11-21T18:47:48.920Z</time>
      </trkpt>
      <trkpt lat="47.557256" lon="8.079416">
        <ele>333.079185</ele>
        <time>2021-11-21T18:47:55.640Z</time>
      </trkpt>
      <trkpt lat="47.557793" lon="8.078299">
        <ele>333.664914</ele>
        <time>2021-11-21T18:48:11.941Z</time>
      </trkpt>
      <trkpt lat="47.558613" lon="8.076826">
        <ele>332.484878</ele>
        <time>2021-11-21T18:48:26.505Z</time>
      </trkpt>
      <trkpt lat="47.559046" lon="8.076086">
        <ele>331.438422</ele>
        <time>2021-11-21T18:48:33.885Z</time>
      </trkpt>
      <trkpt lat="47.559426" lon="8.075372">
        <ele>330.466879</ele>
        <time>2021-11-21T18:48:40.883Z</time>
      </trkpt>
      <trkpt lat="47.559811" lon="8.074398">
        <ele>329.266548</ele>
        <time>2021-11-21T18:48:49.777Z</time>
      </trkpt>
      <trkpt lat="47.560318" lon="8.072316">
        <ele>326.933692</ele>
        <time>2021-11-21T18:49:07.049Z</time>
      </trkpt>
      <trkpt lat="47.560524" lon="8.071179">
        <ele>325.150337</ele>
        <time>2021-11-21T18:49:15.614Z</time>
      </trkpt>
      <trkpt lat="47.560553" lon="8.071099">
        <ele>325.010577</ele>
        <time>2021-11-21T18:49:16.225Z</time>
      </trkpt>
      <trkpt lat="47.560584" lon="8.070919">
        <ele>324.724678</ele>
        <time>2021-11-21T18:49:17.536Z</time>
      </trkpt>
      <trkpt lat="47.560739" lon="8.070551">
        <ele>324.057059</ele>
        <time>2021-11-21T18:49:20.622Z</time>
      </trkpt>
      <trkpt lat="47.560864" lon="8.070015">
        <ele>323.184288</ele>
        <time>2021-11-21T18:49:24.644Z</time>
      </trkpt>
      <trkpt lat="47.560904" lon="8.069780">
        <ele>322.811297</ele>
        <time>2021-11-21T18:49:26.389Z</time>
      </trkpt>
      <trkpt lat="47.560998" lon="8.069237">
        <ele>322.303470</ele>
        <time>2021-11-21T18:49:30.469Z</time>
      </trkpt>
      <trkpt lat="47.561130" lon="8.068650">
        <ele>321.762764</ele>
        <time>2021-11-21T18:49:35.139Z</time>
      </trkpt>
      <trkpt lat="47.561187" lon="8.068256">
        <ele>321.410629</ele>
        <time>2021-11-21T18:49:38.416Z</time>
      </trkpt>
      <trkpt lat="47.561229" lon="8.067903">
        <ele>321.097388</ele>
        <time>2021-11-21T18:49:41.455Z</time>
      </trkpt>
      <trkpt lat="47.561265" lon="8.067435">
        <ele>320.685761</ele>
        <time>2021-11-21T18:49:45.438Z</time>
      </trkpt>
      <trkpt lat="47.561276" lon="8.067022">
        <ele>320.435159</ele>
        <time>2021-11-21T18:49:49.355Z</time>
      </trkpt>
      <trkpt lat="47.561253" lon="8.066385">
        <ele>320.409487</ele>
        <time>2021-11-21T18:49:55.870Z</time>
      </trkpt>
      <trkpt lat="47.561189" lon="8.065880">
        <ele>320.388809</ele>
        <time>2021-11-21T18:50:01.250Z</time>
      </trkpt>
      <trkpt lat="47.561108" lon="8.065242">
        <ele>320.362683</ele>
        <time>2021-11-21T18:50:08.236Z</time>
      </trkpt>
      <trkpt lat="47.561017" lon="8.064820">
        <ele>320.344854</ele>
        <time>2021-11-21T18:50:12.876Z</time>
      </trkpt>
      <trkpt lat="47.560887" lon="8.064271">
        <ele>320.188653</ele>
        <time>2021-11-21T18:50:18.073Z</time>
      </trkpt>
      <trkpt lat="47.560806" lon="8.064037">
        <ele>320.058884</ele>
        <time>2021-11-21T18:50:20.342Z</time>
      </trkpt>
      <trkpt lat="47.560719" lon="8.063873">
        <ele>319.955948</ele>
        <time>2021-11-21T18:50:22.126Z</time>
      </trkpt>
      <trkpt lat="47.560392" lon="8.063300">
        <ele>319.585657</ele>
        <time>2021-11-21T18:50:28.419Z</time>
      </trkpt>
      <trkpt lat="47.560335" lon="8.063169">
        <ele>319.508744</ele>
        <time>2021-11-21T18:50:29.766Z</time>
      </trkpt>
      <trkpt lat="47.560443" lon="8.063042">
        <ele>319.407928</ele>
        <time>2021-11-21T18:50:31.435Z</time>
      </trkpt>
      <trkpt lat="47.560545" lon="8.062928">
        <ele>319.314509</ele>
        <time>2021-11-21T18:50:33.002Z</time>
      </trkpt>
      <trkpt lat="47.560580" lon="8.062890">
        <ele>319.282782</ele>
        <time>2021-11-21T18:50:33.537Z</time>
      </trkpt>
      <trkpt lat="47.560673" lon="8.062786">
        <ele>319.197588</ele>
        <time>2021-11-21T18:50:35.608Z</time>
      </trkpt>
      <trkpt lat="47.560765" lon="8.062729">
        <ele>319.124672</ele>
        <time>2021-11-21T18:50:37.360Z</time>
      </trkpt>
      <trkpt lat="47.560570" lon="8.061926">
        <ele>318.716106</ele>
        <time>2021-11-21T18:50:44.716Z</time>
      </trkpt>
      <trkpt lat="47.560335" lon="8.060984">
        <ele>318.240300</ele>
        <time>2021-11-21T18:50:53.046Z</time>
      </trkpt>
      <trkpt lat="47.560293" lon="8.060828">
        <ele>318.160728</ele>
        <time>2021-11-21T18:50:54.477Z</time>
      </trkpt>
      <trkpt lat="47.560262" lon="8.060729">
        <ele>318.109022</ele>
        <time>2021-11-21T18:50:55.432Z</time>
      </trkpt>
      <trkpt lat="47.560130" lon="8.060196">
        <ele>317.840036</ele>
        <time>2021-11-21T18:51:00.631Z</time>
      </trkpt>
      <trkpt lat="47.560069" lon="8.059943">
        <ele>317.738560</ele>
        <time>2021-11-21T18:51:03.042Z</time>
      </trkpt>
      <trkpt lat="47.560040" lon="8.059827">
        <ele>317.715543</ele>
        <time>2021-11-21T18:51:04.261Z</time>
      </trkpt>
      <trkpt lat="47.560019" lon="8.059741">
        <ele>317.698526</ele>
        <time>2021-11-21T18:51:05.151Z</time>
      </trkpt>
      <trkpt lat="47.559979" lon="8.059591">
        <ele>317.668516</ele>
        <time>2021-11-21T18:51:06.611Z</time>
      </trkpt>
      <trkpt lat="47.559859" lon="8.059093">
        <ele>317.570126</ele>
        <time>2021-11-21T18:51:11.633Z</time>
      </trkpt>
      <trkpt lat="47.559784" lon="8.058791">
        <ele>317.510251</ele>
        <time>2021-11-21T18:51:14.712Z</time>
      </trkpt>
      <trkpt lat="47.559725" lon="8.058554">
        <ele>317.463248</ele>
        <time>2021-11-21T18:51:17.046Z</time>
      </trkpt>
      <trkpt lat="47.559654" lon="8.058257">
        <ele>317.404622</ele>
        <time>2021-11-21T18:51:20.001Z</time>
      </trkpt>
      <trkpt lat="47.559579" lon="8.057955">
        <ele>317.344746</ele>
        <time>2021-11-21T18:51:22.904Z</time>
      </trkpt>
      <trkpt lat="47.559548" lon="8.057827">
        <ele>317.319442</ele>
        <time>2021-11-21T18:51:24.200Z</time>
      </trkpt>
      <trkpt lat="47.559447" lon="8.057490">
        <ele>317.254554</ele>
        <time>2021-11-21T18:51:27.627Z</time>
      </trkpt>
      <trkpt lat="47.559294" lon="8.057130">
        <ele>317.210109</ele>
        <time>2021-11-21T18:51:31.765Z</time>
      </trkpt>
      <trkpt lat="47.559116" lon="8.056760">
        <ele>317.162640</ele>
        <time>2021-11-21T18:51:36.204Z</time>
      </trkpt>
      <trkpt lat="47.558662" lon="8.056061">
        <ele>317.061289</ele>
        <time>2021-11-21T18:51:45.540Z</time>
      </trkpt>
      <trkpt lat="47.558447" lon="8.055831">
        <ele>317.020239</ele>
        <time>2021-11-21T18:51:49.071Z</time>
      </trkpt>
      <trkpt lat="47.558239" lon="8.055639">
        <ele>316.982303</ele>
        <time>2021-11-21T18:51:52.753Z</time>
      </trkpt>
      <trkpt lat="47.558012" lon="8.055477">
        <ele>316.982976</ele>
        <time>2021-11-21T18:51:56.397Z</time>
      </trkpt>
      <trkpt lat="47.557918" lon="8.055409">
        <ele>316.983880</ele>
        <time>2021-11-21T18:51:58.195Z</time>
      </trkpt>
      <trkpt lat="47.557710" lon="8.055283">
        <ele>316.985822</ele>
        <time>2021-11-21T18:52:01.561Z</time>
      </trkpt>
      <trkpt lat="47.557500" lon="8.055133">
        <ele>316.987836</ele>
        <time>2021-11-21T18:52:05.385Z</time>
      </trkpt>
      <trkpt lat="47.557273" lon="8.054941">
        <ele>316.990094</ele>
        <time>2021-11-21T18:52:09.625Z</time>
      </trkpt>
      <trkpt lat="47.557097" lon="8.054768">
        <ele>316.991919</ele>
        <time>2021-11-21T18:52:12.590Z</time>
      </trkpt>
      <trkpt lat="47.557019" lon="8.054678">
        <ele>316.992773</ele>
        <time>2021-11-21T18:52:14.395Z</time>
      </trkpt>
      <trkpt lat="47.556494" lon="8.054073">
        <ele>317.018183</ele>
        <time>2021-11-21T18:52:23.246Z</time>
      </trkpt>
      <trkpt lat="47.556239" lon="8.053780">
        <ele>317.047076</ele>
        <time>2021-11-21T18:52:27.653Z</time>
      </trkpt>
      <trkpt lat="47.556032" lon="8.053510">
        <ele>317.071768</ele>
        <time>2021-11-21T18:52:31.877Z</time>
      </trkpt>
      <trkpt lat="47.555890" lon="8.053286">
        <ele>317.090339</ele>
        <time>2021-11-21T18:52:35.513Z</time>
      </trkpt>
      <trkpt lat="47.555773" lon="8.053070">
        <ele>317.107076</ele>
        <time>2021-11-21T18:52:38.455Z</time>
      </trkpt>
      <trkpt lat="47.555603" lon="8.052757">
        <ele>317.131354</ele>
        <time>2021-11-21T18:52:42.676Z</time>
      </trkpt>
      <trkpt lat="47.555259" lon="8.052135">
        <ele>317.458093</ele>
        <time>2021-11-21T18:52:51.374Z</time>
      </trkpt>
      <trkpt lat="47.554988" lon="8.051475">
        <ele>318.082394</ele>
        <time>2021-11-21T18:53:00.364Z</time>
      </trkpt>
      <trkpt lat="47.554715" lon="8.050527">
        <ele>318.915301</ele>
        <time>2021-11-21T18:53:15.154Z</time>
      </trkpt>
      <trkpt lat="47.554412" lon="8.049127">
        <ele>320.557881</ele>
        <time>2021-11-21T18:53:37.715Z</time>
      </trkpt>
      <trkpt lat="47.554309" lon="8.048719">
        <ele>321.111842</ele>
        <time>2021-11-21T18:53:44.732Z</time>
      </trkpt>
      <trkpt lat="47.553996" lon="8.047557">
        <ele>322.700555</ele>
        <time>2021-11-21T18:54:03.962Z</time>
      </trkpt>
      <trkpt lat="47.553619" lon="8.046372">
        <ele>322.856240</ele>
        <time>2021-11-21T18:54:20.399Z</time>
      </trkpt>
      <trkpt lat="47.552844" lon="8.044355">
        <ele>321.867567</ele>
        <time>2021-11-21T18:54:40.190Z</time>
      </trkpt>
      <trkpt lat="47.552278" lon="8.042854">
        <ele>319.820935</ele>
        <time>2021-11-21T18:54:52.561Z</time>
      </trkpt>
      <trkpt lat="47.551627" lon="8.041127">
        <ele>317.034636</ele>
        <time>2021-11-21T18:55:06.948Z</time>
      </trkpt>
      <trkpt lat="47.551167" lon="8.039905">
        <ele>315.750949</ele>
        <time>2021-11-21T18:55:17.636Z</time>
      </trkpt>
      <trkpt lat="47.551001" lon="8.039426">
        <ele>315.496110</ele>
        <time>2021-11-21T18:55:22.007Z</time>
      </trkpt>
      <trkpt lat="47.550515" lon="8.038174">
        <ele>314.866239</ele>
        <time>2021-11-21T18:55:35.718Z</time>
      </trkpt>
      <trkpt lat="47.550424" lon="8.037956">
        <ele>315.006600</ele>
        <time>2021-11-21T18:55:38.688Z</time>
      </trkpt>
      <trkpt lat="47.550111" lon="8.037123">
        <ele>315.528670</ele>
        <time>2021-11-21T18:55:51.056Z</time>
      </trkpt>
      <trkpt lat="47.549832" lon="8.036349">
        <ele>316.009168</ele>
        <time>2021-11-21T18:56:02.339Z</time>
      </trkpt>
      <trkpt lat="47.549753" lon="8.036077">
        <ele>316.171320</ele>
        <time>2021-11-21T18:56:06.111Z</time>
      </trkpt>
      <trkpt lat="47.549699" lon="8.035900">
        <ele>316.277687</ele>
        <time>2021-11-21T18:56:08.443Z</time>
      </trkpt>
      <trkpt lat="47.549632" lon="8.035633">
        <ele>316.353910</ele>
        <time>2021-11-21T18:56:11.761Z</time>
      </trkpt>
      <trkpt lat="47.549554" lon="8.035288">
        <ele>316.437114</ele>
        <time>2021-11-21T18:56:16.053Z</time>
      </trkpt>
      <trkpt lat="47.549494" lon="8.034935">
        <ele>316.520360</ele>
        <time>2021-11-21T18:56:20.511Z</time>
      </trkpt>
      <trkpt lat="47.549442" lon="8.034584">
        <ele>316.602539</ele>
        <time>2021-11-21T18:56:23.915Z</time>
      </trkpt>
      <trkpt lat="47.549395" lon="8.034029">
        <ele>316.730453</ele>
        <time>2021-11-21T18:56:29.977Z</time>
      </trkpt>
      <trkpt lat="47.549394" lon="8.034003">
        <ele>316.736408</ele>
        <time>2021-11-21T18:56:31.453Z</time>
      </trkpt>
      <trkpt lat="47.549386" lon="8.033799">
        <ele>316.783138</ele>
        <time>2021-11-21T18:56:32.985Z</time>
      </trkpt>
      <trkpt lat="47.549374" lon="8.033423">
        <ele>316.869220</ele>
        <time>2021-11-21T18:56:37.500Z</time>
      </trkpt>
      <trkpt lat="47.549363" lon="8.032869">
        <ele>316.909544</ele>
        <time>2021-11-21T18:56:42.661Z</time>
      </trkpt>
      <trkpt lat="47.549368" lon="8.032544">
        <ele>316.912378</ele>
        <time>2021-11-21T18:56:45.258Z</time>
      </trkpt>
      <trkpt lat="47.549372" lon="8.031883">
        <ele>316.918140</ele>
        <time>2021-11-21T18:56:52.276Z</time>
      </trkpt>
      <trkpt lat="47.549378" lon="8.030790">
        <ele>316.927669</ele>
        <time>2021-11-21T18:57:02.936Z</time>
      </trkpt>
      <trkpt lat="47.549380" lon="8.030702">
        <ele>316.928436</ele>
        <time>2021-11-21T18:57:03.776Z</time>
      </trkpt>
      <trkpt lat="47.549418" lon="8.028906">
        <ele>317.470572</ele>
        <time>2021-11-21T18:57:24.484Z</time>
      </trkpt>
      <trkpt lat="47.549431" lon="8.028306">
        <ele>317.662579</ele>
        <time>2021-11-21T18:57:31.228Z</time>
      </trkpt>
      <trkpt lat="47.549445" lon="8.027599">
        <ele>317.910684</ele>
        <time>2021-11-21T18:57:39.405Z</time>
      </trkpt>
      <trkpt lat="47.549454" lon="8.027138">
        <ele>318.088321</ele>
        <time>2021-11-21T18:57:44.931Z</time>
      </trkpt>
      <trkpt lat="47.549436" lon="8.026046">
        <ele>318.509050</ele>
        <time>2021-11-21T18:57:58.215Z</time>
      </trkpt>
      <trkpt lat="47.549322" lon="8.024323">
        <ele>318.782686</ele>
        <time>2021-11-21T18:58:16.820Z</time>
      </trkpt>
      <trkpt lat="47.549268" lon="8.023385">
        <ele>318.757628</ele>
        <time>2021-11-21T18:58:26.267Z</time>
      </trkpt>
      <trkpt lat="47.549201" lon="8.022146">
        <ele>318.435544</ele>
        <time>2021-11-21T18:58:37.484Z</time>
      </trkpt>
      <trkpt lat="47.549191" lon="8.021436">
        <ele>317.984008</ele>
        <time>2021-11-21T18:58:43.451Z</time>
      </trkpt>
      <trkpt lat="47.549186" lon="8.021006">
        <ele>317.710562</ele>
        <time>2021-11-21T18:58:47.035Z</time>
      </trkpt>
      <trkpt lat="47.549208" lon="8.019997">
        <ele>317.068678</ele>
        <time>2021-11-21T18:58:55.269Z</time>
      </trkpt>
      <trkpt lat="47.549261" lon="8.017878">
        <ele>314.905491</ele>
        <time>2021-11-21T18:59:11.390Z</time>
      </trkpt>
      <trkpt lat="47.549256" lon="8.017769">
        <ele>314.793217</ele>
        <time>2021-11-21T18:59:12.255Z</time>
      </trkpt>
      <trkpt lat="47.549291" lon="8.017761">
        <ele>314.739296</ele>
        <time>2021-11-21T18:59:12.652Z</time>
      </trkpt>
      <trkpt lat="47.549324" lon="8.017738">
        <ele>314.683769</ele>
        <time>2021-11-21T18:59:13.041Z</time>
      </trkpt>
      <trkpt lat="47.549351" lon="8.017702">
        <ele>314.628463</ele>
        <time>2021-11-21T18:59:13.444Z</time>
      </trkpt>
      <trkpt lat="47.549370" lon="8.017656">
        <ele>314.573041</ele>
        <time>2021-11-21T18:59:13.902Z</time>
      </trkpt>
      <trkpt lat="47.549379" lon="8.017603">
        <ele>314.516877</ele>
        <time>2021-11-21T18:59:14.308Z</time>
      </trkpt>
      <trkpt lat="47.549377" lon="8.017547">
        <ele>314.459247</ele>
        <time>2021-11-21T18:59:14.866Z</time>
      </trkpt>
      <trkpt lat="47.549310" lon="8.017418">
        <ele>314.294419</ele>
        <time>2021-11-21T18:59:16.213Z</time>
      </trkpt>
      <trkpt lat="47.549274" lon="8.017401">
        <ele>314.248378</ele>
        <time>2021-11-21T18:59:16.694Z</time>
      </trkpt>
      <trkpt lat="47.549281" lon="8.017304">
        <ele>314.168148</ele>
        <time>2021-11-21T18:59:17.410Z</time>
      </trkpt>
      <trkpt lat="47.549431" lon="8.015998">
        <ele>313.078610</ele>
        <time>2021-11-21T18:59:28.155Z</time>
      </trkpt>
      <trkpt lat="47.549589" lon="8.015316">
        <ele>312.485591</ele>
        <time>2021-11-21T18:59:33.998Z</time>
      </trkpt>
      <trkpt lat="47.549795" lon="8.014667">
        <ele>311.856465</ele>
        <time>2021-11-21T18:59:39.814Z</time>
      </trkpt>
      <trkpt lat="47.549871" lon="8.014427">
        <ele>311.598925</ele>
        <time>2021-11-21T18:59:41.949Z</time>
      </trkpt>
      <trkpt lat="47.550001" lon="8.014034">
        <ele>311.173749</ele>
        <time>2021-11-21T18:59:45.337Z</time>
      </trkpt>
      <trkpt lat="47.550565" lon="8.012461">
        <ele>309.506473</ele>
        <time>2021-11-21T18:59:58.945Z</time>
      </trkpt>
      <trkpt lat="47.550764" lon="8.011985">
        <ele>309.389619</ele>
        <time>2021-11-21T19:00:03.444Z</time>
      </trkpt>
      <trkpt lat="47.551187" lon="8.011080">
        <ele>309.159878</ele>
        <time>2021-11-21T19:00:13.562Z</time>
      </trkpt>
      <trkpt lat="47.551275" lon="8.010934">
        <ele>309.119027</ele>
        <time>2021-11-21T19:00:15.372Z</time>
      </trkpt>
      <trkpt lat="47.551902" lon="8.009884">
        <ele>309.452892</ele>
        <time>2021-11-21T19:00:32.326Z</time>
      </trkpt>
      <trkpt lat="47.552604" lon="8.008677">
        <ele>310.596388</ele>
        <time>2021-11-21T19:00:54.806Z</time>
      </trkpt>
      <trkpt lat="47.552640" lon="8.008615">
        <ele>310.655084</ele>
        <time>2021-11-21T19:00:56.392Z</time>
      </trkpt>
      <trkpt lat="47.552935" lon="8.007851">
        <ele>310.688920</ele>
        <time>2021-11-21T19:01:05.991Z</time>
      </trkpt>
      <trkpt lat="47.553173" lon="8.006642">
        <ele>310.263841</ele>
        <time>2021-11-21T19:01:16.793Z</time>
      </trkpt>
      <trkpt lat="47.553211" lon="8.006270">
        <ele>310.136849</ele>
        <time>2021-11-21T19:01:20.007Z</time>
      </trkpt>
      <trkpt lat="47.553220" lon="8.006182">
        <ele>310.106808</ele>
        <time>2021-11-21T19:01:20.598Z</time>
      </trkpt>
      <trkpt lat="47.553251" lon="8.005657">
        <ele>309.950668</ele>
        <time>2021-11-21T19:01:24.846Z</time>
      </trkpt>
      <trkpt lat="47.553256" lon="8.004837">
        <ele>309.790264</ele>
        <time>2021-11-21T19:01:31.771Z</time>
      </trkpt>
      <trkpt lat="47.553266" lon="8.003502">
        <ele>309.529114</ele>
        <time>2021-11-21T19:01:44.358Z</time>
      </trkpt>
      <trkpt lat="47.553270" lon="8.002465">
        <ele>309.851697</ele>
        <time>2021-11-21T19:01:57.029Z</time>
      </trkpt>
      <trkpt lat="47.553271" lon="8.002109">
        <ele>310.057027</ele>
        <time>2021-11-21T19:02:02.007Z</time>
      </trkpt>
      <trkpt lat="47.553273" lon="8.001687">
        <ele>310.300428</ele>
        <time>2021-11-21T19:02:07.688Z</time>
      </trkpt>
      <trkpt lat="47.553275" lon="7.999860">
        <ele>310.822562</ele>
        <time>2021-11-21T19:02:29.951Z</time>
      </trkpt>
      <trkpt lat="47.553278" lon="7.999508">
        <ele>310.723882</ele>
        <time>2021-11-21T19:02:33.569Z</time>
      </trkpt>
      <trkpt lat="47.553287" lon="7.998380">
        <ele>310.407659</ele>
        <time>2021-11-21T19:02:43.342Z</time>
      </trkpt>
      <trkpt lat="47.553287" lon="7.997190">
        <ele>309.420656</ele>
        <time>2021-11-21T19:02:52.650Z</time>
      </trkpt>
      <trkpt lat="47.553287" lon="7.997190">
        <ele>309.420656</ele>
        <time>2021-11-21T19:02:52.653Z</time>
      </trkpt>
      <trkpt lat="47.553279" lon="7.996528">
        <ele>308.543208</ele>
        <time>2021-11-21T19:02:57.676Z</time>
      </trkpt>
      <trkpt lat="47.553268" lon="7.996252">
        <ele>308.176805</ele>
        <time>2021-11-21T19:02:59.762Z</time>
      </trkpt>
      <trkpt lat="47.553246" lon="7.995617">
        <ele>307.334171</ele>
        <time>2021-11-21T19:03:03.946Z</time>
      </trkpt>
      <trkpt lat="47.553164" lon="7.993925">
        <ele>305.724480</ele>
        <time>2021-11-21T19:03:17.402Z</time>
      </trkpt>
      <trkpt lat="47.553156" lon="7.993696">
        <ele>305.539503</ele>
        <time>2021-11-21T19:03:18.804Z</time>
      </trkpt>
      <trkpt lat="47.553137" lon="7.993190">
        <ele>305.130690</ele>
        <time>2021-11-21T19:03:23.416Z</time>
      </trkpt>
      <trkpt lat="47.553130" lon="7.993014">
        <ele>304.988468</ele>
        <time>2021-11-21T19:03:27.602Z</time>
      </trkpt>
      <trkpt lat="47.553107" lon="7.992226">
        <ele>304.437995</ele>
        <time>2021-11-21T19:03:34.316Z</time>
      </trkpt>
      <trkpt lat="47.553091" lon="7.991915">
        <ele>304.286533</ele>
        <time>2021-11-21T19:03:38.548Z</time>
      </trkpt>
      <trkpt lat="47.553050" lon="7.990744">
        <ele>303.717125</ele>
        <time>2021-11-21T19:03:51.371Z</time>
      </trkpt>
      <trkpt lat="47.553126" lon="7.990240">
        <ele>303.466345</ele>
        <time>2021-11-21T19:03:55.283Z</time>
      </trkpt>
      <trkpt lat="47.553146" lon="7.990113">
        <ele>303.403016</ele>
        <time>2021-11-21T19:03:56.212Z</time>
      </trkpt>
      <trkpt lat="47.553163" lon="7.990004">
        <ele>303.348691</ele>
        <time>2021-11-21T19:03:56.997Z</time>
      </trkpt>
      <trkpt lat="47.553214" lon="7.989758">
        <ele>303.023235</ele>
        <time>2021-11-21T19:03:58.776Z</time>
      </trkpt>
      <trkpt lat="47.553253" lon="7.989578">
        <ele>302.562348</ele>
        <time>2021-11-21T19:04:00.065Z</time>
      </trkpt>
      <trkpt lat="47.553352" lon="7.989142">
        <ele>301.440863</ele>
        <time>2021-11-21T19:04:03.161Z</time>
      </trkpt>
      <trkpt lat="47.553424" lon="7.988762">
        <ele>300.478634</ele>
        <time>2021-11-21T19:04:05.808Z</time>
      </trkpt>
      <trkpt lat="47.553410" lon="7.988607">
        <ele>300.097386</ele>
        <time>2021-11-21T19:04:06.839Z</time>
      </trkpt>
      <trkpt lat="47.553343" lon="7.988401">
        <ele>299.539898</ele>
        <time>2021-11-21T19:04:08.360Z</time>
      </trkpt>
      <trkpt lat="47.553232" lon="7.988247">
        <ele>298.990601</ele>
        <time>2021-11-21T19:04:09.832Z</time>
      </trkpt>
      <trkpt lat="47.552867" lon="7.987810">
        <ele>297.295484</ele>
        <time>2021-11-21T19:04:14.401Z</time>
      </trkpt>
      <trkpt lat="47.552713" lon="7.987638">
        <ele>296.674876</ele>
        <time>2021-11-21T19:04:16.238Z</time>
      </trkpt>
      <trkpt lat="47.552504" lon="7.987369">
        <ele>296.103015</ele>
        <time>2021-11-21T19:04:18.948Z</time>
      </trkpt>
      <trkpt lat="47.552436" lon="7.987273">
        <ele>295.908998</ele>
        <time>2021-11-21T19:04:19.892Z</time>
      </trkpt>
      <trkpt lat="47.552224" lon="7.986975">
        <ele>295.305364</ele>
        <time>2021-11-21T19:04:22.877Z</time>
      </trkpt>
      <trkpt lat="47.552152" lon="7.986883">
        <ele>295.108970</ele>
        <time>2021-11-21T19:04:23.858Z</time>
      </trkpt>
      <trkpt lat="47.551971" lon="7.986555">
        <ele>294.518297</ele>
        <time>2021-11-21T19:04:26.856Z</time>
      </trkpt>
      <trkpt lat="47.551917" lon="7.986288">
        <ele>294.129705</ele>
        <time>2021-11-21T19:04:28.936Z</time>
      </trkpt>
      <trkpt lat="47.551915" lon="7.986209">
        <ele>294.019490</ele>
        <time>2021-11-21T19:04:29.496Z</time>
      </trkpt>
      <trkpt lat="47.551898" lon="7.985654">
        <ele>293.244938</ele>
        <time>2021-11-21T19:04:35.004Z</time>
      </trkpt>
      <trkpt lat="47.551939" lon="7.985151">
        <ele>293.568707</ele>
        <time>2021-11-21T19:04:41.160Z</time>
      </trkpt>
      <trkpt lat="47.551934" lon="7.984260">
        <ele>294.775767</ele>
        <time>2021-11-21T19:04:54.742Z</time>
      </trkpt>
      <trkpt lat="47.551993" lon="7.984014">
        <ele>295.129433</ele>
        <time>2021-11-21T19:04:58.347Z</time>
      </trkpt>
      <trkpt lat="47.552007" lon="7.983931">
        <ele>295.245329</ele>
        <time>2021-11-21T19:04:59.921Z</time>
      </trkpt>
      <trkpt lat="47.552005" lon="7.983849">
        <ele>295.356485</ele>
        <time>2021-11-21T19:05:02.002Z</time>
      </trkpt>
      <trkpt lat="47.551911" lon="7.983632">
        <ele>295.705789</ele>
        <time>2021-11-21T19:05:06.195Z</time>
      </trkpt>
      <trkpt lat="47.551892" lon="7.983447">
        <ele>295.959289</ele>
        <time>2021-11-21T19:05:09.540Z</time>
      </trkpt>
      <trkpt lat="47.551861" lon="7.981113">
        <ele>299.413748</ele>
        <time>2021-11-21T19:05:52.829Z</time>
      </trkpt>
      <trkpt lat="47.551865" lon="7.980584">
        <ele>300.215824</ele>
        <time>2021-11-21T19:05:59.470Z</time>
      </trkpt>
      <trkpt lat="47.551873" lon="7.980135">
        <ele>300.682921</ele>
        <time>2021-11-21T19:06:04.226Z</time>
      </trkpt>
      <trkpt lat="47.551933" lon="7.979363">
        <ele>300.500444</ele>
        <time>2021-11-21T19:06:12.585Z</time>
      </trkpt>
      <trkpt lat="47.551923" lon="7.979308">
        <ele>300.487069</ele>
        <time>2021-11-21T19:06:12.953Z</time>
      </trkpt>
      <trkpt lat="47.551901" lon="7.979190">
        <ele>300.458323</ele>
        <time>2021-11-21T19:06:13.924Z</time>
      </trkpt>
      <trkpt lat="47.551829" lon="7.976305">
        <ele>299.987395</ele>
        <time>2021-11-21T19:06:38.972Z</time>
      </trkpt>
      <trkpt lat="47.551793" lon="7.974325">
        <ele>299.866370</ele>
        <time>2021-11-21T19:07:01.072Z</time>
      </trkpt>
      <trkpt lat="47.551755" lon="7.972603">
        <ele>299.816692</ele>
        <time>2021-11-21T19:07:18.344Z</time>
      </trkpt>
      <trkpt lat="47.551742" lon="7.971805">
        <ele>299.635544</ele>
        <time>2021-11-21T19:07:25.163Z</time>
      </trkpt>
      <trkpt lat="47.551725" lon="7.970823">
        <ele>299.278531</ele>
        <time>2021-11-21T19:07:33.572Z</time>
      </trkpt>
      <trkpt lat="47.551734" lon="7.970034">
        <ele>298.991738</ele>
        <time>2021-11-21T19:07:40.532Z</time>
      </trkpt>
      <trkpt lat="47.551750" lon="7.968659">
        <ele>298.892637</ele>
        <time>2021-11-21T19:07:53.757Z</time>
      </trkpt>
      <trkpt lat="47.551825" lon="7.968445">
        <ele>298.906252</ele>
        <time>2021-11-21T19:07:56.009Z</time>
      </trkpt>
      <trkpt lat="47.551847" lon="7.968315">
        <ele>298.913819</ele>
        <time>2021-11-21T19:07:57.480Z</time>
      </trkpt>
      <trkpt lat="47.551839" lon="7.968208">
        <ele>298.919897</ele>
        <time>2021-11-21T19:07:58.682Z</time>
      </trkpt>
      <trkpt lat="47.551767" lon="7.967910">
        <ele>298.937769</ele>
        <time>2021-11-21T19:08:01.915Z</time>
      </trkpt>
      <trkpt lat="47.551902" lon="7.964650">
        <ele>299.550817</ele>
        <time>2021-11-21T19:08:38.316Z</time>
      </trkpt>
      <trkpt lat="47.551918" lon="7.963725">
        <ele>299.514315</ele>
        <time>2021-11-21T19:08:47.714Z</time>
      </trkpt>
      <trkpt lat="47.551906" lon="7.962453">
        <ele>299.285837</ele>
        <time>2021-11-21T19:08:59.643Z</time>
      </trkpt>
      <trkpt lat="47.551859" lon="7.961133">
        <ele>298.983957</ele>
        <time>2021-11-21T19:09:11.224Z</time>
      </trkpt>
      <trkpt lat="47.551894" lon="7.960729">
        <ele>298.862539</ele>
        <time>2021-11-21T19:09:14.976Z</time>
      </trkpt>
      <trkpt lat="47.551882" lon="7.960631">
        <ele>298.832849</ele>
        <time>2021-11-21T19:09:15.745Z</time>
      </trkpt>
      <trkpt lat="47.551865" lon="7.960528">
        <ele>298.801240</ele>
        <time>2021-11-21T19:09:16.692Z</time>
      </trkpt>
      <trkpt lat="47.551677" lon="7.960100">
        <ele>298.649014</ele>
        <time>2021-11-21T19:09:21.215Z</time>
      </trkpt>
      <trkpt lat="47.551543" lon="7.959654">
        <ele>298.503485</ele>
        <time>2021-11-21T19:09:25.588Z</time>
      </trkpt>
      <trkpt lat="47.551300" lon="7.958844">
        <ele>298.351667</ele>
        <time>2021-11-21T19:09:34.166Z</time>
      </trkpt>
      <trkpt lat="47.550869" lon="7.957700">
        <ele>298.351402</ele>
        <time>2021-11-21T19:09:47.530Z</time>
      </trkpt>
      <trkpt lat="47.550745" lon="7.957569">
        <ele>298.351356</ele>
        <time>2021-11-21T19:09:49.771Z</time>
      </trkpt>
      <trkpt lat="47.550735" lon="7.957541">
        <ele>298.351349</ele>
        <time>2021-11-21T19:09:50.213Z</time>
      </trkpt>
      <trkpt lat="47.550613" lon="7.957254">
        <ele>298.351281</ele>
        <time>2021-11-21T19:09:53.553Z</time>
      </trkpt>
      <trkpt lat="47.550549" lon="7.957126">
        <ele>298.351249</ele>
        <time>2021-11-21T19:09:55.102Z</time>
      </trkpt>
      <trkpt lat="47.550445" lon="7.956918">
        <ele>298.354586</ele>
        <time>2021-11-21T19:09:57.775Z</time>
      </trkpt>
      <trkpt lat="47.550380" lon="7.956806">
        <ele>298.367990</ele>
        <time>2021-11-21T19:09:59.259Z</time>
      </trkpt>
      <trkpt lat="47.550205" lon="7.956552">
        <ele>298.400927</ele>
        <time>2021-11-21T19:10:02.969Z</time>
      </trkpt>
      <trkpt lat="47.549444" lon="7.955496">
        <ele>298.541108</ele>
        <time>2021-11-21T19:10:19.333Z</time>
      </trkpt>
      <trkpt lat="47.549157" lon="7.955099">
        <ele>298.594518</ele>
        <time>2021-11-21T19:10:25.135Z</time>
      </trkpt>
      <trkpt lat="47.549042" lon="7.954942">
        <ele>298.630487</ele>
        <time>2021-11-21T19:10:27.488Z</time>
      </trkpt>
      <trkpt lat="47.548833" lon="7.954652">
        <ele>298.696349</ele>
        <time>2021-11-21T19:10:31.844Z</time>
      </trkpt>
      <trkpt lat="47.548641" lon="7.954399">
        <ele>298.755450</ele>
        <time>2021-11-21T19:10:35.765Z</time>
      </trkpt>
      <trkpt lat="47.548542" lon="7.954269">
        <ele>298.785877</ele>
        <time>2021-11-21T19:10:37.862Z</time>
      </trkpt>
      <trkpt lat="47.548342" lon="7.954009">
        <ele>298.847077</ele>
        <time>2021-11-21T19:10:42.043Z</time>
      </trkpt>
      <trkpt lat="47.548251" lon="7.953895">
        <ele>298.874488</ele>
        <time>2021-11-21T19:10:43.972Z</time>
      </trkpt>
      <trkpt lat="47.548115" lon="7.953729">
        <ele>298.915017</ele>
        <time>2021-11-21T19:10:46.839Z</time>
      </trkpt>
      <trkpt lat="47.547994" lon="7.953584">
        <ele>298.950813</ele>
        <time>2021-11-21T19:10:49.403Z</time>
      </trkpt>
      <trkpt lat="47.547871" lon="7.953437">
        <ele>298.987161</ele>
        <time>2021-11-21T19:10:51.993Z</time>
      </trkpt>
      <trkpt lat="47.547797" lon="7.953355">
        <ele>299.009643</ele>
        <time>2021-11-21T19:10:53.496Z</time>
      </trkpt>
      <trkpt lat="47.547624" lon="7.953160">
        <ele>299.095988</ele>
        <time>2021-11-21T19:10:56.990Z</time>
      </trkpt>
      <trkpt lat="47.547550" lon="7.953078">
        <ele>299.132694</ele>
        <time>2021-11-21T19:10:58.513Z</time>
      </trkpt>
      <trkpt lat="47.547458" lon="7.952975">
        <ele>299.178498</ele>
        <time>2021-11-21T19:11:00.528Z</time>
      </trkpt>
      <trkpt lat="47.547400" lon="7.952910">
        <ele>299.207385</ele>
        <time>2021-11-21T19:11:01.810Z</time>
      </trkpt>
      <trkpt lat="47.547090" lon="7.952543">
        <ele>299.365006</ele>
        <time>2021-11-21T19:11:08.259Z</time>
      </trkpt>
      <trkpt lat="47.546935" lon="7.952372">
        <ele>299.441769</ele>
        <time>2021-11-21T19:11:11.151Z</time>
      </trkpt>
      <trkpt lat="47.546776" lon="7.952185">
        <ele>299.522407</ele>
        <time>2021-11-21T19:11:14.475Z</time>
      </trkpt>
      <trkpt lat="47.546695" lon="7.952091">
        <ele>299.563277</ele>
        <time>2021-11-21T19:11:16.282Z</time>
      </trkpt>
      <trkpt lat="47.546634" lon="7.952024">
        <ele>299.593440</ele>
        <time>2021-11-21T19:11:17.725Z</time>
      </trkpt>
      <trkpt lat="47.546421" lon="7.951793">
        <ele>299.698292</ele>
        <time>2021-11-21T19:11:22.136Z</time>
      </trkpt>
      <trkpt lat="47.546231" lon="7.951558">
        <ele>299.685207</ele>
        <time>2021-11-21T19:11:26.689Z</time>
      </trkpt>
      <trkpt lat="47.546212" lon="7.951535">
        <ele>299.680560</ele>
        <time>2021-11-21T19:11:26.935Z</time>
      </trkpt>
      <trkpt lat="47.546135" lon="7.951406">
        <ele>299.658549</ele>
        <time>2021-11-21T19:11:28.744Z</time>
      </trkpt>
      <trkpt lat="47.545886" lon="7.951110">
        <ele>299.598095</ele>
        <time>2021-11-21T19:11:33.564Z</time>
      </trkpt>
      <trkpt lat="47.545824" lon="7.951061">
        <ele>299.584789</ele>
        <time>2021-11-21T19:11:34.706Z</time>
      </trkpt>
      <trkpt lat="47.545759" lon="7.950982">
        <ele>299.568868</ele>
        <time>2021-11-21T19:11:36.111Z</time>
      </trkpt>
      <trkpt lat="47.545727" lon="7.950947">
        <ele>299.561336</ele>
        <time>2021-11-21T19:11:36.912Z</time>
      </trkpt>
      <trkpt lat="47.545625" lon="7.950829">
        <ele>299.536830</ele>
        <time>2021-11-21T19:11:38.465Z</time>
      </trkpt>
      <trkpt lat="47.545567" lon="7.950765">
        <ele>299.523135</ele>
        <time>2021-11-21T19:11:39.485Z</time>
      </trkpt>
      <trkpt lat="47.545494" lon="7.950684">
        <ele>299.505864</ele>
        <time>2021-11-21T19:11:40.850Z</time>
      </trkpt>
      <trkpt lat="47.545434" lon="7.950668">
        <ele>299.494320</ele>
        <time>2021-11-21T19:11:41.944Z</time>
      </trkpt>
      <trkpt lat="47.545166" lon="7.950366">
        <ele>299.430558</ele>
        <time>2021-11-21T19:11:46.283Z</time>
      </trkpt>
      <trkpt lat="47.544901" lon="7.950044">
        <ele>299.378157</ele>
        <time>2021-11-21T19:11:50.415Z</time>
      </trkpt>
      <trkpt lat="47.544521" lon="7.949558">
        <ele>299.362754</ele>
        <time>2021-11-21T19:11:56.614Z</time>
      </trkpt>
      <trkpt lat="47.544407" lon="7.949414">
        <ele>299.358158</ele>
        <time>2021-11-21T19:11:58.896Z</time>
      </trkpt>
      <trkpt lat="47.544239" lon="7.949202">
        <ele>299.351387</ele>
        <time>2021-11-21T19:12:01.630Z</time>
      </trkpt>
      <trkpt lat="47.543864" lon="7.948694">
        <ele>299.335796</ele>
        <time>2021-11-21T19:12:09.565Z</time>
      </trkpt>
      <trkpt lat="47.543760" lon="7.948548">
        <ele>299.331400</ele>
        <time>2021-11-21T19:12:11.828Z</time>
      </trkpt>
      <trkpt lat="47.543579" lon="7.948287">
        <ele>299.457682</ele>
        <time>2021-11-21T19:12:17.530Z</time>
      </trkpt>
      <trkpt lat="47.543532" lon="7.948214">
        <ele>299.616661</ele>
        <time>2021-11-21T19:12:18.666Z</time>
      </trkpt>
      <trkpt lat="47.543435" lon="7.948000">
        <ele>300.022883</ele>
        <time>2021-11-21T19:12:21.727Z</time>
      </trkpt>
      <trkpt lat="47.543407" lon="7.947938">
        <ele>300.140440</ele>
        <time>2021-11-21T19:12:23.574Z</time>
      </trkpt>
      <trkpt lat="47.543280" lon="7.947656">
        <ele>300.674676</ele>
        <time>2021-11-21T19:12:28.086Z</time>
      </trkpt>
      <trkpt lat="47.543142" lon="7.947250">
        <ele>301.391035</ele>
        <time>2021-11-21T19:12:35.552Z</time>
      </trkpt>
      <trkpt lat="47.543086" lon="7.947052">
        <ele>301.729350</ele>
        <time>2021-11-21T19:12:38.981Z</time>
      </trkpt>
      <trkpt lat="47.543056" lon="7.946935">
        <ele>301.926587</ele>
        <time>2021-11-21T19:12:41.823Z</time>
      </trkpt>
      <trkpt lat="47.543045" lon="7.946881">
        <ele>302.015478</ele>
        <time>2021-11-21T19:12:42.980Z</time>
      </trkpt>
      <trkpt lat="47.542982" lon="7.946547">
        <ele>302.562001</ele>
        <time>2021-11-21T19:12:48.379Z</time>
      </trkpt>
      <trkpt lat="47.542974" lon="7.946495">
        <ele>302.646051</ele>
        <time>2021-11-21T19:12:50.020Z</time>
      </trkpt>
      <trkpt lat="47.542960" lon="7.946400">
        <ele>302.799290</ele>
        <time>2021-11-21T19:12:52.086Z</time>
      </trkpt>
      <trkpt lat="47.542916" lon="7.945730">
        <ele>303.791563</ele>
        <time>2021-11-21T19:13:04.751Z</time>
      </trkpt>
      <trkpt lat="47.542913" lon="7.945267">
        <ele>304.372162</ele>
        <time>2021-11-21T19:13:13.246Z</time>
      </trkpt>
      <trkpt lat="47.543007" lon="7.943867">
        <ele>306.136333</ele>
        <time>2021-11-21T19:13:34.413Z</time>
      </trkpt>
      <trkpt lat="47.543161" lon="7.942213">
        <ele>306.481013</ele>
        <time>2021-11-21T19:13:52.820Z</time>
      </trkpt>
      <trkpt lat="47.543435" lon="7.940670">
        <ele>305.901993</ele>
        <time>2021-11-21T19:14:05.768Z</time>
      </trkpt>
      <trkpt lat="47.543826" lon="7.939433">
        <ele>304.337012</ele>
        <time>2021-11-21T19:14:16.169Z</time>
      </trkpt>
      <trkpt lat="47.544472" lon="7.937932">
        <ele>302.280833</ele>
        <time>2021-11-21T19:14:29.493Z</time>
      </trkpt>
      <trkpt lat="47.544705" lon="7.937395">
        <ele>301.528244</ele>
        <time>2021-11-21T19:14:34.332Z</time>
      </trkpt>
      <trkpt lat="47.544903" lon="7.936917">
        <ele>300.867077</ele>
        <time>2021-11-21T19:14:38.593Z</time>
      </trkpt>
      <trkpt lat="47.545074" lon="7.936484">
        <ele>300.275661</ele>
        <time>2021-11-21T19:14:42.424Z</time>
      </trkpt>
      <trkpt lat="47.545457" lon="7.935110">
        <ele>299.106389</ele>
        <time>2021-11-21T19:14:53.792Z</time>
      </trkpt>
      <trkpt lat="47.545674" lon="7.933625">
        <ele>298.181117</ele>
        <time>2021-11-21T19:15:06.872Z</time>
      </trkpt>
      <trkpt lat="47.545702" lon="7.933290">
        <ele>298.291533</ele>
        <time>2021-11-21T19:15:10.452Z</time>
      </trkpt>
      <trkpt lat="47.545724" lon="7.932758">
        <ele>298.747915</ele>
        <time>2021-11-21T19:15:16.719Z</time>
      </trkpt>
      <trkpt lat="47.545721" lon="7.931992">
        <ele>299.403819</ele>
        <time>2021-11-21T19:15:26.759Z</time>
      </trkpt>
      <trkpt lat="47.545696" lon="7.931497">
        <ele>299.828851</ele>
        <time>2021-11-21T19:15:33.964Z</time>
      </trkpt>
      <trkpt lat="47.545661" lon="7.930955">
        <ele>300.295061</ele>
        <time>2021-11-21T19:15:42.659Z</time>
      </trkpt>
      <trkpt lat="47.545563" lon="7.929641">
        <ele>301.501568</ele>
        <time>2021-11-21T19:16:04.999Z</time>
      </trkpt>
      <trkpt lat="47.545475" lon="7.928419">
        <ele>302.629380</ele>
        <time>2021-11-21T19:16:21.301Z</time>
      </trkpt>
      <trkpt lat="47.545421" lon="7.927686">
        <ele>302.023252</ele>
        <time>2021-11-21T19:16:27.405Z</time>
      </trkpt>
      <trkpt lat="47.545406" lon="7.927306">
        <ele>301.423527</ele>
        <time>2021-11-21T19:16:30.309Z</time>
      </trkpt>
      <trkpt lat="47.545407" lon="7.927001">
        <ele>300.942984</ele>
        <time>2021-11-21T19:16:32.595Z</time>
      </trkpt>
      <trkpt lat="47.545409" lon="7.926773">
        <ele>300.583733</ele>
        <time>2021-11-21T19:16:34.225Z</time>
      </trkpt>
      <trkpt lat="47.545417" lon="7.925848">
        <ele>299.126247</ele>
        <time>2021-11-21T19:16:40.560Z</time>
      </trkpt>
      <trkpt lat="47.545446" lon="7.925350">
        <ele>298.185830</ele>
        <time>2021-11-21T19:16:43.852Z</time>
      </trkpt>
      <trkpt lat="47.545466" lon="7.924880">
        <ele>297.061850</ele>
        <time>2021-11-21T19:16:46.905Z</time>
      </trkpt>
      <trkpt lat="47.545481" lon="7.924396">
        <ele>295.905466</ele>
        <time>2021-11-21T19:16:49.988Z</time>
      </trkpt>
      <trkpt lat="47.545521" lon="7.923709">
        <ele>294.259709</ele>
        <time>2021-11-21T19:16:54.514Z</time>
      </trkpt>
      <trkpt lat="47.545536" lon="7.923407">
        <ele>293.536975</ele>
        <time>2021-11-21T19:16:56.903Z</time>
      </trkpt>
      <trkpt lat="47.545553" lon="7.923142">
        <ele>292.901648</ele>
        <time>2021-11-21T19:16:58.624Z</time>
      </trkpt>
      <trkpt lat="47.545587" lon="7.922895">
        <ele>292.299999</ele>
        <time>2021-11-21T19:17:01.025Z</time>
      </trkpt>
      <trkpt lat="47.545641" lon="7.922610">
        <ele>292.033369</ele>
        <time>2021-11-21T19:17:03.024Z</time>
      </trkpt>
      <trkpt lat="47.545690" lon="7.922369">
        <ele>291.819836</ele>
        <time>2021-11-21T19:17:05.715Z</time>
      </trkpt>
      <trkpt lat="47.545699" lon="7.922325">
        <ele>291.780831</ele>
        <time>2021-11-21T19:17:05.976Z</time>
      </trkpt>
      <trkpt lat="47.545714" lon="7.922249">
        <ele>291.713655</ele>
        <time>2021-11-21T19:17:06.566Z</time>
      </trkpt>
      <trkpt lat="47.545778" lon="7.921947">
        <ele>291.445115</ele>
        <time>2021-11-21T19:17:09.722Z</time>
      </trkpt>
      <trkpt lat="47.545810" lon="7.921755">
        <ele>291.277335</ele>
        <time>2021-11-21T19:17:11.080Z</time>
      </trkpt>
      <trkpt lat="47.545881" lon="7.921096">
        <ele>290.711179</ele>
        <time>2021-11-21T19:17:16.428Z</time>
      </trkpt>
      <trkpt lat="47.545913" lon="7.920765">
        <ele>290.427502</ele>
        <time>2021-11-21T19:17:19.295Z</time>
      </trkpt>
      <trkpt lat="47.545973" lon="7.920313">
        <ele>290.036693</ele>
        <time>2021-11-21T19:17:24.442Z</time>
      </trkpt>
      <trkpt lat="47.546128" lon="7.919617">
        <ele>289.829948</ele>
        <time>2021-11-21T19:17:30.905Z</time>
      </trkpt>
      <trkpt lat="47.546262" lon="7.919081">
        <ele>289.680229</ele>
        <time>2021-11-21T19:17:36.904Z</time>
      </trkpt>
      <trkpt lat="47.546821" lon="7.916867">
        <ele>289.032625</ele>
        <time>2021-11-21T19:17:57.657Z</time>
      </trkpt>
      <trkpt lat="47.547032" lon="7.916218">
        <ele>288.823004</ele>
        <time>2021-11-21T19:18:04.148Z</time>
      </trkpt>
      <trkpt lat="47.547091" lon="7.916039">
        <ele>288.765038</ele>
        <time>2021-11-21T19:18:05.965Z</time>
      </trkpt>
      <trkpt lat="47.547113" lon="7.915971">
        <ele>288.743095</ele>
        <time>2021-11-21T19:18:06.564Z</time>
      </trkpt>
      <trkpt lat="47.547423" lon="7.915080">
        <ele>288.611256</ele>
        <time>2021-11-21T19:18:16.208Z</time>
      </trkpt>
      <trkpt lat="47.547994" lon="7.913433">
        <ele>289.023832</ele>
        <time>2021-11-21T19:18:35.927Z</time>
      </trkpt>
      <trkpt lat="47.548027" lon="7.913334">
        <ele>289.048435</ele>
        <time>2021-11-21T19:18:37.287Z</time>
      </trkpt>
      <trkpt lat="47.548412" lon="7.912168">
        <ele>289.799337</ele>
        <time>2021-11-21T19:18:53.690Z</time>
      </trkpt>
      <trkpt lat="47.549012" lon="7.910340">
        <ele>291.346356</ele>
        <time>2021-11-21T19:19:20.654Z</time>
      </trkpt>
      <trkpt lat="47.549102" lon="7.910058">
        <ele>291.641546</ele>
        <time>2021-11-21T19:19:24.832Z</time>
      </trkpt>
      <trkpt lat="47.549195" lon="7.909756">
        <ele>291.955673</ele>
        <time>2021-11-21T19:19:29.083Z</time>
      </trkpt>
      <trkpt lat="47.549235" lon="7.909622">
        <ele>292.094327</ele>
        <time>2021-11-21T19:19:31.074Z</time>
      </trkpt>
      <trkpt lat="47.549308" lon="7.909380">
        <ele>292.345165</ele>
        <time>2021-11-21T19:19:34.366Z</time>
      </trkpt>
      <trkpt lat="47.549520" lon="7.908678">
        <ele>293.072938</ele>
        <time>2021-11-21T19:19:44.430Z</time>
      </trkpt>
      <trkpt lat="47.549539" lon="7.908625">
        <ele>293.129727</ele>
        <time>2021-11-21T19:19:45.175Z</time>
      </trkpt>
      <trkpt lat="47.550497" lon="7.905558">
        <ele>298.411194</ele>
        <time>2021-11-21T19:20:39.987Z</time>
      </trkpt>
      <trkpt lat="47.550283" lon="7.905413">
        <ele>299.277818</ele>
        <time>2021-11-21T19:20:48.153Z</time>
      </trkpt>
      <trkpt lat="47.550067" lon="7.905245">
        <ele>300.176251</ele>
        <time>2021-11-21T19:20:56.839Z</time>
      </trkpt>
      <trkpt lat="47.549867" lon="7.905155">
        <ele>300.946035</ele>
        <time>2021-11-21T19:21:04.468Z</time>
      </trkpt>
      <trkpt lat="47.549868" lon="7.905010">
        <ele>301.306481</ele>
        <time>2021-11-21T19:21:07.873Z</time>
      </trkpt>
      <trkpt lat="47.550025" lon="7.904774">
        <ele>302.130157</ele>
        <time>2021-11-21T19:21:16.024Z</time>
      </trkpt>
      <trkpt lat="47.550302" lon="7.904164">
        <ele>303.957655</ele>
        <time>2021-11-21T19:21:34.323Z</time>
      </trkpt>
      <trkpt lat="47.550498" lon="7.903445">
        <ele>305.876775</ele>
        <time>2021-11-21T19:21:53.895Z</time>
      </trkpt>
      <trkpt lat="47.550688" lon="7.902451">
        <ele>308.429038</ele>
        <time>2021-11-21T19:22:16.443Z</time>
      </trkpt>
      <trkpt lat="47.550757" lon="7.901591">
        <ele>310.568627</ele>
        <time>2021-11-21T19:22:36.240Z</time>
      </trkpt>
      <trkpt lat="47.550769" lon="7.901362">
        <ele>311.141916</ele>
        <time>2021-11-21T19:22:42.147Z</time>
      </trkpt>
      <trkpt lat="47.550801" lon="7.900244">
        <ele>314.358680</ele>
        <time>2021-11-21T19:23:06.545Z</time>
      </trkpt>
      <trkpt lat="47.550819" lon="7.898109">
        <ele>319.862358</ele>
        <time>2021-11-21T19:23:53.585Z</time>
      </trkpt>
      <trkpt lat="47.550648" lon="7.896481">
        <ele>322.867850</ele>
        <time>2021-11-21T19:24:21.240Z</time>
      </trkpt>
      <trkpt lat="47.550639" lon="7.896345">
        <ele>323.117127</ele>
        <time>2021-11-21T19:24:23.615Z</time>
      </trkpt>
      <trkpt lat="47.550660" lon="7.896255">
        <ele>323.290836</ele>
        <time>2021-11-21T19:24:24.416Z</time>
      </trkpt>
      <trkpt lat="47.550838" lon="7.895509">
        <ele>324.143037</ele>
        <time>2021-11-21T19:24:34.584Z</time>
      </trkpt>
      <trkpt lat="47.550878" lon="7.895158">
        <ele>324.447142</ele>
        <time>2021-11-21T19:24:38.646Z</time>
      </trkpt>
      <trkpt lat="47.550908" lon="7.894308">
        <ele>325.174293</ele>
        <time>2021-11-21T19:24:49.119Z</time>
      </trkpt>
      <trkpt lat="47.550892" lon="7.893176">
        <ele>326.687782</ele>
        <time>2021-11-21T19:25:03.836Z</time>
      </trkpt>
      <trkpt lat="47.550904" lon="7.891725">
        <ele>330.718321</ele>
        <time>2021-11-21T19:25:33.598Z</time>
      </trkpt>
      <trkpt lat="47.550915" lon="7.890600">
        <ele>334.125938</ele>
        <time>2021-11-21T19:26:02.438Z</time>
      </trkpt>
      <trkpt lat="47.550833" lon="7.889069">
        <ele>340.613422</ele>
        <time>2021-11-21T19:26:45.072Z</time>
      </trkpt>
      <trkpt lat="47.550831" lon="7.888611">
        <ele>342.548119</ele>
        <time>2021-11-21T19:26:57.642Z</time>
      </trkpt>
      <trkpt lat="47.550789" lon="7.887816">
        <ele>345.791258</ele>
        <time>2021-11-21T19:27:18.254Z</time>
      </trkpt>
      <trkpt lat="47.550758" lon="7.887295">
        <ele>347.796790</ele>
        <time>2021-11-21T19:27:32.075Z</time>
      </trkpt>
      <trkpt lat="47.550677" lon="7.886476">
        <ele>350.970801</ele>
        <time>2021-11-21T19:27:53.565Z</time>
      </trkpt>
      <trkpt lat="47.550548" lon="7.885799">
        <ele>353.668248</ele>
        <time>2021-11-21T19:28:10.771Z</time>
      </trkpt>
      <trkpt lat="47.550391" lon="7.885109">
        <ele>356.056741</ele>
        <time>2021-11-21T19:28:28.409Z</time>
      </trkpt>
      <trkpt lat="47.550332" lon="7.884727">
        <ele>357.199200</ele>
        <time>2021-11-21T19:28:37.099Z</time>
      </trkpt>
      <trkpt lat="47.550283" lon="7.883978">
        <ele>359.393049</ele>
        <time>2021-11-21T19:28:53.550Z</time>
      </trkpt>
      <trkpt lat="47.550234" lon="7.883221">
        <ele>361.610115</ele>
        <time>2021-11-21T19:29:09.930Z</time>
      </trkpt>
      <trkpt lat="47.549927" lon="7.881490">
        <ele>366.100607</ele>
        <time>2021-11-21T19:29:42.191Z</time>
      </trkpt>
      <trkpt lat="47.549726" lon="7.880786">
        <ele>367.950612</ele>
        <time>2021-11-21T19:29:58.167Z</time>
      </trkpt>
      <trkpt lat="47.549327" lon="7.879547">
        <ele>371.648689</ele>
        <time>2021-11-21T19:30:27.951Z</time>
      </trkpt>
      <trkpt lat="47.549318" lon="7.879398">
        <ele>372.070441</ele>
        <time>2021-11-21T19:30:31.139Z</time>
      </trkpt>
      <trkpt lat="47.549140" lon="7.879391">
        <ele>372.814208</ele>
        <time>2021-11-21T19:30:38.009Z</time>
      </trkpt>
      <trkpt lat="47.548718" lon="7.879258">
        <ele>374.616340</ele>
        <time>2021-11-21T19:30:51.680Z</time>
      </trkpt>
      <trkpt lat="47.548422" lon="7.878959">
        <ele>376.112760</ele>
        <time>2021-11-21T19:31:02.327Z</time>
      </trkpt>
      <trkpt lat="47.548234" lon="7.878638">
        <ele>376.680117</ele>
        <time>2021-11-21T19:31:10.759Z</time>
      </trkpt>
      <trkpt lat="47.547992" lon="7.877974">
        <ele>377.135976</ele>
        <time>2021-11-21T19:31:23.856Z</time>
      </trkpt>
      <trkpt lat="47.547574" lon="7.876801">
        <ele>377.937275</ele>
        <time>2021-11-21T19:31:37.620Z</time>
      </trkpt>
      <trkpt lat="47.547126" lon="7.875801">
        <ele>375.842132</ele>
        <time>2021-11-21T19:31:46.402Z</time>
      </trkpt>
      <trkpt lat="47.546309" lon="7.874154">
        <ele>370.152078</ele>
        <time>2021-11-21T19:31:59.591Z</time>
      </trkpt>
      <trkpt lat="47.546135" lon="7.873859">
        <ele>368.423892</ele>
        <time>2021-11-21T19:32:01.973Z</time>
      </trkpt>
      <trkpt lat="47.546077" lon="7.873763">
        <ele>367.855540</ele>
        <time>2021-11-21T19:32:02.784Z</time>
      </trkpt>
      <trkpt lat="47.545934" lon="7.873549">
        <ele>366.527159</ele>
        <time>2021-11-21T19:32:04.588Z</time>
      </trkpt>
      <trkpt lat="47.545746" lon="7.873302">
        <ele>364.884955</ele>
        <time>2021-11-21T19:32:06.877Z</time>
      </trkpt>
      <trkpt lat="47.545515" lon="7.873015">
        <ele>362.914665</ele>
        <time>2021-11-21T19:32:09.575Z</time>
      </trkpt>
      <trkpt lat="47.545478" lon="7.872968">
        <ele>362.596137</ele>
        <time>2021-11-21T19:32:10.017Z</time>
      </trkpt>
      <trkpt lat="47.545375" lon="7.872836">
        <ele>361.706079</ele>
        <time>2021-11-21T19:32:11.210Z</time>
      </trkpt>
      <trkpt lat="47.545131" lon="7.872664">
        <ele>359.940130</ele>
        <time>2021-11-21T19:32:13.669Z</time>
      </trkpt>
      <trkpt lat="47.544883" lon="7.872555">
        <ele>358.271021</ele>
        <time>2021-11-21T19:32:15.992Z</time>
      </trkpt>
      <trkpt lat="47.544390" lon="7.872423">
        <ele>355.047674</ele>
        <time>2021-11-21T19:32:20.454Z</time>
      </trkpt>
      <trkpt lat="47.543332" lon="7.872237">
        <ele>348.192748</ele>
        <time>2021-11-21T19:32:30.216Z</time>
      </trkpt>
      <trkpt lat="47.543251" lon="7.872152">
        <ele>347.757094</ele>
        <time>2021-11-21T19:32:31.166Z</time>
      </trkpt>
      <trkpt lat="47.543233" lon="7.872082">
        <ele>347.561736</ele>
        <time>2021-11-21T19:32:31.587Z</time>
      </trkpt>
      <trkpt lat="47.543013" lon="7.872182">
        <ele>346.672647</ele>
        <time>2021-11-21T19:32:33.813Z</time>
      </trkpt>
      <trkpt lat="47.542919" lon="7.872226">
        <ele>346.291777</ele>
        <time>2021-11-21T19:32:34.742Z</time>
      </trkpt>
      <trkpt lat="47.542814" lon="7.872280">
        <ele>345.862356</ele>
        <time>2021-11-21T19:32:35.796Z</time>
      </trkpt>
      <trkpt lat="47.542714" lon="7.872334">
        <ele>345.451134</ele>
        <time>2021-11-21T19:32:36.865Z</time>
      </trkpt>
      <trkpt lat="47.542537" lon="7.872430">
        <ele>344.722897</ele>
        <time>2021-11-21T19:32:38.607Z</time>
      </trkpt>
      <trkpt lat="47.542436" lon="7.872494">
        <ele>344.298480</ele>
        <time>2021-11-21T19:32:39.936Z</time>
      </trkpt>
      <trkpt lat="47.542394" lon="7.872341">
        <ele>343.867715</ele>
        <time>2021-11-21T19:32:41.023Z</time>
      </trkpt>
      <trkpt lat="47.542218" lon="7.871866">
        <ele>342.454538</ele>
        <time>2021-11-21T19:32:44.744Z</time>
      </trkpt>
      <trkpt lat="47.542091" lon="7.871721">
        <ele>341.835048</ele>
        <time>2021-11-21T19:32:46.291Z</time>
      </trkpt>
      <trkpt lat="47.542067" lon="7.871664">
        <ele>341.659840</ele>
        <time>2021-11-21T19:32:47.073Z</time>
      </trkpt>
      <trkpt lat="47.542039" lon="7.871556">
        <ele>341.358109</ele>
        <time>2021-11-21T19:32:47.955Z</time>
      </trkpt>
      <trkpt lat="47.542004" lon="7.871446">
        <ele>341.113108</ele>
        <time>2021-11-21T19:32:48.820Z</time>
      </trkpt>
      <trkpt lat="47.541953" lon="7.871286">
        <ele>341.113108</ele>
        <time>2021-11-21T19:32:50.247Z</time>
      </trkpt>
      <trkpt lat="47.541796" lon="7.871042">
        <ele>341.113108</ele>
        <time>2021-11-21T19:32:52.836Z</time>
      </trkpt>
      <trkpt lat="47.541576" lon="7.870664">
        <ele>341.113108</ele>
        <time>2021-11-21T19:32:56.697Z</time>
      </trkpt>
      <trkpt lat="47.541410" lon="7.870791">
        <ele>341.113108</ele>
        <time>2021-11-21T19:32:58.777Z</time>
      </trkpt>
      <trkpt lat="47.541368" lon="7.870826">
        <ele>341.113108</ele>
        <time>2021-11-21T19:32:59.504Z</time>
      </trkpt>
    </trkseg>
  </trk>
</gpx>